[[{"header":{"parameterUnit":"m.s-1","parameterCategory":1,"la1":30.6,"la2":28.766,"lo1":-90.7593,"lo2":-88.6598,"dx":0.0162,"dy":0.0183,"nx":116,"ny":114,"refTime":"2022-12-03T18:00:00:Z","depth":0,"parameterNumber":2,"parameterNumberName":"U-component_of_WINDS"},"data":[0.0,0.0,0.0,0.0,0.0,0.0,0.0,0.0,0.0,0.0,0.0,0.0,0.0,0.0,0.0,0.0,0.0,0.0,0.0,0.0,0.0,0.0,0.0,0.0,0.0,0.0,0.0,0.0,0.0,0.0,0.0,0.0,0.0,0.0,0.0,0.0,0.0,0.0,0.0,0.0,0.0,0.0,0.0,0.0,0.0,0.0,0.0,0.0,0.0,0.0,0.0,0.0,0.0,0.0,0.0,0.0,0.0,0.0,0.0,0.0,0.0,0.0,0.0,0.0,0.0,0.0,0.0,0.0,0.0,0.0,0.0,0.0,0.0,0.0,0.0,0.0,0.0,0.0,0.0,0.0,0.0,0.0,0.0,0.0,0.0,0.0,0.0,0.0,0.0,0.0,0.0,0.0,0.0,0.0,0.0,0.0,0.0,0.0,0.0,0.0,0.0,0.0,0.0,0.0,0.0,0.0,0.0,0.0,0.0,0.0,0.0,0.0,0.0,0.0,0.0,0.0,0.0,0.0,0.0,0.0,0.0,0.0,0.0,0.0,0.0,0.0,0.0,0.0,0.0,0.0,0.0,0.0,0.0,0.0,0.0,0.0,0.0,0.0,0.0,0.0,0.0,0.0,0.0,0.0,0.0,0.0,0.0,0.0,0.0,0.0,0.0,0.0,0.0,0.0,0.0,0.0,0.0,0.0,0.0,0.0,0.0,0.0,0.0,0.0,0.0,0.0,0.0,0.0,0.0,0.0,0.0,0.0,0.0,0.0,0.0,0.0,0.0,0.0,0.0,0.0,0.0,0.0,0.0,0.0,0.0,0.0,0.0,0.0,0.0,0.0,0.0,0.0,0.0,0.0,0.0,0.0,0.0,0.0,0.0,0.0,0.0,0.0,0.0,0.0,0.0,0.0,0.0,0.0,0.0,0.0,0.0,0.0,0.0,0.0,0.0,0.0,0.0,0.0,0.0,0.0,0.0,0.0,0.0,0.0,0.0,0.0,0.0,0.0,0.0,0.0,0.0,0.0,0.0,0.0,0.0,0.0,0.0,0.0,0.0,0.0,0.0,0.0,0.0,0.0,0.0,0.0,0.0,0.0,0.0,0.0,0.0,0.0,0.0,0.0,0.0,0.0,0.0,0.0,0.0,0.0,0.0,0.0,0.0,0.0,0.0,0.0,0.0,0.0,0.0,0.0,0.0,0.0,0.0,0.0,0.0,0.0,0.0,0.0,0.0,0.0,0.0,0.0,0.0,0.0,0.0,0.0,0.0,0.0,0.0,0.0,0.0,0.0,0.0,0.0,0.0,0.0,0.0,0.0,0.0,0.0,0.0,0.0,0.0,0.0,0.0,0.0,0.0,0.0,0.0,0.0,0.0,0.0,0.0,0.0,0.0,0.0,0.0,0.0,0.0,0.0,0.0,0.0,0.0,0.0,0.0,0.0,0.0,0.0,0.0,0.0,0.0,0.0,0.0,0.0,0.0,0.0,0.0,0.0,0.0,0.0,0.0,0.0,0.0,0.0,0.0,0.0,0.0,0.0,0.0,0.0,0.0,0.0,0.0,0.0,0.0,0.0,0.0,0.0,0.0,0.0,0.0,0.0,0.0,0.0,0.0,0.0,0.0,0.0,0.0,0.0,0.0,0.0,0.0,0.0,0.0,0.0,0.0,0.0,0.0,0.0,0.0,0.0,0.0,0.0,0.0,0.0,0.0,0.0,0.0,0.0,0.0,0.0,0.0,0.0,0.0,0.0,0.0,0.0,0.0,0.0,0.0,0.0,0.0,0.0,0.0,0.0,0.0,0.0,0.0,0.0,0.0,0.0,0.0,0.0,0.0,0.0,0.0,0.0,0.0,0.0,0.0,0.0,0.0,0.0,0.0,0.0,0.0,0.0,0.0,0.0,0.0,0.0,0.0,0.0,0.0,0.0,0.0,0.0,0.0,0.0,0.0,0.0,0.0,0.0,0.0,0.0,0.0,0.0,0.0,0.0,0.0,0.0,0.0,0.0,0.0,0.0,0.0,0.0,0.0,0.0,0.0,0.0,0.0,0.0,0.0,0.0,0.0,0.0,0.0,0.0,0.0,0.0,0.0,0.0,0.0,0.0,0.0,0.0,0.0,0.0,0.0,0.0,0.0,0.0,0.0,0.0,0.0,0.0,0.0,0.0,0.0,0.0,0.0,0.0,0.0,0.0,0.0,0.0,0.0,0.0,0.0,0.0,0.0,0.0,0.0,0.0,0.0,0.0,0.0,0.0,0.0,0.0,0.0,0.0,0.0,0.0,0.0,0.0,0.0,0.0,0.0,0.0,0.0,0.0,0.0,0.0,0.0,0.0,0.0,0.0,0.0,0.0,0.0,0.0,0.0,0.0,0.0,0.0,0.0,0.0,0.0,0.0,0.0,0.0,0.0,0.0,0.0,0.0,0.0,0.0,0.0,0.0,0.0,0.0,0.0,0.0,0.0,0.0,0.0,0.0,0.0,0.0,0.0,0.0,0.0,0.0,0.0,0.0,0.0,0.0,0.0,0.0,0.0,0.0,0.0,0.0,0.0,0.0,0.0,0.0,0.0,0.0,0.0,0.0,0.0,0.0,0.0,0.0,0.0,0.0,0.0,0.0,0.0,0.0,0.0,0.0,0.0,0.0,0.0,0.0,0.0,0.0,0.0,0.0,0.0,0.0,0.0,0.0,0.0,0.0,0.0,0.0,0.0,0.0,0.0,0.0,0.0,0.0,0.0,0.0,0.0,0.0,0.0,0.0,0.0,0.0,0.0,0.0,0.0,0.0,0.0,0.0,0.0,0.0,0.0,0.0,0.0,0.0,0.0,0.0,0.0,0.0,0.0,0.0,0.0,0.0,0.0,0.0,0.0,0.0,0.0,0.0,0.0,0.0,0.0,0.0,0.0,0.0,0.0,0.0,0.0,0.0,0.0,0.0,0.0,0.0,0.0,0.0,0.0,0.0,0.0,0.0,0.0,0.0,0.0,0.0,0.0,0.0,0.0,0.0,0.0,0.0,0.0,0.0,0.0,0.0,0.0,0.0,0.0,0.0,0.0,0.0,0.0,0.0,0.0,0.0,0.0,0.0,0.0,0.0,0.0,0.0,0.0,0.0,0.0,0.0,0.0,0.0,0.0,0.0,0.0,0.0,0.0,0.0,0.0,0.0,0.0,0.0,0.0,0.0,0.0,0.0,0.0,0.0,0.0,0.0,0.0,0.0,0.0,0.0,0.0,0.0,0.0,0.0,0.0,0.0,0.0,0.0,0.0,0.0,0.0,0.0,0.0,0.0,0.0,0.0,0.0,0.0,0.0,0.0,0.0,0.0,0.0,0.0,0.0,0.0,0.0,0.0,0.0,0.0,0.0,0.0,0.0,0.0,0.0,0.0,0.0,0.0,0.0,0.0,0.0,0.0,0.0,0.0,0.0,0.0,0.0,0.0,0.0,0.0,0.0,0.0,0.0,0.0,0.0,0.0,0.0,0.0,0.0,0.0,0.0,0.0,0.0,0.0,0.0,0.0,0.0,0.0,0.0,0.0,0.0,0.0,0.0,0.0,0.0,0.0,0.0,0.0,0.0,0.0,0.0,0.0,0.0,0.0,0.0,0.0,0.0,0.0,0.0,0.0,0.0,0.0,0.0,0.0,0.0,0.0,0.0,0.0,0.0,0.0,0.0,0.0,0.0,0.0,0.0,0.0,0.0,0.0,0.0,0.0,0.0,0.0,0.0,0.0,0.0,0.0,0.0,0.0,0.0,0.0,0.0,0.0,0.0,0.0,0.0,0.0,0.0,0.0,0.0,0.0,0.0,0.0,0.0,0.0,0.0,0.0,0.0,0.0,0.0,0.0,0.0,0.0,0.0,0.0,0.0,0.0,0.0,0.0,0.0,0.0,0.0,0.0,0.0,0.0,0.0,0.0,0.0,0.0,0.0,0.0,0.0,0.0,0.0,0.0,0.0,0.0,0.0,0.0,0.0,0.0,0.0,0.0,0.0,0.0,0.0,0.0,0.0,0.0,0.0,0.0,0.0,0.0,0.0,0.0,0.0,0.0,0.0,0.0,0.0,0.0,0.0,0.0,0.0,0.0,0.0,0.0,0.0,0.0,0.0,0.0,0.0,0.0,0.0,0.0,0.0,0.0,0.0,0.0,0.0,0.0,0.0,0.0,0.0,0.0,0.0,0.0,0.0,0.0,0.0,0.0,0.0,0.0,0.0,0.0,0.0,0.0,0.0,0.0,0.0,0.0,0.0,0.0,0.0,0.0,0.0,0.0,0.0,0.0,0.0,0.0,0.0,0.0,0.0,0.0,0.0,0.0,0.0,0.0,0.0,0.0,0.0,0.0,0.0,0.0,0.0,0.0,0.0,0.0,0.0,0.0,0.0,0.0,0.0,0.0,0.0,0.0,0.0,0.0,0.0,0.0,0.0,0.0,0.0,0.0,0.0,0.0,0.0,0.0,0.0,0.0,0.0,0.0,0.0,0.0,0.0,0.0,0.0,0.0,0.0,0.0,0.0,0.0,0.0,0.0,0.0,0.0,0.0,0.0,0.0,0.0,0.0,0.0,0.0,0.0,0.0,0.0,0.0,0.0,0.0,0.0,0.0,0.0,0.0,0.0,0.0,0.0,0.0,0.0,0.0,0.0,0.0,0.0,0.0,0.0,0.0,0.0,0.0,0.0,0.0,0.0,0.0,0.0,0.0,0.0,0.0,0.0,0.0,0.0,0.0,0.0,0.0,0.0,0.0,0.0,0.0,0.0,0.0,0.0,0.0,0.0,0.0,0.0,0.0,0.0,0.0,0.0,0.0,0.0,0.0,0.0,0.0,0.0,0.0,0.0,0.0,0.0,0.0,0.0,0.0,0.0,0.0,0.0,0.0,0.0,0.0,0.0,0.0,0.0,0.0,0.0,0.0,0.0,0.0,0.0,0.0,0.0,0.0,0.0,0.0,0.0,0.0,0.0,0.0,0.0,0.0,0.0,0.0,0.0,0.0,0.0,0.0,0.0,0.0,0.0,0.0,0.0,0.0,0.0,0.0,0.0,0.0,0.0,0.0,0.0,0.0,0.0,0.0,0.0,0.0,0.0,0.0,0.0,0.0,0.0,0.0,0.0,0.0,0.0,0.0,0.0,0.0,0.0,0.0,0.0,0.0,0.0,0.0,0.0,0.0,0.0,0.0,0.0,0.0,0.0,0.0,0.0,0.0,0.0,0.0,0.0,0.0,0.0,0.0,0.0,0.0,0.0,0.0,0.0,0.0,0.0,0.0,0.0,0.0,0.0,0.0,0.0,0.0,0.0,0.0,0.0,0.0,0.0,0.0,0.0,0.0,0.0,0.0,0.0,0.0,0.0,0.0,0.0,0.0,0.0,0.0,0.0,0.0,0.0,0.0,0.0,0.0,0.0,0.0,0.0,0.0,0.0,0.0,0.0,0.0,0.0,0.0,0.0,0.0,0.0,0.0,0.0,0.0,0.0,0.0,0.0,0.0,0.0,0.0,0.0,0.0,0.0,0.0,0.0,0.0,0.0,0.0,0.0,0.0,0.0,0.0,0.0,0.0,0.0,0.0,0.0,0.0,0.0,0.0,0.0,0.0,0.0,0.0,0.0,0.0,0.0,0.0,0.0,0.0,0.0,0.0,0.0,0.0,0.0,0.0,0.0,0.0,0.0,0.0,0.0,0.0,0.0,0.0,0.0,0.0,0.0,0.0,0.0,0.0,0.0,0.0,0.0,0.0,0.0,0.0,0.0,0.0,0.0,0.0,0.0,0.0,0.0,0.0,0.0,0.0,0.0,0.0,0.0,0.0,0.0,0.0,0.0,0.0,0.0,0.0,0.0,0.0,0.0,0.0,0.0,0.0,0.0,0.0,0.0,0.0,0.0,0.0,0.0,0.0,0.0,0.0,0.0,0.0,0.0,0.0,0.0,0.0,0.0,0.0,0.0,0.0,0.0,0.0,0.0,0.0,0.0,0.0,0.0,0.0,0.0,0.0,0.0,0.0,0.0,0.0,0.0,0.0,0.0,0.0,0.0,0.0,0.0,0.0,0.0,0.0,0.0,0.0,0.0,0.0,0.0,0.0,0.0,0.0,0.0,0.0,0.0,-2.7624,-2.6645,0.0,0.0,0.0,0.0,0.0,0.0,0.0,0.0,0.0,0.0,0.0,0.0,0.0,0.0,0.0,0.0,0.0,0.0,0.0,0.0,0.0,0.0,0.0,-2.3201,-2.3971,-2.5192,-2.4567,0.0,0.0,0.0,0.0,0.0,0.0,0.0,0.0,0.0,-2.0733,-2.1112,-2.2022,-2.312,-2.4331,-2.3852,-2.3379,-2.2931,0.0,0.0,0.0,0.0,0.0,0.0,0.0,0.0,0.0,0.0,0.0,0.0,0.0,0.0,0.0,0.0,0.0,0.0,0.0,0.0,0.0,0.0,0.0,0.0,0.0,0.0,0.0,0.0,0.0,0.0,0.0,0.0,0.0,0.0,0.0,0.0,0.0,0.0,0.0,0.0,0.0,0.0,0.0,0.0,0.0,0.0,0.0,0.0,0.0,0.0,0.0,0.0,0.0,0.0,0.0,0.0,0.0,0.0,0.0,0.0,0.0,0.0,0.0,0.0,0.0,0.0,0.0,0.0,0.0,0.0,-2.8328,-2.7751,0.0,0.0,0.0,0.0,0.0,0.0,0.0,0.0,0.0,0.0,0.0,0.0,0.0,0.0,0.0,0.0,0.0,0.0,0.0,0.0,0.0,-2.1831,-2.2701,-2.2932,-2.3639,-2.5173,-2.4697,-2.4034,-2.3378,-2.3205,0.0,0.0,0.0,0.0,-2.1055,-2.1035,-2.1465,-2.2344,-2.3516,-2.4883,-2.6387,-2.6387,-2.5971,-2.5173,-2.4043,0.0,0.0,0.0,0.0,0.0,0.0,0.0,0.0,0.0,0.0,0.0,0.0,0.0,0.0,0.0,0.0,0.0,0.0,0.0,0.0,0.0,0.0,0.0,0.0,0.0,0.0,0.0,0.0,0.0,0.0,0.0,0.0,0.0,0.0,0.0,0.0,0.0,0.0,0.0,0.0,0.0,0.0,0.0,0.0,0.0,0.0,0.0,0.0,0.0,0.0,0.0,0.0,0.0,0.0,0.0,0.0,0.0,0.0,0.0,0.0,0.0,0.0,0.0,-2.8672,-2.875,-2.875,-2.875,-2.9141,-2.9785,-2.9062,-2.9041,-2.9399,-2.7949,0.0,0.0,0.0,0.0,0.0,0.0,0.0,0.0,0.0,0.0,0.0,0.0,0.0,0.0,0.0,0.0,0.0,0.0,0.0,-2.1831,-2.2701,-2.3471,-2.4298,-2.5212,-2.5192,-2.5114,-2.5073,-2.4424,0.0,0.0,0.0,-2.2793,-2.2852,-2.2793,-2.3203,-2.4062,-2.6465,-2.8125,-2.9082,-2.9082,-2.9023,-2.8808,-2.6425,-2.5328,-2.5194,0.0,0.0,0.0,0.0,0.0,0.0,0.0,0.0,0.0,0.0,0.0,0.0,0.0,0.0,0.0,0.0,0.0,0.0,0.0,0.0,0.0,0.0,0.0,0.0,0.0,0.0,0.0,0.0,0.0,0.0,0.0,0.0,0.0,0.0,0.0,0.0,0.0,0.0,0.0,0.0,0.0,-2.8164,-2.8281,0.0,0.0,0.0,0.0,0.0,0.0,0.0,0.0,0.0,0.0,0.0,0.0,0.0,-2.8242,-2.8476,-2.9101,-2.9434,-2.9434,-3.0195,-3.0566,-3.0566,-3.0566,-3.0625,-3.0723,-3.0605,0.0,-2.957,-2.9285,0.0,0.0,0.0,0.0,0.0,0.0,0.0,0.0,0.0,0.0,0.0,0.0,0.0,0.0,0.0,0.0,0.0,0.0,0.0,0.0,0.0,-2.4702,-2.564,-2.6,-2.652,-2.6428,-2.5518,-2.515,0.0,0.0,-2.3339,-2.3144,-2.3144,-2.3594,-2.4746,-2.6582,-2.8223,-2.9473,-3.0332,-3.0332,-3.0332,-3.0273,-2.9121,-2.8066,-2.7068,-2.6227,0.0,0.0,0.0,0.0,0.0,0.0,0.0,0.0,0.0,0.0,0.0,0.0,0.0,0.0,0.0,0.0,0.0,0.0,0.0,0.0,0.0,0.0,0.0,0.0,0.0,0.0,0.0,0.0,0.0,0.0,0.0,0.0,0.0,0.0,0.0,0.0,0.0,0.0,0.0,-2.8789,-2.9023,-2.9023,-2.9023,-2.8848,0.0,0.0,0.0,0.0,0.0,0.0,0.0,0.0,0.0,-2.9023,-2.9023,-2.9277,-2.9766,-3.0137,-3.0332,-3.0332,-3.0723,-3.0898,-3.0898,-3.0898,-3.0898,-3.0898,-3.0898,-3.0684,-3.0293,-2.9763,-2.9117,-2.8354,0.0,0.0,0.0,0.0,-2.759,-2.7713,0.0,0.0,0.0,0.0,0.0,0.0,0.0,0.0,0.0,0.0,0.0,0.0,-2.4413,-2.5909,-2.6944,-2.6959,-2.7596,-2.7394,-2.5941,-2.5894,-2.5301,-2.3906,-2.3633,-2.3594,-2.3769,-2.4844,-2.6465,-2.8633,-2.9512,-3.0254,-3.0898,-3.0898,-3.0898,-3.0898,-3.0898,-3.0176,-2.8906,-2.8047,-2.6797,-2.5254,0.0,0.0,0.0,0.0,0.0,0.0,0.0,0.0,0.0,0.0,0.0,0.0,0.0,0.0,0.0,0.0,0.0,0.0,0.0,0.0,0.0,0.0,0.0,0.0,0.0,0.0,0.0,0.0,0.0,0.0,0.0,0.0,0.0,0.0,0.0,0.0,0.0,-2.9785,-2.9922,-2.9922,-2.9746,-2.9434,0.0,0.0,0.0,0.0,0.0,0.0,-2.8965,-2.8965,-2.9258,-2.9902,-2.9922,-3.0234,-3.0898,-3.0898,-3.0898,-3.0898,-3.0898,-3.0898,-3.0898,-3.0898,-3.0898,-3.0898,-3.0898,-3.0898,-3.0859,-3.0195,-2.9805,-2.9531,-2.8822,-2.8426,-2.8249,-2.8485,-2.8563,-2.8682,0.0,0.0,0.0,0.0,0.0,0.0,0.0,0.0,0.0,0.0,0.0,-2.525,-2.525,-2.6794,-2.7851,-2.7915,-2.797,-2.768,-2.6883,-2.6832,-2.6453,-2.5605,-2.4785,-2.4727,-2.5547,-2.7226,-2.8574,-2.9531,-3.041,-3.0859,-3.0898,-3.0898,-3.0898,-3.0898,-3.0898,-3.0859,-3.0703,-2.9844,-2.8945,-2.7949,-2.6211,0.0,0.0,0.0,0.0,0.0,0.0,0.0,0.0,0.0,0.0,0.0,0.0,0.0,0.0,0.0,0.0,0.0,0.0,0.0,0.0,0.0,0.0,0.0,0.0,0.0,0.0,0.0,0.0,0.0,0.0,0.0,0.0,0.0,0.0,0.0,0.0,0.0,0.0,-3.082,-3.0098,0.0,0.0,0.0,0.0,-3.0703,-3.0762,-3.0762,-3.0762,-3.0762,-3.0781,-3.082,-3.082,-3.0859,-3.0898,-3.0898,-3.0898,-3.0898,-3.0898,-3.0898,-3.0898,-3.0898,-3.0898,-3.0898,-3.0898,-3.0898,-3.0898,-3.0859,-3.0351,-2.9609,-2.9551,-2.9023,-2.8398,-2.9219,-2.9531,-2.9648,0.0,0.0,0.0,-2.424,-2.411,-2.3995,-2.3682,-2.3644,-2.3817,-2.4351,-2.5423,-2.6135,-2.6135,-2.764,-2.8704,-2.8771,-2.9326,-2.9366,-2.8622,-2.7569,-2.6835,-2.6543,-2.5156,-2.5332,-2.7324,-2.8535,-2.9551,-3.0449,-3.0742,-3.0898,-3.0898,-3.0898,-3.0898,-3.0898,-3.0898,-3.0898,-3.0879,-3.0566,-2.9609,-2.8242,-2.7617,-2.5996,0.0,0.0,0.0,0.0,0.0,0.0,0.0,0.0,0.0,0.0,0.0,0.0,0.0,0.0,0.0,0.0,0.0,0.0,0.0,0.0,0.0,0.0,0.0,0.0,0.0,0.0,0.0,0.0,0.0,0.0,0.0,0.0,0.0,0.0,0.0,0.0,0.0,-3.0898,-3.0625,0.0,-3.0879,-3.0625,-3.0566,-3.0879,-3.0898,-3.0898,-3.0898,-3.0898,-3.0898,-3.0898,-3.0898,-3.0898,-3.0898,-3.0898,-3.0898,-3.0898,-3.0898,-3.0898,-3.0898,-3.0898,-3.0898,-3.0898,-3.0898,-3.0898,-3.0898,-3.0898,-3.0723,-3.0449,-3.0449,-3.0254,-3.0019,-3.0312,-3.0449,-3.0488,0.0,0.0,0.0,-2.4601,-2.4509,-2.4509,-2.4509,-2.4509,-2.4793,-2.5635,-2.6505,-2.714,-2.7409,-2.8698,-2.9568,-2.9652,-3.0244,-3.0175,-2.9164,-2.8065,-2.7187,-2.6582,-2.5742,-2.623,-2.8262,-2.9141,-3.0039,-3.0898,-3.0898,-3.0898,-3.0898,-3.0898,-3.0898,-3.0898,-3.0898,-3.0898,-3.0898,-3.0898,-3.0234,-2.9141,-2.8867,-2.7519,-2.5644,0.0,0.0,0.0,0.0,0.0,0.0,0.0,0.0,0.0,0.0,0.0,0.0,0.0,0.0,0.0,0.0,0.0,0.0,0.0,0.0,0.0,0.0,0.0,0.0,0.0,0.0,0.0,0.0,0.0,0.0,0.0,0.0,0.0,0.0,-3.0898,-3.0898,-3.0898,-3.0898,-3.0898,-3.0898,-3.0898,-3.0898,-3.0898,-3.0898,-3.0898,-3.0898,-3.0898,-3.0898,-3.0898,-3.0898,-3.0898,-3.0898,-3.0898,-3.0898,-3.0898,-3.0898,-3.0898,-3.0898,-3.0898,-3.0898,-3.0898,-3.0898,-3.0898,-3.0898,-3.0898,-3.0898,-3.0898,-3.0898,-3.0898,-3.0898,-3.0898,-3.0898,-3.0898,0.0,0.0,-2.5308,-2.5308,-2.5308,-2.5308,-2.5308,-2.5308,-2.5615,-2.6486,-2.7351,-2.8203,-2.9011,-2.989,-3.0442,-3.0591,-3.0603,-2.9957,-2.8437,-2.8281,-2.748,-2.5762,-2.6582,-2.748,-2.832,-2.9199,-3.0059,-3.0898,-3.0898,-3.0898,-3.0898,-3.0898,-3.0898,-3.0898,-3.0898,-3.0898,-3.0898,-3.0898,-3.0898,-3.082,-2.998,-2.9121,-2.8164,0.0,0.0,0.0,0.0,0.0,0.0,0.0,0.0,0.0,0.0,0.0,0.0,0.0,0.0,0.0,0.0,0.0,0.0,0.0,0.0,0.0,0.0,0.0,0.0,0.0,0.0,0.0,0.0,0.0,0.0,0.0,0.0,0.0,-3.0898,-3.0898,-3.0898,-3.0898,-3.0898,-3.0898,-3.0898,-3.0898,-3.0898,-3.0898,-3.0898,-3.0898,-3.0898,-3.0898,-3.0898,-3.0898,-3.0898,-3.0898,-3.0898,-3.0898,-3.0898,-3.0898,-3.0898,-3.0898,-3.0898,-3.0898,-3.0898,-3.0898,-3.0898,-3.0898,-3.0898,-3.0898,-3.0898,-3.0898,-3.0898,-3.0898,-3.0898,-3.0898,-3.0898,-3.0898,-2.5308,-2.5308,-2.5308,-2.5308,-2.5308,-2.5308,-2.5308,-2.5308,-2.5615,-2.6486,-2.7351,-2.8203,-2.9011,-2.989,-3.0442,-3.0591,-3.0603,-3.0211,-2.9297,-2.8066,-2.6855,-2.5742,-2.7754,-2.9004,-2.9238,-3.0098,-3.0664,-3.0898,-3.0898,-3.0898,-3.0898,-3.0898,-3.0898,-3.0898,-3.0898,-3.0898,-3.0898,-3.0898,-3.0898,-3.0879,-3.0644,-3.0019,-2.9199,0.0,0.0,0.0,0.0,0.0,0.0,0.0,0.0,0.0,0.0,0.0,0.0,0.0,0.0,0.0,0.0,0.0,0.0,0.0,0.0,0.0,0.0,0.0,0.0,0.0,0.0,0.0,0.0,0.0,0.0,0.0,-3.0332,-3.0898,-3.0898,-3.0898,-3.0898,-3.0898,-3.0898,-3.0898,-3.0898,-3.0898,-3.0898,-3.0898,-3.0898,-3.0898,-3.0898,-3.0898,-3.0898,-3.0898,-3.0898,-3.0898,-3.0898,-3.0898,-3.0898,-3.0898,-3.0898,-3.0898,-3.0898,-3.0898,-3.0898,-3.0898,-3.0898,-3.0898,-3.0898,-3.0898,-3.0898,-3.0898,-3.0898,-3.0898,-3.0898,-3.0898,-3.0898,-3.0898,-2.5308,-2.5308,-2.5308,-2.5308,-2.5308,-2.5308,-2.5308,-2.5308,-2.5731,-2.6986,-2.7582,-2.8352,-2.9525,-3.0096,-3.0441,-3.0556,-3.0251,-2.9751,-2.9056,-2.7753,-2.7109,-2.7324,-2.8789,-2.9766,-3.0137,-3.0644,-3.0898,-3.0898,-3.0898,-3.0898,-3.0898,-3.0898,-3.0898,-3.0898,-3.0898,-3.0898,-3.0898,-3.0898,-3.0898,-3.0898,-3.0898,-3.0605,-3.0098,-2.9746,-2.9297,-2.8809,-2.8437,-2.8301,-2.8379,-2.8887,0.0,0.0,0.0,0.0,0.0,0.0,0.0,0.0,0.0,0.0,0.0,0.0,0.0,0.0,0.0,0.0,0.0,0.0,0.0,0.0,0.0,0.0,0.0,0.0,-3.0566,-3.0898,-3.0898,-3.0898,-3.0898,-3.0898,-3.0898,-3.0898,-3.0898,-3.0898,-3.0898,-3.0898,-3.0898,-3.0898,-3.0898,-3.0898,-3.0898,-3.0898,-3.0898,-3.0898,-3.0898,-3.0898,-3.0898,-3.0898,-3.0898,-3.0898,-3.0898,-3.0898,-3.0898,-3.0898,-3.0898,-3.0898,-3.0898,-3.0898,-3.0898,-3.0898,0.0,0.0,0.0,0.0,-3.0898,-3.0898,-2.5346,-2.5385,-2.5423,-2.5327,-2.5308,-2.5308,-2.5308,-2.5308,-2.5923,-2.7659,-2.7895,-2.8544,-3.0212,-3.0404,-3.0428,-3.049,-2.9848,-2.9131,-2.8412,-2.7692,-2.7988,-2.9531,-2.9687,-3.0117,-3.0879,-3.0898,-3.0898,-3.0898,-3.0898,-3.0898,-3.0898,-3.0898,-3.0898,-3.0898,-3.0898,-3.0898,-3.0898,-3.0898,-3.0898,-3.0898,-3.0898,-3.0898,-3.082,-3.0039,-2.9746,-2.9648,-2.8867,-2.8594,-2.8613,-2.8711,0.0,0.0,0.0,0.0,0.0,0.0,0.0,0.0,0.0,0.0,0.0,0.0,0.0,0.0,0.0,0.0,0.0,0.0,0.0,0.0,0.0,0.0,0.0,0.0,-3.0898,-3.0898,-3.0898,-3.0898,-3.0898,-3.0898,-3.0898,-3.0898,-3.0898,-3.0898,-3.0898,-3.0898,-3.0898,-3.0898,-3.0898,-3.0898,0.0,0.0,0.0,-3.0898,-3.0898,-3.0898,-3.0898,-3.0898,-3.0898,-3.0898,-3.0898,-3.0898,-3.0898,-3.0898,-3.0898,-3.0898,-3.0898,-3.0898,-3.0898,-3.0898,-3.0898,-3.0898,-3.0898,-3.0898,-3.0898,-3.0898,-2.5577,-2.5865,-2.6135,-2.5423,-2.5308,-2.5308,-2.5308,-2.5308,-2.5923,-2.7659,-2.7895,-2.8544,-3.0212,-3.0404,-3.0428,-3.049,-3.0418,-3.005,-2.9373,-2.9179,-2.9258,-2.959,-3.0273,-3.0723,-3.0898,-3.0898,-3.0898,-3.0898,-3.0898,-3.0898,-3.0898,-3.0898,-3.0898,-3.0898,-3.0898,-3.0898,-3.0898,-3.0898,-3.0898,-3.0898,-3.0898,-3.0898,-3.0879,-3.0703,-3.0644,-3.0625,-3.0469,-3.0391,-3.0508,-3.1211,-3.0976,-3.0391,-3.0391,-3.0391,0.0,0.0,0.0,0.0,0.0,0.0,0.0,0.0,0.0,0.0,0.0,0.0,0.0,0.0,0.0,0.0,0.0,0.0,0.0,-3.0762,-3.0898,-3.0898,-3.0898,-3.0898,-3.0898,-3.0898,-3.0898,-3.0898,-3.0898,-3.0898,-3.0898,-3.0898,-3.0898,-3.0898,-3.0898,-3.0898,-3.0898,-3.0898,-3.0898,-3.0898,-3.0898,-3.0898,-3.0898,-3.0898,-3.0898,0.0,-3.0898,-3.0898,-3.0898,-3.0898,-3.0898,-3.0898,-3.0898,-3.0898,-3.0898,-3.0898,-3.0898,-3.0898,-3.0898,-3.0898,-3.0898,-3.0898,-2.6851,-2.6601,-2.6467,-2.6019,-2.5596,-2.5308,-2.5308,-2.5308,-2.5923,-2.7659,-2.7895,-2.8371,-2.9602,-2.9756,-2.9597,-2.9226,-2.9287,-2.9228,-2.8919,-2.9335,-2.9785,-3.0234,-3.0664,-3.0898,-3.0898,-3.0898,-3.0898,-3.0898,-3.0898,-3.0898,-3.0898,-3.0898,-3.0898,-3.0898,-3.0898,-3.0898,-3.0898,-3.0898,-3.0898,-3.0898,-3.0898,-3.0898,-3.0898,-3.0898,-3.0898,-3.0898,-3.0898,-3.1172,-3.1621,-3.2051,-3.2187,-3.2148,-3.2148,-3.2148,-3.1816,0.0,0.0,0.0,0.0,0.0,0.0,0.0,0.0,0.0,0.0,0.0,0.0,0.0,0.0,-3.0254,-3.0254,0.0,-3.0391,-3.082,-3.0898,-3.0898,-3.0898,-3.0898,-3.0898,-3.0898,-3.1289,-3.1543,-3.1543,-3.1914,-3.2148,-3.2148,-3.2148,-3.1973,-3.1562,-3.1543,-3.1348,-3.0918,-3.0898,-3.0898,-3.0898,-3.0898,-3.0898,-3.0898,-3.0898,-3.0898,-3.0898,-3.0898,-3.0898,-3.0898,-3.0898,-3.0898,-3.0898,-3.0898,-3.0898,-3.0898,-3.0898,-3.0898,-3.0898,-3.0898,-3.0898,-3.0898,-2.8506,-2.7678,-2.6986,-2.6659,-2.6019,-2.55,-2.5327,-2.5308,-2.5865,-2.7448,-2.764,-2.7953,-2.878,-2.8876,-2.8618,-2.797,-2.8164,-2.8359,-2.8421,-2.9309,-3.0136,-3.0839,-3.0898,-3.0898,-3.0898,-3.0898,-3.0898,-3.0898,-3.0898,-3.0898,-3.0898,-3.0898,-3.0898,-3.0898,-3.0898,-3.0898,-3.0898,-3.0898,-3.0898,-3.0898,-3.0898,-3.0898,-3.0898,-3.0898,-3.0898,-3.0898,-3.0898,-3.1465,-3.2207,-3.2207,-3.2851,-3.3613,-3.3457,-3.3633,-3.3613,-3.207,-3.2148,0.0,0.0,0.0,0.0,0.0,0.0,0.0,0.0,-3.293,-3.3027,-3.166,-3.1934,-3.2226,-3.1523,-3.1269,-3.1152,-3.1152,-3.1016,-3.0898,-3.0898,-3.0898,-3.0957,-3.1133,-3.1777,-3.2266,-3.2422,-3.3027,-3.3398,-3.3398,-3.3398,-3.3125,-3.2461,-3.2422,-3.2031,-3.1172,-3.1152,-3.1074,-3.0898,-3.0898,-3.0898,-3.0898,-3.0898,-3.0898,-3.0898,-3.0898,-3.0898,-3.0898,-3.0898,-3.0898,-3.0898,-3.0898,-3.0898,-3.0898,-3.0898,-3.0898,-3.0898,-3.0898,-3.0898,-3.0898,-3.0135,-2.9429,-2.8357,-2.6851,-2.6524,-2.6192,-2.5423,-2.5308,-2.5654,-2.6621,-2.6755,-2.7063,-2.7934,-2.803,-2.8024,-2.7984,-2.8671,-2.9131,-2.9257,-3.0094,-3.0622,-3.0721,-3.0837,-3.0898,-3.0898,-3.0898,-3.0898,-3.0898,-3.0898,-3.0898,-3.0898,-3.0898,-3.0898,-3.0898,-3.0898,-3.0898,-3.0898,-3.0898,-3.0898,-3.0898,-3.0898,-3.0898,-3.0898,-3.0898,-3.0898,-3.0898,-3.0898,-3.1465,-3.2207,-3.2207,-3.3242,-3.4414,-3.3633,-3.4453,-3.5527,-3.4551,-3.4336,-3.4394,-3.4297,-3.3789,-3.3281,-3.3379,-3.3398,-3.3379,0.0,-3.334,-3.3359,-3.3164,-3.3203,-3.3242,-3.3144,-3.2539,-3.2051,-3.2051,-3.1406,-3.0898,-3.0898,-3.0898,-3.1191,-3.1953,-3.2148,-3.248,-3.3203,-3.3359,-3.3398,-3.3398,-3.3398,-3.3359,-3.3262,-3.3262,-3.2891,-3.207,-3.2051,-3.168,-3.0918,-3.0898,-3.0898,-3.0898,-3.0898,-3.0898,-3.0898,-3.0898,-3.0898,-3.0898,-3.0898,-3.0898,-3.0898,-3.0898,-3.0898,-3.0898,-3.0898,-3.0898,-3.0898,-3.0898,-3.0898,-3.0898,-3.0404,-3.0115,-2.9486,-2.8275,-2.7659,-2.7063,-2.6192,-2.6058,-2.6192,-2.6544,-2.6601,-2.6736,-2.7101,-2.6697,-2.6395,-2.6433,-2.7701,-2.8532,-2.8576,-2.9877,-3.065,-3.065,-3.0737,-3.0771,-3.0771,-3.0858,-3.0898,-3.0898,-3.0898,-3.0898,-3.0898,-3.0898,-3.0898,-3.0898,-3.0898,-3.0898,-3.0898,-3.0898,-3.0898,-3.0898,-3.0898,-3.0898,-3.0898,-3.0898,-3.0898,-3.0898,-3.0898,-3.1465,0.0,-3.2734,-3.3691,-3.4726,-3.4863,-3.4726,-3.4512,-3.4668,-3.4336,-3.416,-3.5176,-3.5195,-3.4902,-3.4902,-3.4902,-3.4902,-3.4902,-3.4902,-3.4766,-3.4258,-3.416,-3.4004,-3.3496,-3.3125,-3.2891,-3.2891,-3.2598,-3.2344,-3.2344,-3.2344,-3.2676,-3.3555,-3.3652,-3.3789,-3.4121,-3.4629,-3.4902,-3.4902,-3.4902,-3.4687,-3.418,-3.416,-3.3555,-3.2246,-3.2207,-3.1777,-3.0918,-3.0898,-3.0898,-3.0898,-3.0898,-3.0898,-3.0898,-3.0898,-3.0898,-3.0898,-3.0898,-3.0898,-3.0898,-3.0898,-3.0898,-3.0898,-3.0898,-3.0898,-3.0898,-3.0898,-3.0898,-3.0898,-3.0404,-3.0404,-3.0192,-2.9563,-2.878,-2.7852,-2.6774,-2.6409,-2.6231,-2.6231,-2.6231,-2.6231,-2.6231,-2.5673,-2.5308,-2.5308,-2.6944,-2.7963,-2.7963,-2.959,-3.0571,-3.0571,-3.0645,-3.0682,-3.0695,-3.0793,-3.0858,-3.0898,-3.0898,-3.0879,-3.0838,-3.0838,-3.0836,-3.0811,-3.0811,-3.0811,-3.0811,-3.0811,-3.0811,-3.0812,-3.0836,-3.0838,-3.0857,-3.0898,-3.0742,-3.0547,-3.0547,-3.1094,-3.1894,-3.2246,-3.3086,-3.4082,-3.4473,-3.4043,-3.3574,-3.4434,-3.4414,-3.4336,-3.5351,-3.5644,-3.5703,-3.5937,-3.5996,-3.5996,-3.5996,-3.5996,-3.582,-3.5195,-3.5059,-3.4863,-3.4238,-3.3926,-3.3769,-3.3769,-3.3555,-3.3398,-3.3398,-3.3398,-3.3711,-3.4609,-3.4707,-3.4785,-3.5039,-3.5625,-3.5996,-3.5996,-3.5996,-3.5723,-3.5098,-3.5059,-3.4394,-3.2949,-3.2891,-3.2461,-3.1601,-3.1582,-3.1484,-3.1269,-3.1269,-3.1133,-3.0898,-3.0898,-3.1035,-3.125,-3.0996,-3.0898,-3.0898,-3.0898,-3.0898,-3.0898,-3.0898,-3.0898,-3.0898,-3.0898,-3.0898,-3.0898,-3.0404,-3.0404,-3.0385,-3.0365,-2.964,-2.8511,-2.6851,-2.5885,-2.5346,-2.5346,-2.5346,-2.5346,-2.5346,-2.5327,-2.5308,-2.5308,-2.6895,-2.7901,-2.7901,-2.9535,-3.0507,-3.0507,-3.0565,-3.0621,-3.0695,-3.0696,-3.077,-3.0898,-3.0898,-3.0837,-3.0716,-3.0716,-3.0673,-3.0611,-3.0611,-3.0611,-3.0611,-3.0611,-3.0611,-3.0617,-3.0679,-3.0716,-3.072,-3.0857,-3.0371,-2.9648,-2.9648,-3.0195,-3.0801,-2.998,-3.0859,-3.2129,-3.1309,-3.2129,-3.3574,-3.4434,-3.5273,-3.5742,-3.4941,-3.4746,-3.4941,-3.5781,-3.5996,-3.5996,-3.5996,-3.5996,-3.5996,-3.5976,-3.5957,-3.5957,-3.5937,-3.5234,-3.4668,-3.4668,-3.3945,-3.3398,-3.3398,-3.3398,-3.3711,-3.4609,-3.4707,-3.5039,-3.5879,-3.5976,-3.5996,-3.5996,-3.5996,-3.5996,-3.5957,-3.5957,-3.5547,-3.4648,-3.4629,-3.4219,-3.332,-3.332,-3.293,-3.2168,-3.2168,-3.1719,-3.0898,-3.0898,-3.1367,-3.2109,-3.1269,-3.0898,-3.0898,-3.0898,-3.0898,-3.0898,-3.0898,-3.0898,-3.0898,-3.0898,-3.0898,-3.0898,-3.0519,-3.0404,-3.0404,-3.0404,-2.9679,-2.8915,-2.8338,-2.7063,-2.6154,-2.6154,-2.6678,0.0,0.0,0.0,0.0,0.0,-2.6697,-2.7274,-2.7857,-2.9498,-3.0425,-3.0425,-3.1056,-3.1131,-3.0584,-3.062,-3.0652,-3.071,-3.071,-3.0681,-3.0621,-3.0621,-3.0628,-3.0603,-3.0603,-3.0603,-3.0603,-3.0603,-3.0603,-3.0611,-3.0677,-3.0695,-3.0777,-3.1482,-3.0859,-2.9609,0.0,-2.9414,-2.9219,-2.9492,-2.998,-3.0527,-3.0801,-3.0488,-3.0195,-3.1055,-3.3125,-3.5078,-3.4785,-3.5117,-3.5625,-3.5937,-3.5996,-3.5996,-3.5996,-3.5996,-3.5996,-3.5996,-3.5996,-3.5996,-3.5996,-3.5762,-3.5566,-3.5566,-3.5312,-3.5137,-3.5137,-3.5137,-3.5234,-3.5527,-3.5566,-3.5684,-3.5976,-3.5996,-3.5996,-3.5996,-3.5996,-3.5996,-3.5996,-3.5996,-3.5605,-3.4726,-3.4707,-3.4277,-3.3418,-3.3398,-3.3262,-3.2988,-3.2461,-3.2051,-3.1738,-3.1152,-3.1387,-3.2148,-3.1289,-3.0898,-3.0898,-3.0898,-3.0898,-3.0898,-3.0898,-3.0898,-3.0898,-3.0898,-3.0898,-3.0898,-3.1404,-3.1288,-3.1192,-3.0904,-3.014,0.0,0.0,0.0,0.0,0.0,0.0,0.0,0.0,0.0,0.0,0.0,0.0,-2.7294,-2.7857,-2.9179,-3.0077,-3.0385,-3.0678,-3.0728,-3.0498,-2.997,-3.0131,-3.1067,-3.0758,-3.0899,-3.1464,-3.1464,-3.1445,-3.1409,-3.1409,-3.1409,-3.1409,-3.1409,-3.1603,-3.1844,-3.1306,-3.1115,-3.1137,-3.1219,-3.0175,0.0,-2.8672,-2.8105,-2.7461,-2.8027,-2.8418,-2.8769,-2.9336,-2.9375,-2.9394,-3.0273,-3.2285,-3.4297,-3.4629,-3.5117,-3.5605,-3.5918,-3.5996,-3.5996,-3.5996,-3.5996,-3.5996,-3.5996,-3.5996,-3.5996,-3.5996,-3.5996,-3.6094,-3.6406,-3.6465,-3.6465,-3.6465,-3.6465,-3.6348,-3.6035,-3.5996,-3.5996,-3.5996,-3.5996,-3.5996,-3.5996,-3.5996,-3.5996,-3.5996,-3.5996,-3.5742,-3.5176,-3.5156,-3.4902,-3.4336,-3.4336,-3.418,-3.3848,-3.3027,-3.2793,-3.3066,-3.2187,-3.2266,-3.3047,-3.2168,-3.1621,-3.1367,-3.1367,-3.1172,-3.0898,-3.0898,-3.0898,-3.0898,-3.0898,-3.0898,-3.0898,-3.291,-3.2891,-3.2641,0.0,0.0,0.0,0.0,0.0,0.0,0.0,0.0,0.0,0.0,0.0,0.0,0.0,0.0,0.0,-2.7895,-2.8646,-2.9467,-3.0308,-2.9621,-2.9634,-3.049,-2.8949,-2.9346,-3.1829,-3.0996,-3.1375,-3.2871,-3.2871,-3.2828,-3.2776,-3.2776,-3.2776,-3.2776,-3.2776,-3.3218,-3.3814,-3.2285,-3.1712,-3.1595,-3.0123,-2.8544,-2.7129,-2.7187,-2.6602,-2.582,-2.5781,-2.6387,-2.7148,-2.7187,-2.8926,-3.1133,-3.1953,-3.2793,-3.3652,-3.4473,-3.4726,-3.4961,-3.5781,-3.5996,-3.5996,-3.5996,-3.5996,-3.5996,-3.5996,-3.5957,-3.5937,-3.5937,-3.5937,-3.6191,-3.7031,-3.7207,-3.7226,-3.7226,-3.7226,-3.6934,-3.6094,-3.5996,-3.5996,-3.5996,-3.5996,-3.5996,-3.5996,-3.5996,-3.5996,-3.5996,-3.5996,-3.5996,-3.5996,-3.5996,-3.5996,-3.5996,-3.5996,-3.5566,-3.4687,-3.3867,-3.3906,-3.4668,-3.3809,-3.3887,-3.4648,-3.3789,-3.2969,-3.2266,-3.2226,-3.1719,-3.0957,-3.0918,-3.0898,-3.0898,-3.0898,-3.0898,-3.0898,0.0,0.0,0.0,0.0,0.0,0.0,0.0,0.0,0.0,0.0,0.0,0.0,0.0,0.0,0.0,0.0,0.0,0.0,-2.7857,-2.8646,-2.9204,-2.941,-3.0467,-3.0851,-3.0422,-2.9998,-3.0116,-3.0785,-3.0553,-3.0653,-3.1058,-3.1058,-3.1055,-3.1038,-3.1038,-3.1038,-3.1038,-3.1038,-3.0794,-3.0369,-3.0008,-2.9876,-2.9939,-3.0318,-2.9805,-2.8951,-2.9648,-2.8926,-2.7539,-2.6894,-2.7676,-2.9043,-2.9707,-3.0801,-3.1914,-3.2129,-3.3223,-3.4414,-3.4648,-3.5176,-3.5723,-3.5937,-3.5996,-3.5996,-3.5996,-3.5996,-3.5996,-3.5996,-3.5488,-3.5039,-3.5039,-3.5039,-3.5098,-3.5332,-3.5918,-3.6328,-3.6328,-3.6328,-3.625,-3.6035,-3.5996,-3.5996,-3.5996,-3.5996,-3.5996,-3.5996,-3.5996,-3.5996,-3.5996,-3.5996,-3.5996,-3.5996,-3.5996,-3.5996,-3.5996,-3.5996,-3.5566,-3.4707,-3.4473,-3.4473,-3.4668,-3.3809,-3.3887,-3.4648,-3.3789,-3.3281,-3.3047,-3.2441,-3.207,-3.1797,-3.1152,-3.0898,-3.0898,-3.0898,-3.0898,-3.0898,0.0,0.0,0.0,0.0,0.0,0.0,0.0,0.0,0.0,0.0,0.0,0.0,0.0,0.0,0.0,0.0,0.0,0.0,0.0,-2.8857,-2.928,-2.964,-3.0237,-3.0333,-2.9833,-2.9115,-2.9288,-3.0404,-2.9654,-2.9885,-3.0962,-3.0577,-3.0404,-3.0404,-3.0404,-3.0404,-3.0404,-3.0404,-3.0346,0.0,0.0,-2.9733,-2.979,-3.0007,-2.9604,-2.8997,-2.9522,-2.9608,-2.9414,-2.9316,-2.9922,-3.082,-3.1328,-3.2051,-3.2793,-3.3184,-3.3965,-3.4785,-3.5176,-3.5625,-3.5996,-3.5996,-3.5996,-3.5898,-3.5527,-3.5723,-3.5781,-3.5019,-3.4766,-3.457,-3.4199,-3.4434,-3.4824,-3.5215,-3.5996,-3.6562,-3.6562,-3.6562,-3.6426,-3.6055,-3.5996,-3.5996,-3.5996,-3.5996,-3.5996,-3.5996,-3.5996,-3.5996,-3.5996,-3.5996,-3.5996,-3.5996,-3.5996,-3.5996,-3.5996,-3.5996,-3.5742,-3.5273,-3.5273,-3.5273,-3.5254,-3.4766,-3.4805,-3.5234,-3.4746,-3.4316,-3.3945,-3.3476,-3.2851,-3.2148,-3.166,-3.123,-3.0898,-3.0898,-3.0898,-3.0898,0.0,0.0,0.0,0.0,0.0,0.0,0.0,0.0,0.0,-3.0885,-3.0615,-3.0442,0.0,0.0,0.0,0.0,0.0,0.0,0.0,0.0,-2.9429,-3.0192,-2.9602,-2.928,-2.928,-2.7736,-2.8005,-3.0231,-2.8659,-2.9025,-3.1179,-3.0423,-3.0077,-3.0077,-3.0077,-3.0077,-3.0077,-3.0077,-3.05,-3.1141,-3.0365,-3.0169,-3.0226,0.0,-2.8913,-2.8517,-2.8548,-2.9641,-3.1191,-3.207,-3.2441,-3.2559,-3.2676,-3.3184,-3.3887,-3.4648,-3.4863,-3.5039,-3.5781,-3.5996,-3.5996,-3.5996,-3.5996,-3.5801,-3.5039,-3.5371,-3.543,-3.4023,-3.4082,-3.418,-3.3516,-3.4023,-3.4766,-3.5527,-3.6484,-3.7129,-3.7129,-3.7129,-3.6855,-3.6094,-3.5996,-3.5996,-3.5996,-3.5996,-3.5996,-3.5996,-3.5996,-3.5996,-3.5996,-3.5996,-3.5996,-3.5996,-3.5996,-3.5996,-3.5996,-3.5996,-3.5996,-3.5996,-3.5996,-3.5996,-3.5996,-3.5996,-3.5996,-3.5996,-3.5996,-3.5566,-3.4844,-3.4629,-3.3672,-3.2344,-3.2109,-3.1562,-3.0898,-3.0898,-3.0898,-3.0898,0.0,0.0,0.0,0.0,0.0,0.0,0.0,0.0,0.0,0.0,-3.1718,-3.0673,0.0,0.0,0.0,0.0,0.0,0.0,0.0,0.0,0.0,-2.9319,-2.9871,-3.0173,-3.0173,-2.9179,-2.8876,-2.9338,-2.8376,-2.8126,-2.8563,-2.839,-2.8332,-2.8332,-2.8332,-2.8332,-2.8332,-2.8332,-2.8409,-2.8544,-2.839,-2.8733,-2.9324,-2.9244,0.0,0.0,-3.0361,-3.1093,-3.2109,-3.293,-3.3672,-3.4394,-3.5117,-3.5449,-3.5586,-3.5723,-3.5762,-3.5801,-3.5957,-3.5996,-3.5996,-3.5996,-3.5996,-3.5957,-3.5801,-3.5332,-3.5039,-3.5469,-3.3984,-3.2793,-3.3301,-3.3516,-3.3672,-3.3828,-3.5195,-3.623,-3.623,-3.623,-3.6172,-3.6016,-3.5996,-3.5996,-3.5996,-3.5996,-3.5996,-3.5996,-3.5996,-3.5996,-3.5996,-3.5996,-3.5996,-3.5996,-3.5996,-3.5996,-3.5996,-3.5996,-3.5996,-3.5996,-3.5996,-3.5996,-3.5996,-3.5996,-3.5996,-3.5996,-3.5996,-3.5918,-3.5664,-3.4219,-3.3457,-3.3047,-3.168,-3.1035,-3.0898,-3.0898,-3.0898,-3.0898,0.0,0.0,0.0,0.0,0.0,0.0,0.0,-3.3295,-3.3603,-3.5276,-3.4449,-3.35,-3.3045,-3.2218,-3.1872,0.0,0.0,0.0,0.0,0.0,0.0,0.0,0.0,0.0,-2.9737,-2.9319,-2.9107,-2.9107,0.0,-2.7895,-2.7895,-2.7448,-2.6986,-2.6544,-2.6544,-2.6544,-2.6544,-2.6544,-2.6813,-2.7255,-2.7722,-2.8376,-2.9151,0.0,0.0,0.0,-3.0833,-3.1738,-3.2812,-3.2793,-3.3926,-3.5449,-3.5879,-3.5996,-3.5996,-3.5996,-3.5996,-3.5996,-3.5996,-3.5996,-3.5996,-3.5996,-3.5996,-3.5762,-3.4844,-3.4668,-3.457,-3.4121,-3.3047,-3.2324,-3.2695,-3.2773,-3.291,-3.332,-3.4473,-3.5488,-3.5937,-3.5996,-3.5996,-3.5996,-3.5996,-3.5996,-3.5996,-3.5996,-3.5996,-3.5996,-3.5996,-3.5996,-3.5996,-3.5996,-3.5996,-3.5996,-3.5996,-3.5996,-3.5996,-3.5996,-3.5996,-3.5996,-3.5996,-3.5996,-3.5996,-3.5996,-3.5996,-3.5976,-3.5527,-3.5312,-3.5215,-3.3926,-3.3144,-3.2695,-3.1894,-3.1309,-3.0898,-3.0898,-3.0898,-3.0898,0.0,0.0,0.0,0.0,0.0,0.0,0.0,-3.518,-3.5468,-3.7519,-3.7642,-3.6949,-3.5456,-3.418,-3.3372,0.0,0.0,0.0,0.0,0.0,0.0,0.0,0.0,0.0,0.0,0.0,0.0,-2.9107,-2.8299,0.0,0.0,0.0,0.0,0.0,-2.5865,-2.5865,-2.5865,-2.5865,-2.6346,0.0,0.0,-2.8929,-2.9742,0.0,0.0,0.0,0.0,-3.2167,-3.3105,-3.2832,-3.3945,-3.5508,-3.5879,-3.5996,-3.5996,-3.5996,-3.5996,-3.5996,-3.5996,-3.5996,-3.5996,-3.5996,-3.5996,-3.5586,-3.4023,-3.4062,-3.4101,-3.2969,-3.2305,-3.2031,-3.2383,-3.2324,-3.2461,-3.3262,-3.4121,-3.5,-3.5879,-3.5996,-3.5996,-3.5996,-3.5996,-3.5996,-3.5996,-3.5996,-3.5996,-3.5996,-3.5996,-3.5996,-3.5996,-3.5996,-3.5996,-3.5996,-3.5996,-3.5996,-3.5996,-3.5996,-3.5996,-3.5996,-3.5996,-3.5996,-3.5996,-3.5996,-3.5996,-3.5957,-3.5078,-3.4707,-3.4629,-3.3574,-3.2773,-3.2187,-3.1992,-3.1504,-3.0898,-3.0898,-3.0898,-3.0898,0.0,0.0,0.0,0.0,0.0,0.0,0.0,-3.6519,-3.7635,-4.0904,-4.0642,-3.9804,-3.8938,-3.6699,-3.4949,0.0,0.0,0.0,0.0,0.0,0.0,0.0,0.0,0.0,0.0,0.0,0.0,-2.9107,-2.8299,0.0,0.0,0.0,0.0,0.0,0.0,-2.7659,-2.7659,-2.7659,0.0,0.0,0.0,0.0,0.0,0.0,0.0,0.0,0.0,-3.2744,-3.2539,-3.3984,-3.4101,-3.3926,-3.5508,-3.5996,-3.5996,-3.5996,-3.5996,-3.5996,-3.5996,-3.5996,-3.5996,-3.5996,-3.5996,-3.5742,-3.4805,-3.4023,-3.3691,-3.4336,-3.2637,-3.1484,-3.3008,-3.2695,-3.2461,-3.3262,-3.4121,-3.5,-3.5879,-3.5996,-3.5996,-3.5996,0.0,0.0,-3.5996,-3.5996,-3.5996,-3.5996,-3.5996,-3.5996,-3.5996,-3.5996,-3.5996,-3.5996,-3.5996,-3.5996,-3.5996,-3.5996,-3.5996,-3.5996,-3.5996,-3.5996,-3.5996,-3.5996,-3.5996,-3.5957,-3.5078,-3.4707,-3.457,-3.2969,-3.2266,-3.2129,-3.1328,-3.0976,-3.0898,-3.0898,-3.0898,-3.0898,0.0,0.0,0.0,0.0,0.0,0.0,-3.793,-3.7815,-3.8719,-4.2124,-4.2277,-4.1739,-4.0893,-3.9431,-3.7565,-3.5199,0.0,0.0,0.0,0.0,0.0,0.0,0.0,0.0,0.0,0.0,-3.0891,-3.1391,-3.1064,0.0,0.0,0.0,0.0,0.0,0.0,-2.7895,-2.7895,-2.7895,0.0,0.0,0.0,0.0,0.0,0.0,0.0,0.0,0.0,0.0,-3.373,-3.3867,-3.4375,-3.498,-3.5156,-3.5586,-3.5996,-3.5996,-3.5996,-3.5996,-3.5996,-3.5996,-3.5996,-3.5996,-3.5996,-3.5625,-3.4238,-3.3652,-3.3496,-3.3848,-3.2305,-3.1562,-3.3789,-3.2676,-3.2012,-3.3887,-3.4023,-3.4219,-3.5098,-3.5664,-3.5801,-3.5273,-3.5684,-3.5996,-3.5996,-3.5996,-3.5996,-3.5996,-3.5996,-3.5996,-3.5996,-3.5996,-3.5996,-3.5996,-3.5996,-3.5996,-3.5996,-3.5996,-3.5996,-3.5996,-3.5996,-3.5996,-3.5996,-3.5996,-3.5996,-3.5957,-3.5078,-3.4394,-3.3828,-3.2676,-3.1894,-3.1387,-3.1035,-3.0898,-3.0898,-3.0898,-3.0898,-3.0898,0.0,0.0,0.0,0.0,0.0,-3.6365,-3.8911,-3.8969,-3.9873,-4.3047,-4.3451,-4.3124,-4.2277,-4.095,-3.9181,-3.6834,-3.5923,0.0,0.0,0.0,0.0,0.0,0.0,0.0,0.0,0.0,-3.2333,-3.2891,-3.2891,-3.2295,0.0,0.0,-3.039,-2.9025,0.0,0.0,0.0,0.0,0.0,0.0,0.0,0.0,0.0,0.0,0.0,0.0,0.0,0.0,0.0,0.0,0.0,-3.5547,-3.5195,-3.5508,-3.6055,-3.6309,-3.6191,-3.6055,-3.6309,-3.6191,-3.5996,-3.5996,-3.5996,-3.5605,-3.4121,-3.3594,-3.3398,-3.3398,-3.207,-3.1523,-3.3574,-3.2285,-3.1641,-3.3945,-3.3594,-3.3516,-3.4883,-3.5391,-3.5391,-3.4766,-3.5469,-3.5898,-3.5644,-3.5859,-3.5996,-3.5996,-3.5996,-3.5996,-3.5996,-3.5996,-3.5996,-3.5996,-3.5996,-3.5996,-3.5996,-3.5996,-3.5996,-3.5996,-3.5996,-3.5996,-3.5996,-3.5996,-3.5996,-3.5937,-3.4805,-3.3965,-3.332,-3.2246,-3.1445,-3.0898,-3.0898,-3.0898,-3.0898,-3.0898,-3.0898,-3.0898,0.0,0.0,0.0,0.0,0.0,0.0,-3.8911,-3.9977,-4.1401,-4.3951,-4.4297,-4.397,-4.3162,-4.0835,-3.9304,-3.9265,-3.6969,0.0,0.0,0.0,0.0,0.0,0.0,0.0,0.0,0.0,-3.2891,-3.2891,-3.2891,-3.2891,-3.2872,-3.2872,-3.2449,-3.166,0.0,0.0,0.0,0.0,0.0,0.0,0.0,0.0,0.0,0.0,0.0,0.0,0.0,0.0,0.0,0.0,0.0,0.0,0.0,-3.5996,-3.6172,-3.7031,-3.668,-3.6191,-3.7051,-3.666,-3.5996,-3.5996,-3.5996,-3.5762,-3.4883,-3.4023,-3.3398,-3.3398,-3.207,-3.1172,-3.2051,-3.1504,-3.1445,-3.3144,-3.2734,-3.3105,-3.5625,-3.5254,-3.4707,-3.4707,-3.5469,-3.5664,-3.4805,-3.5488,-3.5996,-3.5996,-3.5996,-3.5996,-3.5996,-3.5996,-3.5996,-3.5996,-3.5996,-3.5996,-3.5996,-3.5996,-3.5996,-3.5996,-3.5996,-3.5996,-3.5996,-3.5996,-3.5996,-3.5898,-3.418,-3.3418,-3.3262,-3.1601,-3.0918,-3.0898,-3.0898,-3.0898,-3.0898,-3.0898,-3.0898,-3.0898,0.0,0.0,0.0,0.0,0.0,0.0,0.0,-3.8238,-3.9488,-4.1458,-4.222,-4.2489,-4.2239,-4.095,-3.99,-3.9361,-3.6969,0.0,0.0,0.0,0.0,0.0,0.0,0.0,0.0,-3.3801,-3.4353,-3.5507,-3.5507,-3.5212,-3.4673,-3.4673,-3.391,-3.2506,-3.1948,-3.1545,0.0,0.0,0.0,0.0,0.0,0.0,0.0,0.0,0.0,0.0,0.0,0.0,0.0,0.0,0.0,0.0,0.0,0.0,0.0,-3.7031,-3.7109,-3.6816,-3.6504,-3.6641,-3.6758,-3.6152,-3.5996,-3.5762,-3.4902,-3.4023,-3.3398,-3.3398,-3.207,-3.1328,-3.2754,-3.1855,-3.1836,-3.4707,-3.3965,-3.3711,-3.5723,-3.5762,-3.5371,-3.4766,-3.5469,-3.5898,-3.5625,-3.584,-3.5996,-3.5996,-3.5996,-3.5996,-3.5996,-3.5996,-3.5996,-3.5996,-3.5996,-3.5996,-3.5996,-3.5996,-3.5703,-3.5117,-3.5723,-3.5684,-3.5137,-3.5723,-3.5996,-3.5937,-3.4785,-3.3945,-3.332,-3.2226,-3.1445,-3.0898,-3.0898,-3.0898,-3.0898,-3.0898,-3.0898,-3.0898,0.0,0.0,0.0,0.0,0.0,0.0,0.0,-3.745,-3.8488,-3.9881,-4.0777,-4.1316,-4.1316,-4.0546,-3.9977,-3.9765,-3.7719,0.0,0.0,0.0,0.0,0.0,0.0,0.0,-3.468,-3.468,-3.5507,-3.7199,-3.7199,-3.7103,-3.693,-3.693,-3.5834,-3.3872,-3.3372,-3.2602,0.0,0.0,0.0,0.0,0.0,0.0,-3.55,0.0,0.0,0.0,0.0,0.0,0.0,0.0,0.0,0.0,0.0,0.0,0.0,0.0,-3.7031,-3.7187,-3.6641,-3.6641,-3.668,-3.6133,-3.5996,-3.5762,-3.4902,-3.4023,-3.3301,-3.3008,-3.1855,-3.1211,-3.2266,-3.1601,-3.1699,-3.418,-3.3379,-3.3164,-3.5215,-3.5234,-3.5059,-3.5176,-3.5371,-3.5644,-3.5976,-3.5996,-3.5996,-3.5996,-3.5996,-3.5996,-3.5996,-3.5684,-3.5508,-3.5508,-3.5508,-3.5351,-3.5019,-3.5019,-3.4746,-3.4219,-3.4766,-3.4902,-3.4726,-3.5254,-3.5684,-3.5937,-3.4726,-3.3906,0.0,-3.2187,-3.1387,-3.0898,-3.0898,-3.0898,-3.0898,-3.0898,-3.0898,-3.0898,0.0,0.0,0.0,0.0,0.0,0.0,0.0,-3.7392,-3.8219,-3.9092,-3.9919,-4.0419,-4.0419,-3.9804,-3.9669,-4.0342,0.0,0.0,0.0,0.0,0.0,0.0,0.0,0.0,-3.55,-3.55,-3.6327,-3.8007,-3.8007,-3.845,-3.9304,-3.9304,-3.7969,-3.5577,-3.5538,-3.4115,0.0,0.0,0.0,0.0,-3.4827,-3.55,0.0,0.0,0.0,0.0,0.0,0.0,0.0,0.0,0.0,0.0,0.0,0.0,0.0,0.0,0.0,0.0,0.0,-3.666,-3.6074,-3.6016,-3.5996,-3.5762,-3.4902,-3.4023,0.0,-3.2363,-3.1504,-3.0918,-3.0976,-3.0937,-3.1211,-3.2226,-3.1601,-3.1875,-3.4434,-3.4101,-3.4199,-3.5801,-3.5293,-3.5117,-3.5918,-3.5996,-3.5996,-3.5996,-3.5996,-3.5976,-3.5918,-3.5137,-3.4648,-3.4531,-3.4512,-3.416,-3.3418,-3.3398,-3.3379,-3.332,-3.3379,-3.3789,-3.4531,-3.4648,-3.5117,-3.5723,-3.4101,-3.3379,-3.3184,-3.1562,-3.0898,-3.0898,-3.0898,-3.0898,-3.0898,-3.0898,-3.0898,-3.0898,0.0,0.0,0.0,0.0,0.0,0.0,0.0,0.0,0.0,0.0,-3.9046,-3.9573,-3.9573,-3.9958,-4.0054,0.0,0.0,0.0,0.0,0.0,0.0,0.0,0.0,0.0,-3.55,-3.55,-3.6327,-3.8007,-3.8007,-3.845,-3.9304,-3.9304,-3.8277,-3.6385,-3.5769,-3.4423,0.0,0.0,0.0,0.0,-3.5058,-3.55,0.0,0.0,0.0,0.0,-3.5528,-3.5574,0.0,0.0,0.0,0.0,0.0,0.0,0.0,0.0,-3.6152,-3.6309,-3.6309,0.0,-3.6836,-3.6172,-3.5996,-3.5762,0.0,-3.4023,-3.3164,-3.2363,-3.1504,-3.1094,-3.1777,-3.1348,-3.1601,-3.3769,-3.2851,-3.2773,-3.5332,-3.5527,-3.5547,-3.5957,-3.582,-3.5762,-3.5976,-3.5996,-3.5996,-3.5996,-3.5996,-3.5703,-3.5039,-3.4805,-3.4101,-3.2832,-3.2793,-3.2988,-3.3398,-3.3398,-3.3086,-3.248,-3.3105,-3.3184,-3.2832,-3.4121,-3.4453,-3.3984,-3.3574,-3.3047,-3.2402,-3.1348,-3.0898,-3.0898,-3.0898,-3.0898,-3.0898,-3.0898,-3.0898,-3.0898,0.0,0.0,0.0,0.0,0.0,0.0,0.0,0.0,0.0,0.0,0.0,-3.8411,-3.7642,0.0,0.0,0.0,0.0,0.0,0.0,0.0,0.0,0.0,0.0,-3.55,-3.55,-3.55,-3.6519,-3.8604,-3.8604,-3.9219,-4.045,-4.045,-3.9315,-3.7238,-3.5622,-3.4372,0.0,0.0,0.0,0.0,-3.5545,0.0,0.0,0.0,0.0,0.0,-3.55,-3.5568,0.0,-3.5689,-3.5817,-3.5949,0.0,0.0,0.0,0.0,-3.5996,-3.5996,-3.5996,-3.6348,-3.6582,-3.6113,-3.5703,-3.5176,-3.4297,-3.3457,-3.2617,-3.1777,-3.123,-3.1035,-3.1523,-3.1543,-3.1953,-3.332,-3.3105,-3.3379,-3.5156,-3.5742,-3.5996,-3.5996,-3.5996,-3.5996,-3.5996,-3.5996,-3.5996,-3.5996,-3.5996,-3.5625,-3.4746,-3.4316,-3.3516,-3.2246,-3.1816,-3.1816,-3.2246,-3.2246,-3.2031,-3.1601,-3.2031,-3.2226,-3.2226,-3.3144,-3.3496,-3.3379,-3.3008,-3.2598,-3.2129,-3.1269,-3.0898,-3.0898,-3.0898,-3.0898,-3.0898,-3.0898,-3.0898,-3.0898,0.0,0.0,0.0,0.0,0.0,0.0,0.0,0.0,0.0,0.0,0.0,0.0,0.0,0.0,0.0,0.0,0.0,0.0,0.0,0.0,0.0,0.0,-3.6,-3.5558,-3.5673,-3.5558,-3.668,-3.9111,-3.9227,-4.0085,-4.1604,-4.1731,-4.045,-3.7892,-3.5603,-3.4513,-3.4449,0.0,0.0,0.0,-3.5949,0.0,0.0,0.0,0.0,0.0,0.0,0.0,0.0,-3.5544,-3.5734,-3.5937,-3.5683,0.0,0.0,0.0,0.0,0.0,-3.6133,-3.6191,-3.6172,-3.6035,-3.5332,-3.4473,-3.3594,-3.2773,-3.1953,-3.1074,-3.0898,-3.0976,-3.123,-3.1777,-3.2285,-3.2539,-3.3144,-3.3867,-3.4609,-3.5449,-3.5996,-3.5996,-3.5996,-3.5996,-3.5996,-3.5996,-3.5996,-3.5996,-3.5879,-3.543,-3.4551,-3.3672,-3.2832,-3.2031,-3.1289,-3.0898,-3.0898,-3.0898,-3.0898,-3.0898,-3.0898,-3.1289,-3.2012,-3.2148,-3.25,-3.2988,-3.2441,-3.2129,-3.1934,-3.1191,-3.0898,-3.0898,-3.0898,-3.0898,-3.0898,-3.0898,-3.0898,-3.0898,0.0,0.0,0.0,0.0,0.0,0.0,0.0,0.0,0.0,0.0,0.0,0.0,0.0,0.0,0.0,0.0,0.0,0.0,0.0,0.0,0.0,-3.7834,-3.6327,-3.5827,-3.65,-3.5846,-3.6385,-3.82,-3.8938,-3.9785,-4.0727,-4.145,-4.045,-3.795,-3.6815,-3.5942,-3.5308,-3.5442,0.0,-3.5327,-3.5577,0.0,0.0,0.0,0.0,0.0,0.0,0.0,0.0,-3.4893,-3.5237,-3.5663,-3.4256,0.0,0.0,0.0,0.0,0.0,-3.6699,-3.7109,-3.6914,-3.6172,-3.5332,-3.4473,-3.3594,-3.2773,-3.1953,-3.1074,-3.0898,-3.1328,-3.2754,-3.2578,-3.2656,-3.4082,-3.4414,-3.4551,-3.4687,-3.5449,-3.5996,-3.5996,-3.5996,-3.5996,-3.5996,-3.5996,-3.5996,-3.5996,-3.5312,-3.4512,-3.3652,-3.2832,-3.1992,-3.1133,-3.0976,-3.0898,-3.0898,-3.0898,-3.0898,-3.0898,-3.0898,-3.0976,-3.1113,-3.1855,-3.1855,-3.1328,-3.1934,-3.1777,-3.1094,-3.0957,-3.0898,-3.0898,-3.0898,-3.0898,-3.0898,-3.0898,-3.0898,-3.0898,0.0,0.0,0.0,0.0,0.0,0.0,0.0,0.0,0.0,0.0,0.0,0.0,0.0,0.0,0.0,0.0,0.0,0.0,0.0,0.0,0.0,-3.9361,-3.7757,-3.6788,-3.6692,-3.6788,-3.768,-3.9361,-4.0219,-4.1085,-4.1873,-4.0912,-3.9565,-3.795,-3.6635,-3.5846,-3.55,-3.55,-3.55,-3.55,0.0,0.0,0.0,0.0,0.0,0.0,0.0,0.0,0.0,0.0,-3.4803,-3.4997,-3.3788,0.0,0.0,0.0,0.0,0.0,-3.4961,-3.5547,-3.5918,-3.5976,-3.6055,-3.5879,-3.5,-3.4141,-3.3301,-3.2422,-3.2246,-3.248,-3.3262,-3.3476,-3.3965,-3.5195,-3.5391,-3.5391,-3.5391,-3.5742,-3.5996,-3.5996,-3.5996,-3.5996,-3.5996,-3.5996,-3.5801,-3.5332,-3.4922,-3.4121,-3.2812,-3.2402,-3.1797,-3.0937,-3.0898,-3.0898,-3.0898,-3.0898,-3.0898,-3.0898,-3.0898,-3.0898,-3.0918,-3.1309,-3.1289,-3.0918,-3.1328,-3.1269,-3.0898,-3.0898,-3.0898,-3.0898,-3.0898,-3.0898,-3.0898,-3.0898,-3.0898,-3.0898,0.0,0.0,0.0,0.0,0.0,0.0,0.0,0.0,0.0,0.0,0.0,0.0,0.0,0.0,0.0,0.0,0.0,0.0,0.0,0.0,-3.9573,-4.0189,-3.9161,-3.8373,-3.7904,-3.8161,-3.9123,-4.0804,-4.1681,-4.2547,-4.3335,-4.0969,-3.9315,-3.8238,-3.6538,-3.5673,-3.55,-3.55,-3.55,-3.55,0.0,0.0,0.0,0.0,0.0,0.0,0.0,0.0,0.0,0.0,0.0,0.0,0.0,0.0,0.0,-3.3301,-3.3125,-3.3203,-3.3594,-3.4199,-3.4902,-3.5781,-3.6191,-3.6328,-3.6055,-3.5019,-3.3984,-3.3496,-3.3398,-3.3457,-3.3672,-3.4414,-3.5215,-3.5898,-3.5996,-3.5996,-3.5996,-3.5996,-3.5996,-3.5996,-3.5996,-3.5996,-3.5996,-3.582,-3.543,-3.4746,-3.4336,-3.3555,-3.2266,-3.2012,-3.1582,-3.0918,-3.0898,-3.0898,-3.0898,-3.0898,-3.0898,-3.0898,-3.0898,-3.0898,-3.0898,-3.0898,-3.0898,-3.0898,-3.0898,-3.0898,-3.0898,-3.0898,-3.0898,-3.0898,-3.0898,-3.0898,-3.0898,-3.0898,-3.0898,-3.0898,0.0,0.0,0.0,0.0,0.0,0.0,0.0,0.0,0.0,0.0,0.0,0.0,0.0,0.0,0.0,0.0,0.0,0.0,0.0,0.0,-3.9323,-3.9381,-3.9996,-4.0662,-4.1423,-3.9969,-4.0027,-4.172,-4.2585,-4.3412,-4.4182,-4.2431,-4.0758,-3.913,-3.7392,-3.6192,-3.55,-3.55,-3.55,-3.55,-3.55,0.0,0.0,0.0,0.0,0.0,0.0,0.0,0.0,0.0,0.0,0.0,0.0,0.0,-3.2363,-3.2305,-3.2285,-3.2637,-3.418,-3.4648,-3.4902,-3.5781,-3.4824,-3.4082,-3.5644,-3.4121,-3.2578,-3.3262,-3.3398,-3.3652,-3.4453,-3.5312,-3.5937,-3.5996,-3.5996,-3.5996,-3.5996,-3.5996,-3.5996,-3.5996,-3.5996,-3.5996,-3.5996,-3.5273,-3.4766,-3.4707,-3.3262,-3.2324,-3.2207,-3.1426,-3.0957,-3.0898,-3.0898,-3.0898,-3.0898,-3.0898,-3.0898,-3.0898,-3.0898,-3.0898,-3.0898,-3.0898,-3.0898,-3.0898,-3.0898,-3.0898,-3.0898,-3.0898,-3.0898,-3.0898,-3.0898,-3.0898,-3.0898,-3.0898,-3.0898,-3.0898,0.0,0.0,0.0,0.0,0.0,0.0,0.0,0.0,0.0,0.0,0.0,0.0,0.0,0.0,0.0,0.0,0.0,0.0,0.0,-3.8996,-3.9758,-4.0816,-4.0631,-4.0912,-4.1769,-4.172,-4.222,-4.3355,-4.422,-4.4278,-4.3528,-4.1797,-4.0104,-3.8411,-3.6712,-3.5788,-3.55,-3.55,-3.5528,-3.5562,-3.5562,-3.5579,0.0,0.0,0.0,0.0,0.0,0.0,0.0,0.0,-3.2515,-3.2395,-3.1621,-3.1758,-3.209,-3.1543,-3.1387,-3.1523,-3.2168,-3.3496,-3.4648,-3.4434,-3.4297,-3.4668,-3.6406,-3.6055,-3.5605,-3.6465,-3.5762,-3.5117,-3.5449,-3.5781,-3.5996,-3.5996,-3.5996,-3.5996,-3.5996,-3.5996,-3.5996,-3.5996,-3.5996,-3.5996,-3.5996,-3.5215,-3.4473,-3.3926,-3.2832,-3.1953,-3.1426,-3.1074,-3.0898,-3.0898,-3.0898,-3.0898,-3.0898,-3.0898,-3.0898,-3.0898,-3.0898,-3.0898,-3.0898,-3.0898,-3.0898,-3.0898,-3.0898,-3.0898,-3.0898,-3.0898,-3.0898,-3.0898,-3.0898,-3.0898,-3.0898,-3.0898,-3.0898,-3.0898,0.0,0.0,0.0,0.0,0.0,0.0,0.0,0.0,0.0,0.0,0.0,0.0,0.0,0.0,0.0,0.0,0.0,0.0,-3.7988,-3.8296,-3.9104,-4.0546,-4.0296,-4.0516,-4.1373,-4.2508,-4.3374,-4.3912,-4.5056,-4.4748,-4.3066,-4.1604,-4.0142,-3.87,-3.675,-3.6034,-3.6299,-3.5759,-3.5566,-3.5635,-3.5635,-3.5663,0.0,0.0,0.0,0.0,0.0,0.0,0.0,0.0,-3.1879,-3.1611,-3.1386,-3.1523,-3.168,-3.1074,-3.1269,-3.1699,-3.1699,-3.2969,-3.4277,-3.4238,-3.4453,-3.5156,-3.6894,-3.666,-3.6465,-3.7891,-3.7012,-3.5996,-3.5996,-3.5996,-3.5996,-3.5996,-3.5996,-3.5996,-3.5996,-3.5996,-3.5996,-3.5996,-3.5996,-3.5996,-3.5996,-3.4961,-3.4043,-3.3437,-3.2402,-3.1523,-3.0937,-3.0898,-3.0898,-3.0898,-3.0898,-3.0898,-3.0898,-3.0898,-3.0898,-3.0898,-3.0898,-3.0898,-3.0898,-3.0898,-3.0898,-3.0898,-3.0898,-3.0898,-3.0898,-3.0898,-3.0898,-3.0898,-3.0898,-3.0898,-3.0898,-3.0898,-3.0898,-3.0898,0.0,0.0,0.0,0.0,0.0,0.0,0.0,0.0,0.0,0.0,0.0,0.0,0.0,0.0,0.0,0.0,0.0,0.0,-3.795,-3.718,-3.7084,-3.7969,-3.8834,-3.9669,-4.0477,-4.2181,-4.3085,-4.3104,-4.4767,-4.4729,-4.3066,-4.22,-4.1316,-4.0362,-3.7834,-3.7218,-3.7962,-3.6302,-3.5648,-3.5707,-3.5707,-3.5707,-3.5717,0.0,0.0,0.0,0.0,0.0,0.0,0.0,-3.1601,-3.1055,-3.1914,-3.1601,-3.0918,-3.0898,-3.209,-3.3398,-3.3379,-3.3398,-3.3848,-3.5547,-3.5351,-3.5195,-3.6914,-3.5293,-3.418,-3.6758,-3.6601,-3.6016,-3.5996,-3.5996,-3.5996,-3.5996,-3.5996,-3.5996,-3.5996,-3.5996,-3.5996,-3.5996,-3.5996,-3.5996,-3.5996,-3.4414,-3.3398,-3.3398,-3.1855,-3.0898,-3.0898,-3.0898,-3.0898,-3.0898,-3.0898,-3.0898,-3.0898,-3.0898,-3.0898,-3.0898,-3.0898,-3.0898,-3.0898,-3.0898,-3.0898,-3.0898,-3.0898,-3.0898,-3.0898,-3.0898,-3.0898,-3.0898,-3.0898,-3.0898,-3.0898,-3.0898,-3.0898,-3.0898,0.0,0.0,0.0,0.0,0.0,0.0,0.0,0.0,0.0,0.0,0.0,0.0,0.0,0.0,0.0,0.0,0.0,0.0,-3.795,-3.718,-3.7353,-3.8854,-3.9169,-3.9419,-3.965,-4.0727,-4.2143,-4.3932,-4.3874,-4.3278,-4.2162,-4.07,-3.9585,-3.8688,-3.7405,-3.6651,-3.6308,-3.586,-3.5736,-3.5841,-3.5841,-3.5862,-3.5926,0.0,0.0,0.0,0.0,0.0,0.0,0.0,0.0,0.0,-3.1191,-3.1914,-3.2422,-3.125,-3.209,-3.3144,-3.1953,-3.3398,-3.5059,-3.4355,-3.582,-3.7578,-3.8105,-3.7148,-3.6191,-3.6348,-3.668,-3.6738,-3.6113,-3.5996,-3.5996,-3.5996,-3.5996,-3.5996,-3.5996,-3.5996,-3.5996,-3.5996,-3.5996,-3.5996,-3.5996,-3.4414,-3.3398,-3.3398,-3.1855,-3.0898,-3.0898,-3.0898,-3.0898,-3.0898,-3.0898,-3.0898,-3.0898,-3.0898,-3.0898,-3.0898,-3.0898,-3.0898,-3.0898,-3.0898,-3.0898,-3.0898,-3.0898,-3.0898,-3.0898,-3.0898,-3.0898,-3.0898,-3.0898,-3.0898,-3.0898,-3.0898,-3.0898,-3.0898,0.0,0.0,0.0,0.0,0.0,0.0,0.0,0.0,0.0,0.0,-4.3605,-4.2777,0.0,0.0,0.0,-3.9785,-3.8219,-3.745,-3.7969,-3.6885,-3.6827,-3.82,-3.8277,-3.8738,-3.9746,-4.0939,-4.2124,-4.3316,-4.2816,-4.2143,-4.1277,-4.0604,-3.986,-3.907,-3.8959,-3.8108,-3.6701,-3.6767,-3.6259,-3.5475,-3.6179,-3.6265,-3.6035,0.0,0.0,0.0,0.0,0.0,0.0,0.0,0.0,0.0,-3.0898,-3.1582,-3.2344,-3.1992,-3.3105,-3.4355,-3.4043,-3.5469,-3.6953,-3.6582,-3.7559,-3.8691,-3.9043,-3.8437,-3.7578,-3.6699,-3.666,-3.6621,-3.6094,-3.5996,-3.5996,-3.5996,-3.5996,-3.5996,-3.5996,-3.5996,-3.5996,-3.5996,-3.5996,-3.5996,-3.5996,-3.4414,-3.3398,-3.3398,-3.1855,-3.0898,-3.0898,-3.0898,-3.0898,-3.0898,-3.0857,-3.0816,-3.0816,-3.0788,-3.0782,-3.0782,-3.0812,-3.0816,-3.0816,-3.0878,-3.0898,-3.0898,-3.0898,-3.0898,-3.0898,-3.0898,-3.0898,-3.0898,-3.0898,-3.0898,-3.0898,-3.0898,-3.0898,-3.0898,0.0,0.0,0.0,0.0,0.0,0.0,0.0,0.0,0.0,-4.4085,-4.3508,-4.2739,0.0,0.0,0.0,-4.0496,-3.9046,-3.8123,-3.8123,-3.6615,-3.6096,-3.6904,-3.7077,-3.8296,-4.0689,-4.22,-4.2547,-4.1673,-4.1623,-4.12,-4.0516,-4.1239,-4.1268,-4.0723,-4.1443,-4.0483,-3.8272,-3.8131,-3.6728,-3.4726,-3.6309,-3.6465,-3.5859,-3.6641,0.0,0.0,0.0,0.0,0.0,0.0,0.0,0.0,-3.0898,-3.0996,-3.1406,-3.2773,-3.4512,-3.6309,-3.7734,-3.8359,-3.8984,-4.0566,-3.9883,-3.9043,-3.9844,-3.9336,-3.8476,-3.7598,-3.6738,-3.6113,-3.6113,-3.6055,-3.5996,-3.5996,-3.5996,-3.5996,-3.5996,-3.5996,-3.5996,-3.5996,-3.5996,-3.5996,-3.5996,-3.4414,-3.3398,-3.3398,-3.1855,-3.0898,-3.0898,-3.0898,-3.0898,-3.0898,-3.077,-3.0695,-3.0695,-3.0621,-3.0603,-3.0606,-3.0667,-3.0689,-3.069,-3.0837,-3.0898,-3.0898,-3.0898,-3.0898,-3.0898,-3.0898,-3.0898,-3.0898,-3.0898,-3.0898,-3.0898,-3.0898,-3.0898,-3.0898,0.0,0.0,0.0,0.0,0.0,0.0,0.0,0.0,-4.3835,-4.2508,-4.2777,-4.2508,-4.0958,-4.0612,0.0,-4.0496,-3.9592,-3.9015,-3.9015,-3.8046,-3.7834,-3.87,-4.0008,-4.1277,-4.2508,-4.2239,-4.1643,-4.0785,-4.0142,-4.0054,-4.0496,-4.0054,-4.0144,-4.0674,-4.0243,-3.9084,-3.7367,-3.6048,-3.4784,-3.3711,-3.4082,-3.4121,-3.3984,-3.418,-3.3496,0.0,0.0,0.0,0.0,0.0,0.0,0.0,-3.0898,-3.1797,-3.2676,-3.1719,-3.3594,-3.5781,-3.4785,-3.6523,-3.8691,-3.9062,-3.9902,-4.0684,-4.0879,-4.0254,-3.9375,-3.8496,-3.7637,-3.7012,-3.7012,-3.6465,-3.5996,-3.5996,-3.5996,-3.5996,-3.5996,-3.5996,-3.5996,-3.5996,-3.5996,-3.5996,-3.5996,-3.4414,-3.3398,-3.3398,-3.1855,-3.0898,-3.0898,-3.0898,-3.0898,-3.0898,-3.077,-3.0695,-3.0695,-3.0621,-3.0603,-3.0603,-3.06,-3.0628,-3.0633,-3.0811,-3.0898,-3.0898,-3.0898,-3.0898,-3.0898,-3.0898,-3.0898,-3.0898,-3.0898,-3.0898,-3.0898,-3.0898,-3.0898,-3.0898,0.0,0.0,0.0,0.0,0.0,0.0,0.0,0.0,-4.3855,-4.2585,-4.2816,-4.2431,-4.0689,-4.0169,0.0,0.0,-3.9169,-3.8854,-3.9265,-3.8469,-3.8392,-3.9265,-4.0912,-4.1816,-4.1854,-4.1816,-4.1181,-3.9938,-3.9092,-3.9111,-3.99,-3.9101,-3.9236,-4.0155,-3.9781,-3.8259,-3.5968,-3.5527,-3.4355,-3.2891,-3.3691,-3.3769,-3.3457,-3.3867,-3.3262,-3.2246,-3.2676,0.0,0.0,0.0,0.0,0.0,0.0,0.0,-3.2187,-3.2129,-3.3359,-3.4922,-3.5684,-3.7226,-3.8809,-3.9648,-4.0527,-4.1191,-4.1191,-4.0859,-4.0391,-3.9941,-3.8496,-3.7305,-3.7305,-3.6582,-3.5996,-3.5996,-3.5996,-3.5996,-3.5996,-3.5996,-3.5996,-3.5996,-3.5996,-3.5996,-3.5996,-3.4414,-3.3398,-3.3398,-3.1855,-3.0898,-3.0898,-3.0837,-3.0794,-3.0794,-3.0663,-3.0595,-3.0595,-3.0541,-3.0503,-3.0503,-3.0537,-3.0565,-3.0609,-3.0737,-3.0837,-3.0898,-3.0898,-3.0898,-3.0898,-3.0898,-3.0898,-3.0898,-3.0898,-3.0898,-3.0898,-3.0898,-3.0898,-3.0898,0.0,0.0,0.0,0.0,0.0,0.0,0.0,0.0,0.0,-4.2777,-4.2912,-4.2374,-4.0496,-3.9708,-3.9246,0.0,0.0,0.0,-3.9246,-3.8738,-3.8815,-3.9681,-4.1066,-4.1527,-4.0958,-4.1354,-4.0835,-3.9304,-3.8294,-3.8173,-3.8866,-3.8349,-3.8632,-3.9613,-3.936,-3.7635,-3.4922,-3.5059,-3.3906,-3.207,-3.3164,-3.3242,-3.2812,-3.3555,-3.2969,-3.1797,-3.209,-3.1641,-3.0918,-3.1074,0.0,0.0,0.0,0.0,-3.1172,-3.2559,-3.3164,-3.4004,-3.6758,-3.793,-3.8828,-4.0723,-4.1191,-4.1191,-4.1191,-4.1191,-4.1191,-4.1191,-3.9355,-3.7695,-3.7559,-3.6816,-3.6172,-3.6016,-3.5996,-3.5996,-3.5996,-3.5996,-3.5996,-3.5996,-3.5996,-3.5996,-3.5996,-3.4414,-3.3398,-3.3398,-3.1855,-3.0898,-3.0898,-3.077,-3.0695,-3.0695,-3.0571,-3.0498,-3.0498,-3.0425,-3.0404,-3.0404,-3.0452,-3.0528,-3.0587,-3.0639,-3.0743,-3.0878,-3.0898,-3.0898,-3.0898,-3.0898,-3.0898,-3.0898,-3.0898,-3.0898,-3.0898,-3.0898,-3.0898,-3.0898,0.0,0.0,0.0,0.0,0.0,0.0,0.0,0.0,0.0,0.0,-4.2162,-4.2162,-3.9727,-3.9361,-3.8996,-3.8238,-3.8757,-3.9188,-3.9284,0.0,0.0,-4.1431,-4.1673,-4.2104,-4.2739,-4.1393,-4.0227,-3.9304,-3.779,-3.7108,-3.7224,-3.7821,-3.8659,-3.9616,-3.8112,-3.6834,-3.5644,-3.2793,-3.1387,-3.0957,-2.9668,-2.9531,-3.0117,-3.0234,-3.0137,-3.0156,-3.166,-3.1641,-3.1016,-3.1777,-3.1523,0.0,0.0,0.0,-3.0937,-3.1172,-3.2266,-3.3359,-3.3125,-3.5215,-3.8066,-4.0586,-4.1191,-4.1191,-4.1191,-4.1191,-4.1191,-4.1191,-4.0312,-3.9316,-3.8574,-3.7715,-3.6875,-3.6113,-3.5996,-3.5996,-3.5996,-3.5996,-3.5996,-3.5996,-3.5996,-3.5996,-3.5996,-3.4414,-3.3398,-3.3398,-3.1855,-3.0898,-3.0898,-3.077,-3.0695,-3.0695,-3.0571,-3.0498,-3.0498,-3.0425,-3.0404,-3.0404,-3.0408,-3.0456,-3.0528,-3.0584,-3.0657,-3.0723,-3.0857,-3.0898,-3.0898,-3.0898,-3.0898,-3.0898,-3.0898,-3.0898,-3.0898,-3.0898,-3.0898,-3.0898,0.0,0.0,0.0,0.0,0.0,0.0,0.0,0.0,0.0,0.0,0.0,-4.1585,-3.9515,-3.8854,-3.8411,-3.8027,-3.7892,-3.8046,-3.8546,-3.8892,-3.9488,-4.0354,-4.0392,-4.0585,-4.095,-4.0227,-3.9213,-3.7964,-3.6762,-3.6236,-3.6336,-3.6193,-3.6896,-3.8142,-3.5998,-3.4859,-3.4355,-3.1426,-3.0176,-3.0059,-2.8809,-2.9687,-3.1523,-2.9609,-3.0059,-3.1582,-3.043,-2.9766,-2.9492,-2.9883,-2.9766,-2.9434,-2.9434,0.0,0.0,0.0,-2.9961,-3.0996,-3.3047,-3.5762,-3.8535,-4.0664,-4.1191,-4.1191,-4.1191,-4.1191,-4.1191,-4.1191,-4.0898,-4.0351,-3.9492,-3.8223,-3.7168,-3.6797,-3.6328,-3.5996,-3.5996,-3.5996,-3.5996,-3.5996,-3.5996,-3.5996,-3.5996,-3.4863,-3.3926,-3.3437,-3.2305,-3.1426,-3.0937,-3.0734,-3.0633,-3.0633,-3.0501,-3.0446,-3.0446,-3.0419,-3.0404,-3.0404,-3.0404,-3.0419,-3.0451,-3.0501,-3.0609,-3.0717,-3.0838,-3.0898,-3.0898,-3.0898,-3.0898,-3.0898,-3.0898,-3.0898,-3.0898,-3.0898,-3.0898,-3.0898,0.0,0.0,0.0,0.0,0.0,0.0,0.0,0.0,0.0,0.0,0.0,-4.1085,-3.9181,0.0,0.0,0.0,-3.6962,-3.7065,-3.795,-3.8007,-3.8296,-3.8931,-3.8977,-3.8977,-3.8977,-3.857,-3.7765,-3.6568,-3.5539,-3.5203,-3.557,-3.4916,-3.5408,-3.6714,-3.4412,-3.3398,-3.3223,-3.0449,-2.9531,-2.9863,-2.9219,-3.0625,-3.2891,-3.0976,-3.1836,-3.3633,-3.0449,-2.9297,-2.9199,-2.8516,-2.8301,-2.8301,-2.8301,-2.8301,0.0,0.0,0.0,-2.8867,-3.2949,-3.5488,-3.7559,-3.9941,-4.0703,-4.0937,-4.1152,-4.1191,-4.1191,-4.1191,-4.1191,-4.0996,-4.0351,-3.8809,-3.7559,-3.7344,-3.6562,-3.5996,-3.5996,-3.5996,-3.5996,-3.5996,-3.5996,-3.5996,-3.5996,-3.5215,-3.4336,-3.3476,-3.2656,-3.1816,-3.0957,-3.0714,-3.0603,-3.0603,-3.0477,-3.0404,-3.0404,-3.0404,-3.0404,-3.0404,-3.0404,-3.0404,-3.041,-3.0463,-3.0547,-3.0663,-3.079,-3.0878,-3.0898,-3.0898,-3.0898,-3.0898,-3.0898,-3.0898,-3.0898,-3.0898,-3.0898,-3.0898,0.0,0.0,0.0,0.0,0.0,0.0,0.0,0.0,0.0,0.0,0.0,-4.0854,-3.8334,-3.8027,-3.7353,-3.5769,-3.6288,-3.7065,-3.795,-3.8007,-3.8027,-3.8065,-3.8065,0.0,-3.8065,-3.6568,-3.5748,-3.5662,-3.4163,-3.3844,-3.4671,-3.4683,-3.5176,-3.5976,-3.4199,-3.3398,-3.3184,-2.9805,-2.9316,-3.082,-3.0781,-3.1367,-3.2519,-3.4746,-3.5703,-3.5527,-3.293,0.0,0.0,-2.9141,-2.8301,-2.8301,-2.8301,-2.8301,-2.8301,0.0,0.0,0.0,-3.1367,-3.2422,-3.3535,-3.7695,-3.9355,-4.0176,-4.1016,-4.1191,-4.1191,-4.1191,-4.1191,-4.1191,-4.1133,-3.9707,-3.8262,-3.7422,-3.6562,-3.5996,-3.5996,-3.5996,-3.5996,-3.5996,-3.5996,-3.5996,-3.5996,-3.5215,-3.4336,-3.3476,-3.2656,-3.1816,-3.0957,-3.0714,-3.0603,-3.0603,-3.0477,-3.0404,-3.0404,-3.0404,-3.0404,-3.0404,-3.0404,-3.0404,-3.041,-3.0463,-3.0507,-3.0513,-3.0657,-3.0771,-3.0898,-3.0898,-3.0898,-3.0898,-3.0898,-3.0898,-3.0898,-3.0898,-3.0898,-3.0898,0.0,0.0,0.0,0.0,0.0,0.0,0.0,0.0,0.0,0.0,0.0,0.0,0.0,-3.7834,-3.6923,-3.6327,-3.6106,-3.6128,-3.6437,-3.6507,-3.6765,-3.7327,-3.7366,-3.7366,-3.7366,-3.6254,-3.543,-3.4967,-3.328,-3.2925,-3.3824,-3.3339,-3.3535,-3.4277,-3.3144,-3.293,-3.3144,-2.9141,-2.8144,-2.9336,-3.0449,-3.2402,-3.4746,-3.5644,-3.7383,-3.8848,-3.5137,0.0,0.0,-2.9648,-2.8027,-2.6621,-2.6621,-2.6621,-2.6621,-2.6621,-2.6816,-2.7519,-2.9883,-3.1348,-3.2832,-3.5449,-3.7598,-3.9141,-3.9453,-4.0391,-4.1191,-4.1191,-4.1191,-4.1191,-4.1191,-4.0234,-3.9141,-3.8281,-3.7402,-3.6641,-3.6074,-3.5996,-3.5996,-3.5996,-3.5996,-3.5996,-3.5996,-3.5723,-3.5176,-3.4297,-3.3457,-3.2617,-3.1777,-3.1007,-3.0603,-3.0603,-3.0477,-3.0404,-3.0404,-3.0404,-3.0404,-3.0404,-3.0404,-3.0404,-3.0404,-3.0422,-3.0486,-3.0561,-3.0603,-3.0696,-3.0771,-3.0858,-3.0898,-3.0898,-3.0898,-3.0898,-3.0898,-3.0898,-3.0898,-3.0898,0.0,0.0,0.0,0.0,0.0,-4.3131,-4.3131,-4.1684,-4.0604,-4.0604,0.0,0.0,0.0,0.0,-3.7009,-3.6424,-3.5679,-3.5223,-3.5223,-3.5003,-3.5252,-3.6124,-3.6163,-3.6284,-3.6556,-3.5743,-3.4959,-3.4162,-3.2769,-3.2395,-3.2988,-3.2441,-3.2637,-3.334,-3.1953,-3.2109,0.0,-2.9766,-2.8476,-2.8984,-3.1875,-3.3555,-3.4531,0.0,-3.8281,-3.8633,-3.5742,0.0,-3.1641,-3.1074,-2.9726,-2.8144,-2.7285,-2.6406,-2.5703,-2.5703,-2.6113,-2.6875,-2.832,-2.9785,-3.1426,-3.3691,-3.5566,-3.7246,-3.8691,-3.9707,-4.0488,-4.1074,-4.1191,-4.1191,-4.1191,-4.0723,-3.9961,-3.8789,-3.7871,-3.6992,-3.6113,-3.5996,-3.5996,-3.5996,-3.5996,-3.5996,-3.5996,-3.5996,-3.5644,-3.4766,-3.416,-3.3359,-3.2266,-3.1457,-3.0873,-3.0533,-3.0446,-3.0404,-3.0404,-3.0404,-3.0404,-3.0404,-3.0404,-3.0404,-3.0404,-3.0404,-3.0451,-3.0533,-3.0578,-3.0657,-3.0771,-3.0858,-3.0898,-3.0898,-3.0898,-3.0898,-3.0898,-3.0898,-3.0898,-3.0898,0.0,0.0,0.0,0.0,-4.4298,-4.3234,-4.3214,-4.1864,-4.0836,-4.0797,0.0,0.0,0.0,0.0,0.0,-3.5882,-3.5003,-3.4533,-3.4494,-3.3693,-3.3576,-3.4439,-3.4497,-3.487,-3.5655,-3.4939,-3.4144,-3.3303,-3.2535,-3.2168,-3.2168,-3.2148,-3.2559,-3.3223,-3.0703,-3.0976,-3.3184,0.0,-3.0293,-3.0039,0.0,-3.4687,-3.1836,0.0,-3.8594,-3.5,-3.4941,-3.4336,-3.3555,-3.3516,-3.3418,-3.2832,-3.0293,-2.7734,-2.5703,-2.5703,-2.5703,-2.5879,0.0,0.0,0.0,-3.2383,-3.3262,-3.4434,-3.8691,-3.9043,-3.8965,-4.0742,-4.1094,-4.1113,-4.1191,-4.1191,-4.0625,-3.8887,-3.7891,-3.7031,-3.6152,-3.6016,-3.5996,-3.5996,-3.5996,-3.5996,-3.5996,-3.5996,-3.5644,-3.4805,-3.4707,-3.3984,-3.2324,-3.2005,-3.1402,-3.0435,-3.0404,-3.0404,-3.0404,-3.0404,-3.0404,-3.0404,-3.0404,-3.0404,-3.0404,-3.0404,-3.0404,-3.0408,-3.0545,-3.0716,-3.0898,-3.0898,-3.0898,-3.0898,-3.0898,-3.0898,-3.0898,-3.0898,-3.0898,-3.0898,0.0,0.0,0.0,-4.5828,-4.4972,-4.4064,-4.3433,-4.2434,-4.1505,0.0,0.0,0.0,-3.8412,-3.7734,-3.7173,-3.6687,-3.5953,-3.5256,-3.461,-3.3803,-3.3446,-3.3681,-3.4306,-3.4755,-3.497,-3.4155,-3.361,-3.3376,-3.1953,-3.1269,-3.125,-3.0605,-3.0762,-3.1523,-3.0195,-2.998,-3.0508,-2.8144,0.0,-2.9785,-3.1836,-3.3828,0.0,-3.9043,-4.1055,-4.1992,-4.0723,-3.8926,-3.707,-3.6426,-3.373,-3.0195,-2.7598,-2.6289,-2.5703,-2.5703,-2.5703,-2.5742,-2.5996,0.0,0.0,0.0,0.0,0.0,-3.3906,-3.459,-3.5684,-3.8691,-3.8828,-3.8965,-4.0859,-4.1191,-4.0625,-3.8887,-3.8398,-3.7949,-3.7051,-3.6406,-3.5996,-3.5996,-3.5996,-3.5996,-3.5996,-3.5996,-3.5898,-3.5664,-3.5059,-3.4219,-3.3125,-3.173,-3.0793,-3.0416,-3.0404,-3.0404,-3.0404,-3.0404,-3.0404,-3.0404,-3.0404,-3.0404,-3.0404,-3.0404,-3.0428,-3.0477,-3.0558,-3.0655,-3.0768,-3.0858,-3.0898,-3.0898,-3.0898,-3.0898,-3.0898,-3.0898,-3.0898,-3.0898,0.0,0.0,-4.5899,-4.5899,-4.5258,-4.4562,-4.4056,-4.2975,-4.2037,0.0,0.0,0.0,-3.9054,-3.851,-3.7925,-3.7182,-3.6072,-3.5027,-3.4167,-3.3006,-3.2519,-3.2871,-3.3398,-3.3984,-3.4687,-3.3848,-3.3398,-3.3398,-3.209,-3.1269,-3.0898,-3.0371,-3.0215,-3.0312,-2.9453,-2.9062,-2.8906,-2.666,0.0,0.0,-3.2207,0.0,-3.4551,-3.8828,-4.0332,-4.0215,-4.0664,-3.8926,-3.6699,-3.8359,-3.5488,-3.0918,-2.9394,-2.7422,-2.5703,-2.5703,-2.5703,-2.5703,-2.5703,-2.6074,-2.6621,-2.7363,0.0,0.0,-3.2637,-3.332,-3.4394,-3.7871,-3.8203,-3.8301,-3.9824,-4.041,-4.0215,-3.8828,-3.8594,-3.8164,-3.6934,-3.6328,-3.5996,-3.5996,-3.5996,-3.5996,-3.5996,-3.5996,-3.5996,-3.5996,-3.5527,-3.4686,-3.338,-3.1921,-3.0913,-3.0416,-3.0404,-3.0404,-3.0404,-3.0404,-3.0404,-3.0404,-3.0404,-3.0404,-3.0404,-3.0404,-3.0417,-3.0467,-3.0551,-3.063,-3.0671,-3.0836,-3.0898,-3.0898,-3.0898,-3.0898,-3.0898,-3.0898,-3.0898,-3.0898,0.0,0.0,-4.5936,-4.5936,-4.5396,-4.4926,-4.4848,-4.3528,-4.2539,0.0,-4.1836,-4.1074,-4.0391,-4.0078,-3.9277,-3.7715,-3.582,-3.4336,-3.3457,-3.1836,-3.125,-3.2012,-3.2148,-3.2891,-3.4394,-3.3652,-3.3262,-3.3262,-3.2441,-3.166,-3.0898,-3.0703,-3.0195,-2.9414,-2.8437,-2.8008,-2.791,-2.6367,-2.6367,-2.7969,-3.4121,-3.4062,-3.1094,-3.8203,-3.8203,-3.4785,-3.7812,-3.6894,-3.4922,-3.9297,-3.7676,-3.373,-3.3164,-3.0019,-2.6445,-2.5879,-2.5918,-2.6074,-2.5781,-2.5703,-2.6074,-2.7617,-2.7422,0.0,-3.2773,-3.3164,-3.3535,-3.7031,-3.7676,-3.7695,-3.7969,-3.873,-3.9004,-3.8047,-3.8125,-3.7793,-3.6348,-3.6055,-3.5996,-3.5996,-3.5996,-3.5996,-3.5996,-3.5996,-3.5996,-3.5996,-3.5918,-3.5088,-3.3295,-3.2369,-3.1445,-3.0435,-3.0404,-3.0404,-3.0404,-3.0404,-3.0404,-3.0404,-3.0404,-3.0404,-3.0404,-3.0404,-3.0404,-3.0421,-3.0533,-3.0597,-3.0614,-3.0809,-3.0898,-3.0898,-3.0898,-3.0898,-3.0898,-3.0898,-3.0898,-3.0898,-4.6048,-4.6224,-4.6224,-4.6224,-4.609,-4.5779,-4.5076,-4.4101,-4.3457,-4.3457,-4.2695,-4.2363,-4.2891,-4.1133,-3.9766,-3.9414,-3.6523,-3.4336,-3.3457,-3.1836,-3.0976,-3.1152,-3.1836,-3.2344,-3.2676,-3.2519,-3.2422,-3.2422,-3.1562,-3.1074,-3.0879,-2.9453,-2.8711,-2.8476,-2.6914,-2.6211,-2.6191,-2.584,-2.7422,-3.0254,-3.1601,-3.3184,-3.5078,-3.8008,-3.9746,-4.0644,-4.0684,-4.0254,-3.9512,-3.8437,-3.7383,-3.5801,-3.1641,-3.1055,0.0,-2.6914,0.0,0.0,0.0,0.0,0.0,-2.6113,-2.6074,0.0,-2.8105,-2.7832,-2.8184,-3.168,-3.1836,-3.1973,-3.4043,-3.5137,-3.5215,-3.3691,-3.5176,-3.6621,-3.6992,-3.6445,-3.5996,-3.5996,-3.5996,-3.5996,-3.5996,-3.5996,-3.5996,-3.5996,-3.5351,-3.4444,-3.3256,-3.2369,-3.1445,-3.0435,-3.0404,-3.0404,-3.0404,-3.0404,-3.0404,-3.0404,-3.0404,-3.0404,-3.0404,-3.0404,-3.0404,-3.0396,-3.0491,-3.0559,-3.0611,-3.0705,-3.0794,-3.0898,-3.0898,-3.0898,-3.0898,-3.0898,-3.0898,-3.0898,-4.6133,-4.6308,-4.6308,-4.6308,-4.6308,-4.6152,-4.5723,-4.4902,-4.4355,-4.4355,-4.3594,-4.3047,-4.3047,-4.1543,-4.0195,-3.9336,-3.6855,-3.4785,-3.3496,-3.2246,-3.1348,-3.0918,-3.1328,-3.1758,-3.2187,-3.1777,-3.1758,-3.2207,-3.0898,-3.0254,-3.0215,-2.8906,-2.9004,-3.0137,-2.7519,-2.707,-2.8184,-2.6445,-2.6719,-2.8613,-3.2051,0.0,-3.8184,-4.0332,-4.168,-4.2285,-4.1484,-4.1191,-4.0801,-3.8184,-3.6426,-3.5137,-3.3848,-3.2559,-3.0996,0.0,-2.8574,-2.9023,0.0,0.0,0.0,-2.5703,-2.5703,0.0,0.0,-2.7305,-2.7734,-3.0351,-3.0547,-3.0644,-3.1914,-3.2871,-3.3184,-3.2344,-3.3965,-3.5215,-3.4805,-3.5469,-3.5996,-3.5996,-3.5996,-3.5996,-3.5996,-3.5996,-3.5996,-3.5996,-3.5605,-3.4917,-3.3949,-3.3034,-3.2096,-3.1138,-3.0642,-3.0404,-3.0404,-3.0404,-3.0404,-3.0404,-3.0404,-3.0404,-3.0404,-3.0404,-3.0404,-3.039,-3.0463,-3.0541,-3.0611,-3.0677,-3.0771,-3.0898,-3.0898,-3.0898,-3.0898,-3.0898,-3.0898,-3.0898,-4.5625,-4.6074,-4.625,-4.6074,-4.6191,-4.6308,-4.6308,-4.5566,-4.5,-4.5,-4.4394,-4.375,-4.3203,-4.2266,-4.1113,-3.9707,0.0,-3.5937,-3.4023,-3.3144,-3.2363,-3.166,-3.1152,-3.1465,-3.2656,-3.1348,-3.0996,-3.1699,-3.0117,-2.9355,-2.9336,-2.8457,-2.918,-3.1094,-2.8789,0.0,0.0,0.0,0.0,-2.8164,0.0,-3.6777,-3.8262,-4.1484,-4.2187,-4.1406,-4.125,-4.1191,-4.0801,-3.8184,-3.5898,-3.4355,-3.5469,-3.3633,0.0,0.0,0.0,0.0,0.0,0.0,0.0,0.0,0.0,-2.6074,0.0,0.0,0.0,0.0,0.0,0.0,0.0,-3.0605,-3.1133,-3.0976,0.0,0.0,0.0,-3.3516,0.0,-3.5019,-3.5605,-3.5879,-3.5527,-3.5508,-3.5644,-3.5976,-3.5684,-3.5232,-3.4626,-3.3873,-3.2937,-3.1823,-3.1053,-3.0577,-3.0404,-3.0404,-3.0404,-3.0404,-3.0404,-3.0404,-3.0404,-3.0404,-3.0404,-3.039,-3.0457,-3.0521,-3.0609,-3.0665,-3.0767,-3.0898,-3.0898,-3.0898,-3.0898,-3.0898,-3.0898,-3.0898,-4.3828,-4.5234,-4.6055,-4.5273,-4.5781,-4.6308,-4.6308,-4.5566,-4.5,-4.5,-4.4902,-4.5117,-4.5781,-4.4394,-4.334,0.0,-4.0879,-3.8398,-3.5879,-3.4902,-3.4375,-3.4277,-3.2109,-3.1992,-3.4355,-3.1348,-2.9805,-2.9902,-2.8926,-2.8457,-2.8437,-2.7559,-2.7305,-2.7676,-2.9609,0.0,0.0,0.0,-3.2051,0.0,-3.5684,-3.3906,0.0,-3.7031,-3.8633,-3.8164,-4.0391,-4.1191,-4.0801,-3.8184,-3.7109,-3.6113,0.0,-3.3203,-3.5078,-2.8164,0.0,0.0,0.0,0.0,0.0,0.0,-2.5703,-2.5742,0.0,0.0,-2.6055,-2.625,0.0,0.0,0.0,0.0,0.0,0.0,0.0,0.0,-2.8887,-3.0312,-3.1484,-3.1484,-3.4141,-3.5391,-3.3848,-3.3691,-3.4336,-3.5879,-3.457,-3.3963,-3.4567,-3.4435,-3.3575,-3.1842,-3.1637,-3.1173,-3.0404,-3.0404,-3.0404,-3.0404,-3.0404,-3.0404,-3.0404,-3.0404,-3.0404,-3.0404,-3.0402,-3.0482,-3.0606,-3.0614,-3.0723,-3.0898,-3.0898,-3.0898,-3.0898,-3.0898,-3.0898,-3.0898,-4.3535,-4.4297,-4.4687,-4.4316,-4.4551,-4.4961,-4.5469,-4.5664,-4.5566,-4.5078,-4.4551,-4.457,-4.5449,-4.3125,-4.1894,-4.2851,-4.1074,-3.9004,-3.6894,-3.5937,-3.4785,-3.3301,-3.1738,-3.1152,-3.1738,-3.0332,-2.9355,-2.8848,-2.7969,-2.7559,-2.7539,-2.6641,-2.7324,-2.9316,-3.041,0.0,-3.1641,0.0,-3.1738,0.0,0.0,-3.1953,0.0,-3.9258,-4.1465,-4.0332,-4.0976,-4.1191,-4.1035,-3.9922,-3.7559,-3.5195,0.0,0.0,0.0,-3.0684,0.0,0.0,0.0,0.0,0.0,0.0,0.0,0.0,-2.5937,-2.5703,-2.5703,0.0,0.0,0.0,0.0,0.0,0.0,0.0,-2.7793,0.0,0.0,0.0,-3.0898,0.0,0.0,0.0,-3.3379,-3.3398,-3.4121,-3.5879,-3.4394,-3.3984,-3.5347,-3.4822,-3.393,-3.2651,-3.2027,-3.1269,-3.0404,-3.0404,-3.0404,-3.0404,-3.0404,-3.0404,-3.0404,-3.0404,-3.0404,-3.0404,-3.0404,-3.0487,-3.0603,-3.0603,-3.0718,-3.0898,-3.0898,-3.0898,-3.0898,-3.0898,-3.0898,-3.0898,-4.2891,-4.3379,-4.3613,-4.3398,-4.3535,-4.3906,-4.4551,-4.498,-4.5098,-4.4707,-4.3887,-4.3769,-4.4883,-4.2773,-4.1875,-4.334,-4.2363,-4.0801,-3.8828,-3.7441,-3.6191,-3.5059,-3.2363,-3.1152,-3.1699,-3.0098,-2.8828,-2.7949,-2.707,-2.6641,-2.6621,-2.5996,-2.7051,-2.9531,-3.0723,-3.25,-3.4512,0.0,-3.3066,-3.3711,-3.3711,-3.4277,-3.5742,-4.1445,-4.3105,-4.2324,-4.1738,-4.1387,-4.1094,-4.0371,-3.7617,-3.5019,-3.8086,-3.5684,-3.1934,0.0,0.0,0.0,-2.7676,0.0,0.0,-2.6191,-2.6641,-2.7266,-2.5996,-2.5703,0.0,0.0,0.0,0.0,0.0,0.0,0.0,0.0,0.0,-2.7363,0.0,0.0,0.0,0.0,0.0,0.0,0.0,-3.2285,-3.293,-3.5117,-3.3691,-3.3672,-3.5879,-3.5295,-3.4472,-3.3579,-3.26,-3.165,-3.0769,-3.0519,-3.0404,-3.0404,-3.0404,-3.0404,-3.0404,-3.0404,-3.0404,-3.0404,-3.0411,-3.0481,-3.0606,-3.0628,-3.0749,-3.0898,-3.0898,-3.0898,-3.0898,-3.0898,-3.0898,-3.0898,-4.1269,-4.2598,-4.3437,-4.2598,-4.3144,-4.3711,-4.373,-4.3047,-4.2812,-4.3633,-4.2988,-4.3086,-4.4805,-4.4902,-4.5195,-4.6094,-4.6133,-4.5,-4.2402,-3.9902,-3.957,-4.1973,-3.4902,-3.2832,-3.6953,-3.1328,-2.791,-2.7031,-2.6172,-2.5742,-2.5742,-2.5703,-2.5762,-2.6055,-3.0273,-3.1758,-3.1328,-3.5371,-3.8555,-4.0879,-4.0879,-4.2851,-4.5391,0.0,-4.1035,-4.2402,-4.2363,-4.1855,-4.0801,-3.8281,-3.7305,-3.6758,-3.4394,-3.5215,0.0,0.0,0.0,0.0,-3.0859,-2.9512,-2.8945,-2.6348,-2.5742,-2.5762,-2.5703,-2.5703,-2.5703,0.0,0.0,0.0,0.0,0.0,0.0,0.0,0.0,0.0,0.0,0.0,0.0,0.0,0.0,0.0,0.0,-2.9453,-2.9863,0.0,-3.1934,-3.2441,-3.582,-3.5902,-3.5431,-3.449,-3.3557,-3.2613,-3.1679,-3.0827,-3.0404,-3.0404,-3.0404,-3.0404,-3.0404,-3.0404,-3.0404,-3.039,-3.0477,-3.0537,-3.0609,-3.0675,-3.0771,-3.0898,-3.0898,-3.0898,-3.0898,-3.0898,-3.0898,-3.0898,-4.0449,-4.1269,-4.1953,-4.166,-4.1855,-4.2226,-4.2754,-4.3086,-4.3574,-4.4453,-4.3808,-4.3926,-4.5664,-4.4824,-4.4726,-4.6172,-4.5762,-4.4824,-4.3359,-4.0879,-3.9844,-4.0703,-3.5488,-3.3223,-3.4687,-3.1074,-2.8457,-2.6992,-2.6133,-2.5703,-2.5703,-2.5703,-2.5703,-2.5879,-2.9648,-3.2422,0.0,0.0,0.0,0.0,0.0,-4.2207,-4.3613,-4.2754,-4.2773,-4.3125,-4.1992,-4.1426,-4.1055,-4.0176,-3.873,-3.7441,-3.8301,-3.6797,-3.4883,-3.5723,-3.5371,-3.4336,-3.2598,-3.2539,-3.2226,-2.9062,-2.8281,-2.7832,-2.6094,-2.5254,0.0,0.0,0.0,0.0,0.0,0.0,0.0,0.0,0.0,0.0,0.0,0.0,0.0,0.0,0.0,0.0,0.0,0.0,0.0,0.0,0.0,0.0,-3.5879,-3.5942,-3.5488,-3.4599,-3.36,-3.2667,-3.1768,-3.0871,-3.0404,-3.0404,-3.0404,-3.0404,-3.0404,-3.0404,-3.0422,-3.0477,-3.0481,-3.0895,-3.1533,-3.1549,-3.1943,-3.2559,-3.2559,-3.2226,-3.1699,-3.1113,-3.0898,-3.0898,-4.039,-4.0663,-4.1081,-4.1172,-4.1191,-4.1367,-4.1894,-4.2695,-4.3437,-4.4004,-4.3867,-4.4258,-4.5683,-4.4844,-4.4746,-4.6172,-4.5781,-4.4961,-4.3789,-4.1875,-4.0937,-4.123,-3.7402,-3.5547,-3.6152,-3.2734,-3.0254,-2.8848,-2.7031,-2.6152,-2.6152,-2.5859,-2.5703,-2.5801,-2.8379,-3.1934,-3.6016,-3.6328,-3.9004,0.0,0.0,-4.33,0.0,-4.4042,-4.3418,-4.2324,-4.2148,-4.1719,-4.1191,-4.1191,-4.0078,-3.8984,-4.0664,-3.8887,-3.6504,-3.8184,-3.748,-3.5976,-3.5039,-3.5195,-3.4805,-3.1387,-3.0527,-2.9844,-2.7226,-2.6191,-2.5957,0.0,0.0,0.0,0.0,0.0,0.0,0.0,0.0,0.0,0.0,0.0,0.0,0.0,0.0,0.0,0.0,0.0,0.0,0.0,0.0,0.0,0.0,-3.5951,-3.5666,-3.5089,-3.4125,-3.3351,-3.2773,-3.1859,-3.138,-3.1367,-3.1367,-3.1334,-3.1295,-3.1339,-3.1375,-3.1422,-3.1483,-3.1865,-3.2455,-3.2486,-3.2848,-3.3398,-3.3398,-3.3086,-3.2519,-3.168,-3.1172,-3.0898,-4.0914,-4.0817,-4.0932,-4.1207,-4.121,-4.121,-4.1308,-4.1933,-4.2422,-4.2519,-4.3242,-4.4101,-4.4961,-4.5058,-4.5391,-4.623,-4.6308,-4.5605,-4.3945,-4.2969,-4.2871,-4.3789,-4.0547,-3.9512,-4.1211,-3.6133,-3.3066,-3.2246,-2.873,-2.6992,-2.6973,-2.6113,-2.5703,-2.5742,-2.6601,0.0,-3.6055,-3.6933,-4.0781,-4.6308,-4.6289,-4.6124,-4.5841,-4.5269,-4.289,-4.0215,-4.2734,-4.2598,-4.1191,-4.1191,-4.1191,-4.1191,-4.1191,-4.1191,-4.1191,-4.1191,-4.1191,-4.0664,-3.8164,-3.7461,-3.6621,-3.3223,-3.2324,-3.1582,-2.9004,-2.8398,-2.8379,0.0,0.0,0.0,0.0,0.0,0.0,0.0,0.0,0.0,0.0,0.0,0.0,0.0,0.0,0.0,0.0,0.0,0.0,0.0,0.0,0.0,0.0,0.0,-3.5837,-3.5907,-3.5051,-3.4564,-3.4513,-3.3634,-3.316,-3.3093,-3.3088,-3.3033,-3.291,-3.303,-3.3102,-3.3124,-3.3234,-3.3335,-3.3378,-3.3436,-3.3496,-3.3535,-3.3535,-3.3496,-3.3379,-3.2559,-3.1758,-3.1074,-4.0073,-4.091,-4.1782,-4.1851,-4.1334,-4.1337,-4.2643,-4.2551,-4.2791,-4.4081,-4.4508,-4.5,-4.5879,-4.5976,-4.6055,-4.6289,-4.6308,-4.6113,-4.5664,-4.4219,-4.4043,-4.5566,-4.2363,-4.1016,-4.207,-3.7012,-3.3924,-3.3013,-2.8983,-2.6971,-2.6917,-2.6072,-2.5703,-2.5742,-2.6554,-3.0307,-3.6055,-3.6888,-4.0738,-4.6289,-4.6082,-4.4905,-4.3446,-4.5055,-4.3217,-4.0016,-4.203,-4.207,-4.1191,-4.1191,-4.1191,-4.1191,-4.1191,-4.1191,-4.1191,-4.1191,-4.1191,-4.1055,-4.0371,-3.9726,-3.8555,-3.5723,-3.4043,-3.2598,-3.0664,-2.9726,-2.9453,-3.0098,-2.9883,-2.9238,0.0,0.0,0.0,0.0,0.0,0.0,0.0,0.0,0.0,0.0,0.0,0.0,0.0,0.0,0.0,0.0,0.0,0.0,0.0,0.0,-3.4043,-3.5916,-3.5083,-3.4599,-3.4568,-3.3605,-3.3124,-3.3093,-3.3001,-3.2985,-3.304,-3.3079,-3.3145,-3.3258,-3.3285,-3.3698,-3.4335,-3.4355,-3.4746,-3.5332,-3.5332,-3.4941,-3.4258,-3.3418,-3.3359,-3.3633,-4.0657,-4.1625,-4.2542,-4.2542,-4.2135,-4.2161,-4.3251,-4.2429,-4.2173,-4.3499,-4.4038,-4.4484,-4.4972,-4.5691,-4.6138,-4.6138,-4.6138,-4.5806,-4.5082,-4.4809,-4.477,-4.5024,-4.389,-4.3461,-4.3911,-3.9981,-3.7139,-3.548,-3.1227,-2.8553,-2.74,-2.6182,-2.5607,-2.5645,0.0,-2.9588,-3.4435,-3.7882,-4.1322,-4.454,-4.5503,-4.5066,0.0,-4.5378,-4.4182,-4.1906,-4.2646,-4.2184,-4.1191,-4.1191,-4.1151,-4.1105,-4.1105,-4.1077,-4.1048,-4.1102,-4.1105,-4.1105,-4.1105,-4.0799,-4.0019,-3.808,-3.6638,-3.5137,-3.3047,-3.1894,-3.1406,-3.1894,-3.1406,-3.0918,-3.0937,0.0,0.0,0.0,0.0,0.0,0.0,0.0,0.0,0.0,0.0,0.0,0.0,0.0,0.0,0.0,0.0,0.0,0.0,0.0,0.0,-3.5937,-3.4743,-3.4446,-3.5207,-3.3897,-3.359,-3.4315,-3.4256,-3.4216,-3.4233,-3.4298,-3.4364,-3.4445,-3.4479,-3.4782,-3.5273,-3.5273,-3.5566,-3.5996,-3.5996,-3.5703,-3.5215,-3.4726,-3.4355,-3.4062,-4.1962,-4.2662,-4.322,-4.3124,-4.3181,-4.3319,-4.3485,-4.2294,-4.1614,-4.2326,-4.3179,-4.3736,-4.3736,-4.5032,-4.5899,-4.5899,-4.5899,-4.5272,-4.3824,-4.5097,-4.5252,-4.378,-4.5116,-4.5899,-4.5899,-4.3391,-4.0796,-3.8124,-3.3948,-3.0523,-2.7885,-2.6264,0.0,0.0,0.0,0.0,0.0,-3.9248,-4.2175,-4.2782,-4.4977,-4.5847,-4.5796,-4.585,-4.5293,-4.4421,-4.3778,-4.2609,-4.1327,-4.123,-4.1105,-4.0996,-4.0996,-4.0911,-4.0816,-4.095,-4.0964,-4.0964,-4.0964,-4.1077,-4.0934,-3.9942,-3.9125,-3.7948,-3.5545,-3.4333,-3.3708,-3.3708,-3.2557,-3.2363,-3.4999,-3.0918,0.0,0.0,0.0,0.0,0.0,0.0,0.0,0.0,0.0,0.0,0.0,0.0,0.0,0.0,0.0,0.0,0.0,0.0,0.0,-3.5937,-3.4531,-3.4355,-3.5644,-3.4375,-3.4349,-3.557,-3.5779,-3.5812,-3.5723,-3.5843,-3.5905,-3.5913,-3.5974,-3.5996,-3.5996,-3.5996,-3.5996,-3.5996,-3.5996,-3.5996,-3.5996,-3.5996,-3.5039,-3.373,-4.2874,-4.3528,-4.3874,-4.322,-4.3643,-4.4091,-4.4145,-4.3988,-4.3908,-4.4064,-4.4885,-4.5456,-4.5456,-4.5728,-4.5899,-4.5899,-4.5899,-4.5782,-4.549,-4.5743,-4.5763,-4.5471,-4.5743,-4.5899,-4.5899,-4.3391,-4.0479,-3.7157,-3.3627,-3.0201,-2.6916,-2.5946,-2.5491,0.0,0.0,0.0,-3.6245,-3.9534,-4.2622,-4.5263,-4.5529,-4.5711,-4.579,-4.5681,-4.5162,-4.4389,-4.3559,-4.2774,-4.2006,-4.1405,-4.1105,-4.0996,-4.0996,-4.0911,-4.0801,-4.0839,-4.0843,-4.0843,-4.0843,-4.0925,-4.0801,-3.9851,-3.9014,-3.8112,-3.6888,-3.5919,-3.5299,-3.5299,-3.5145,-3.4545,-3.2981,-3.015,0.0,0.0,0.0,0.0,0.0,0.0,0.0,0.0,0.0,0.0,0.0,0.0,0.0,0.0,0.0,0.0,0.0,0.0,0.0,0.0,-3.5703,-3.5,0.0,-3.4911,-3.4893,-3.377,-3.509,-3.5772,-3.5871,-3.5898,-3.594,-3.5975,-3.5996,-3.5996,-3.5996,-3.5996,-3.5996,-3.5996,-3.5996,-3.5996,-3.5996,-3.5996,-3.5801,-3.5547,-4.372,-4.4028,-4.4182,-4.3797,-4.4047,-4.4297,-4.4297,-4.4742,-4.4766,-4.3897,-4.4175,-4.446,-4.446,-4.5209,-4.5731,-4.5731,-4.5731,-4.5731,-4.5731,-4.5731,-4.5731,-4.5731,-4.5731,-4.5731,-4.5731,-4.455,-4.1577,-3.6792,-3.4759,-3.1313,-2.663,-2.5801,-2.5398,-2.5515,0.0,-3.135,0.0,-3.9432,-4.2241,-4.3886,-4.5101,-4.5635,-4.5685,-4.5618,-4.5384,-4.492,-4.366,-4.3012,-4.2587,-4.1398,-4.0955,-4.0896,-4.0867,-4.0752,-4.0651,-4.0727,-4.0742,-4.0742,-4.0742,-4.0813,-4.0786,-4.0286,-3.9256,-3.823,-3.7776,-3.6657,-3.5707,-3.5707,-3.5758,-3.5027,-3.2475,-2.9972,-2.7891,-2.6621,0.0,0.0,0.0,0.0,0.0,0.0,0.0,0.0,0.0,0.0,0.0,0.0,0.0,0.0,0.0,0.0,0.0,0.0,0.0,0.0,-3.4746,0.0,-3.464,-3.4718,-3.5485,-3.5896,-3.5948,-3.5948,-3.5973,-3.5996,-3.5996,-3.5996,-3.5996,-3.5996,-3.5996,-3.5996,-3.5996,-3.5996,-3.5996,-3.5996,-3.5996,-3.5996,-4.4586,-4.4586,-4.4509,-4.4335,-4.4451,-4.4509,-4.4335,-4.5037,-4.5133,-4.3797,-4.3624,-4.3624,-4.3624,-4.4806,-4.5594,-4.5594,-4.5594,-4.5594,-4.5594,-4.5594,-4.5594,-4.5594,-4.5594,-4.5594,-4.5594,-4.5594,-4.2931,-3.7507,-3.6154,-3.2712,-2.7385,-2.5962,-2.5692,-2.6538,-2.9923,-3.2564,-3.4814,-3.9527,-4.195,-4.2777,-4.4786,-4.5594,-4.5594,-4.5594,-4.5594,-4.54,-4.395,-4.3331,-4.2988,-4.1509,-4.0917,-4.0766,-4.0718,-4.061,-4.0527,-4.063,-4.0668,-4.0668,-4.0668,-4.0721,-4.0752,-4.0692,-3.9471,-3.8276,-3.8231,-3.6906,-3.5659,-3.5659,-3.5679,-3.4925,-3.2448,-3.0865,-2.9569,-2.8476,0.0,0.0,0.0,0.0,0.0,0.0,0.0,0.0,0.0,0.0,0.0,0.0,0.0,0.0,0.0,0.0,0.0,0.0,0.0,-3.3887,-3.4902,0.0,-3.4453,-3.5449,-3.582,-3.5996,-3.5996,-3.5996,-3.5996,-3.5996,-3.5996,-3.5996,-3.5996,-3.5996,-3.5996,-3.5996,-3.5996,-3.5996,-3.5996,-3.5996,-3.5996,-3.5996,-4.5479,-4.5479,-4.5229,-4.4432,-4.4951,-4.521,-4.4412,-4.5037,-4.5537,-4.5383,-4.5364,-4.5364,-4.5364,-4.5518,-4.5594,-4.5594,-4.5594,-4.5594,-4.5594,-4.5594,-4.5594,-4.5594,-4.5594,-4.5594,-4.5594,-4.5594,-4.3805,-4.015,-3.7026,-3.3635,-2.9962,-2.6788,-2.6942,-2.9942,-3.0346,-3.3968,-3.9823,-4.0381,-4.242,-4.5267,-4.5498,-4.5594,-4.5594,-4.5594,-4.5594,-4.5479,-4.4534,-4.3766,-4.3054,-4.2039,-4.1266,-4.0715,-4.0703,-4.061,-4.0496,-4.0519,-4.0519,-4.0519,-4.0519,-4.0616,-4.0686,-4.0552,-3.9354,-3.8186,-3.8067,-3.6728,-3.5515,-3.5515,-3.5574,-3.4876,-3.2441,-3.3755,-3.3672,-2.9042,0.0,0.0,0.0,0.0,0.0,0.0,0.0,0.0,0.0,0.0,0.0,0.0,0.0,0.0,0.0,0.0,0.0,-3.3555,0.0,-3.2754,-3.1387,-3.4297,-3.5059,-3.3652,-3.5254,-3.5996,-3.5996,-3.5996,-3.5996,-3.5996,-3.5996,-3.5996,-3.5996,-3.5996,-3.5996,-3.5996,-3.5996,-3.5996,-3.5996,-3.5996,-3.5996,-3.5996,-4.5594,-4.519,-4.4874,-4.5056,-4.494,-4.4874,-4.5056,-4.5383,-4.5594,-4.5594,-4.5594,-4.5594,-4.5594,-4.5594,-4.5594,-4.5594,-4.5594,-4.5594,-4.5594,-4.5594,-4.5594,-4.5594,-4.5594,-4.5594,-4.5594,-4.5594,-4.3921,-4.0496,-3.7623,-3.4481,-3.1154,-2.9769,-3.0692,-3.3558,-3.5565,-3.7976,-4.0631,-4.2689,-4.4344,-4.5594,-4.5594,-4.5594,-4.5594,-4.5594,-4.5594,-4.5421,-4.4066,-4.3384,-4.2926,-4.1501,-4.0884,-4.068,-4.0603,-4.0537,-4.0496,-4.0496,-4.0496,-4.0496,-4.0496,-4.053,-4.0574,-4.0512,-3.967,-3.8703,-3.8125,-3.7084,-3.6077,-3.5596,-3.5544,-3.5306,-3.4342,-3.38,-3.3334,-3.2814,-3.2374,0.0,0.0,0.0,0.0,0.0,0.0,0.0,0.0,0.0,0.0,0.0,0.0,0.0,0.0,0.0,0.0,-3.1074,0.0,-3.4141,-3.2422,-3.4785,-3.5644,-3.4961,-3.5664,-3.5996,-3.5996,-3.5996,-3.5996,-3.5996,-3.5996,-3.5996,-3.5996,-3.5996,-3.5996,-3.5996,-3.5996,-3.5996,-3.5996,-3.5996,-3.5996,-3.5996,-4.5594,-4.5094,-4.4874,-4.5498,-4.5094,-4.4893,-4.5518,-4.5594,-4.5594,-4.5594,-4.5594,-4.5594,-4.5594,-4.5594,-4.5594,-4.5594,-4.5594,-4.5594,-4.5594,-4.5594,-4.5594,-4.5594,-4.5594,-4.5594,-4.5594,-4.5594,-4.4421,-4.1997,-3.9181,-3.6603,-3.4276,-3.3276,-3.4295,-3.7065,-3.9438,-4.1054,-4.217,-4.4575,-4.5594,-4.5594,-4.5594,-4.5594,-4.5594,-4.5594,-4.5594,-4.546,-4.4259,-4.3528,-4.2912,-4.1681,-4.0991,-4.063,-4.0542,-4.0496,-4.0496,-4.0496,-4.0496,-4.0496,-4.0496,-4.0496,-4.0496,-4.0496,-3.99,-3.9073,-3.82,-3.7334,-3.6462,-3.5673,-3.554,-3.5577,-3.56,-3.4171,-3.3336,-3.4406,-3.3735,-3.3473,0.0,-3.4992,0.0,0.0,0.0,-3.2303,-3.2637,0.0,0.0,0.0,0.0,0.0,0.0,0.0,0.0,0.0,0.0,0.0,-3.3418,-3.5137,-3.5996,-3.5996,-3.5996,-3.5996,-3.5996,-3.5996,-3.5996,-3.5996,-3.5996,-3.5996,-3.5996,-3.5996,-3.5996,-3.5996,-3.5996,-3.5996,-3.5996,-3.5996,-3.5995,-3.5953,-4.5594,-4.5594,-4.5594,-4.5594,-4.5594,-4.5594,-4.5594,-4.5594,-4.5594,-4.5594,-4.5594,-4.5594,-4.5594,-4.5594,-4.5594,-4.5594,-4.5594,-4.5594,-4.5594,-4.5594,-4.5594,-4.5594,-4.5594,-4.5594,-4.5594,-4.5594,-4.5575,-4.5537,-4.2112,-4.0439,-4.0323,-3.7007,-3.7238,-4.0439,-4.0477,-4.2382,-4.5537,-4.5575,-4.5594,-4.5594,-4.5594,-4.5594,-4.5594,-4.5594,-4.5594,-4.5594,-4.5575,-4.4509,-4.3104,-4.3085,-4.1939,-4.0496,-4.0496,-4.0496,-4.0496,-4.0496,-4.0496,-4.0496,-4.0496,-4.0496,-4.0496,-4.0496,-3.99,-3.9073,-3.82,-3.7334,-3.6462,-3.5673,-3.55,-3.5522,-3.5585,-3.5572,-3.4749,-3.2336,-3.404,-3.4786,0.0,-3.2688,0.0,0.0,-2.6261,-2.5208,-3.0429,0.0,0.0,0.0,0.0,0.0,0.0,0.0,0.0,-3.3262,-3.3398,0.0,-3.3398,-3.5137,-3.5996,-3.5996,-3.5996,-3.5996,-3.5996,-3.5996,-3.5996,-3.5996,-3.5996,-3.5996,-3.5996,-3.5996,-3.5996,-3.5996,-3.5996,-3.5996,-3.5996,-3.5996,-3.5951,-3.5877,-4.5594,-4.5594,-4.5594,-4.5594,-4.5594,-4.5594,-4.5594,-4.5594,-4.5594,-4.5594,-4.5594,-4.5594,-4.5594,-4.5594,-4.5594,-4.5594,-4.5594,-4.5594,-4.5594,-4.5594,-4.5594,-4.5594,-4.5594,-4.5594,-4.5594,-4.5594,-4.5594,-4.5594,-4.2777,-4.1393,-4.1354,-4.0288,-4.1296,-4.3978,-4.3978,-4.4575,-4.5594,-4.5594,-4.5594,-4.5594,-4.5594,-4.5594,-4.5594,-4.5594,-4.5594,-4.5518,-4.494,-4.4008,-4.3008,-4.2412,-4.145,-4.0496,-4.0496,-4.0496,-4.0496,-4.0496,-4.0496,-4.0496,-4.0496,-4.0496,-4.0496,-4.0496,-4.0304,-3.99,-3.9073,-3.7757,-3.6462,-3.5673,-3.55,-3.552,-3.5534,-3.5528,-3.527,-3.4471,-3.5063,-3.5359,-3.453,0.0,-3.4714,-3.4175,-3.267,-3.2365,-3.4139,-3.0958,0.0,0.0,0.0,0.0,0.0,0.0,0.0,0.0,-3.3652,0.0,-3.3418,-3.5137,-3.5996,-3.5996,-3.5996,-3.5996,-3.5996,-3.5996,-3.5996,-3.5996,-3.5996,-3.5996,-3.5996,-3.5996,-3.5996,-3.5996,-3.5996,-3.5996,-3.5996,-3.5996,-3.5951,-3.588,-4.5594,-4.5594,-4.5594,-4.5594,-4.5594,-4.5594,-4.5594,-4.5594,-4.5594,-4.5594,-4.5594,-4.5594,-4.5594,-4.5594,-4.5594,-4.5594,-4.5594,-4.5594,-4.5594,-4.5594,-4.5594,-4.5594,-4.5594,-4.5594,-4.5594,-4.5594,-4.5594,-4.5594,-4.4008,-4.3239,-4.3239,-4.3239,-4.4085,-4.5594,-4.5594,-4.5594,-4.5594,-4.5594,-4.5594,-4.5594,-4.5594,-4.5594,-4.5594,-4.5594,-4.5594,-4.5537,-4.4979,-4.4066,-4.3028,-4.247,-4.1489,-4.0496,-4.0496,-4.0496,-4.0496,-4.0496,-4.0496,-4.0496,-4.0496,-4.0496,-4.0496,-4.0496,-4.0496,-4.0285,-3.9477,-3.795,-3.6558,-3.6058,-3.5712,-3.55,-3.55,-3.55,-3.55,-3.55,-3.5534,-3.5562,-3.5562,-3.5605,-3.5165,0.0,0.0,-3.3785,0.0,-3.2469,-3.1633,0.0,0.0,0.0,0.0,0.0,-3.1465,-3.1992,-3.4609,-3.5488,-3.4394,-3.5469,-3.5996,-3.5996,-3.5996,-3.5996,-3.5996,-3.5996,-3.5996,-3.5996,-3.5996,-3.5996,-3.5996,-3.5996,-3.5996,-3.5996,-3.5996,-3.5996,-3.5996,-3.5996,-3.5926,-3.5814,-4.5594,-4.5594,-4.5594,-4.5594,-4.5594,-4.5594,-4.5594,-4.5594,-4.5594,-4.5594,-4.5594,-4.5594,-4.5594,-4.5594,-4.5594,-4.5594,-4.5594,-4.5594,-4.5594,-4.5594,-4.5594,-4.5594,-4.5594,-4.5594,-4.5594,-4.5594,-4.5594,-4.5594,-4.5594,-4.5594,-4.5594,-4.5594,-4.5594,-4.5594,-4.5594,-4.5594,-4.5594,-4.5594,-4.5594,-4.5594,-4.5594,-4.5594,-4.5594,-4.5594,-4.5594,-4.5594,-4.5594,-4.4509,-4.3104,-4.3104,-4.1931,-4.0496,-4.0496,-4.0496,-4.0496,-4.0496,-4.0496,-4.0496,-4.0496,-4.0496,-4.0496,-4.0496,-4.0496,-4.0285,-3.9477,-3.8046,-3.6846,-3.6712,-3.6096,-3.5577,-3.5519,-3.55,-3.55,-3.55,-3.55,-3.55,-3.55,-3.55,-3.4334,-3.1212,-3.0856,-3.0864,-3.0936,-3.1003,-3.2315,0.0,0.0,0.0,0.0,0.0,-3.1758,-3.5879,-3.5996,-3.5996,-3.5996,-3.5996,-3.5996,-3.5996,-3.5996,-3.5996,-3.5996,-3.5996,-3.5996,-3.5996,-3.5996,-3.5996,-3.5996,-3.5996,-3.5996,-3.5996,-3.5996,-3.5996,-3.5996,-3.5996,-3.5874,-3.5707,-4.5594,-4.5594,-4.5594,-4.5594,-4.5594,-4.5594,-4.5594,-4.5594,-4.5594,-4.5594,-4.5594,-4.5594,-4.5594,-4.5594,-4.5594,-4.5594,-4.5594,-4.5594,-4.5594,-4.5594,-4.5594,-4.5594,-4.5594,-4.5594,-4.5594,-4.5594,-4.5594,-4.5594,-4.5594,-4.5594,-4.5594,-4.5594,-4.5594,-4.5594,-4.5594,-4.5594,-4.5594,-4.5594,-4.5594,-4.5594,-4.5594,-4.5594,-4.5594,-4.5594,-4.5594,-4.5594,-4.5594,-4.4509,-4.3104,-4.3104,-4.1931,-4.0496,-4.0496,-4.0496,-4.0496,-4.0496,-4.0496,-4.0496,-4.0496,-4.0496,-4.0496,-4.0496,-4.0496,-4.0285,-3.9477,-3.8977,-3.8315,-3.6962,-3.6538,-3.6231,-3.5615,-3.55,-3.55,-3.55,-3.55,-3.55,-3.55,-3.55,-3.5218,-3.4411,-3.4315,-3.4345,-3.4405,-3.4423,-3.4019,0.0,0.0,-3.3681,-3.3125,-3.2715,-3.3574,-3.5937,-3.5996,-3.5996,-3.5996,-3.5996,-3.5996,-3.5996,-3.5996,-3.5996,-3.5996,-3.5996,-3.5996,-3.5996,-3.5996,-3.5996,-3.5996,-3.5996,-3.5996,-3.5996,-3.5996,-3.5996,-3.5996,-3.5996,-3.5874,-3.5707,-4.5594,-4.5594,-4.5594,-4.5594,-4.5594,-4.5594,-4.5594,-4.5594,-4.5594,-4.5594,-4.5594,-4.5594,-4.5594,-4.5594,-4.5594,-4.5594,-4.5594,-4.5594,-4.5594,-4.5594,-4.5594,-4.5594,-4.5594,-4.5594,-4.5594,-4.5594,-4.5594,-4.5594,-4.5594,-4.5594,-4.5594,-4.5594,-4.5594,-4.5594,-4.5594,-4.5594,-4.5594,-4.5594,-4.5594,-4.5594,-4.5594,-4.5594,-4.5594,-4.5594,-4.5594,-4.5594,-4.5594,-4.4767,-4.3585,-4.322,-4.22,-4.1027,-4.0631,-4.0496,-4.0496,-4.0496,-4.0496,-4.0496,-4.0496,-4.0496,-4.0496,-4.0496,-4.0496,-4.04,-3.9958,-3.9554,-3.9034,-3.8084,-3.7257,-3.6577,-3.6135,-3.575,-3.55,-3.55,-3.55,-3.55,-3.55,-3.55,-3.55,-3.55,-3.55,-3.5502,-3.5558,-3.5588,-3.5059,-3.3744,-3.4102,-3.4248,-3.3917,-3.4308,-3.4996,-3.5976,-3.5996,-3.5996,-3.5996,-3.5996,-3.5996,-3.5996,-3.5996,-3.5996,-3.5996,-3.5996,-3.5996,-3.5996,-3.5996,-3.5996,-3.5996,-3.5996,-3.5996,-3.5996,-3.5996,-3.5996,-3.5996,-3.5972,-3.5857,-3.57,-4.5594,-4.5594,-4.5594,-4.5594,-4.5594,-4.5594,-4.5594,-4.5594,-4.5594,-4.5594,-4.5594,-4.5594,-4.5594,-4.5594,-4.5594,-4.5594,-4.5594,-4.5594,-4.5594,-4.5594,-4.5594,-4.5594,-4.5594,-4.5594,-4.5594,-4.5594,-4.5594,-4.5594,-4.5594,-4.5594,-4.5594,-4.5594,-4.5594,-4.5594,-4.5594,-4.5594,-4.5594,-4.5594,-4.5594,-4.5594,-4.5594,-4.5594,-4.5594,-4.5594,-4.5594,-4.5594,-4.5594,-4.5037,-4.4201,-4.3508,-4.2624,-4.1681,-4.0931,-4.0612,-4.0496,-4.0496,-4.0496,-4.0496,-4.0496,-4.0496,-4.0496,-4.0496,-4.0496,-4.0496,-4.0496,-3.9977,-3.9457,-3.9323,-3.8123,-3.7038,-3.6923,-3.6231,-3.5596,-3.5346,-3.5404,-3.5404,-3.5135,-3.5327,-3.55,-3.55,-3.55,-3.55,-3.55,-3.5558,-3.5585,-3.5605,-3.565,-3.5743,-3.5869,-3.5898,-3.5938,-3.5975,-3.5996,-3.5996,-3.5996,-3.5996,-3.5996,-3.5996,-3.5996,-3.5996,-3.5996,-3.5996,-3.5996,-3.5996,-3.5996,-3.5996,-3.5996,-3.5996,-3.5996,-3.5996,-3.5996,-3.5996,-3.5996,-3.5942,-3.5817,-3.5693,-4.5594,-4.5594,-4.5594,-4.5594,-4.5594,-4.5594,-4.5594,-4.5594,-4.5594,-4.5594,-4.5594,-4.5594,-4.5594,-4.5594,-4.5594,-4.5594,-4.5594,-4.5594,-4.5594,-4.5594,-4.5594,-4.5594,-4.5594,-4.5594,-4.5594,-4.5594,-4.5594,-4.5594,-4.5594,-4.5594,-4.5594,-4.5594,-4.5594,-4.5594,-4.5594,-4.5594,-4.5594,-4.5594,-4.5594,-4.5594,-4.5594,-4.5594,-4.5594,-4.5594,-4.5594,-4.5594,-4.5594,-4.5037,-4.4278,-4.4162,-4.3085,-4.1769,-4.1643,-4.1085,-4.0496,-4.0496,-4.0496,-4.0496,-4.0496,-4.0496,-4.0496,-4.0496,-4.0496,-4.0496,-4.0496,-4.04,-4.0131,-3.9438,-3.9092,-3.8661,-3.793,-3.7084,-3.6045,-3.4622,-3.5026,-3.4981,-3.3506,-3.4577,-3.55,-3.55,-3.55,-3.55,-3.55,-3.5508,-3.5547,-3.56,-3.5611,-3.5657,-3.572,-3.5838,-3.5905,-3.5911,-3.5973,-3.5996,-3.5996,-3.5996,-3.5996,-3.5996,-3.5996,-3.5996,-3.5996,-3.5996,-3.5996,-3.5996,-3.5996,-3.5996,-3.5996,-3.5996,-3.5996,-3.5996,-3.5996,-3.5996,-3.5996,-3.5995,-3.5869,-3.5703,-4.5594,-4.5594,-4.5594,-4.5594,-4.5594,-4.5594,-4.5594,-4.5594,-4.5594,-4.5594,-4.5594,-4.5594,-4.5594,-4.5594,-4.5594,-4.5594,-4.5594,-4.5594,-4.5594,-4.5594,-4.5594,-4.5594,-4.5594,-4.5594,-4.5594,-4.5594,-4.5594,-4.5594,-4.5594,-4.5594,-4.5594,-4.5594,-4.5594,-4.5594,-4.5594,-4.5594,-4.5594,-4.5594,-4.5594,-4.5594,-4.5594,-4.5594,-4.5594,-4.5594,-4.5594,-4.5594,-4.5594,-4.5344,-4.494,-4.4451,-4.3508,-4.2431,-4.1942,-4.12,-4.0496,-4.0496,-4.0496,-4.0496,-4.0496,-4.0496,-4.0496,-4.0496,-4.0496,-4.0496,-4.0496,-4.0496,-4.04,-4.0015,-3.9611,-3.9188,-3.8757,-3.7603,-3.6442,-3.568,-3.5519,-3.5212,-3.4404,-3.4981,-3.55,-3.55,-3.55,-3.55,-3.55,-3.55,-3.5515,-3.554,-3.5546,-3.5577,-3.5633,-3.5706,-3.5794,-3.59,-3.5972,-3.5996,-3.5996,-3.5996,-3.5996,-3.5996,-3.5996,-3.5996,-3.5996,-3.5996,-3.5996,-3.5996,-3.5996,-3.5996,-3.5996,-3.5996,-3.5996,-3.5996,-3.5996,-3.5996,-3.5996,-3.5951,-3.5887,-3.5794,-4.5594,-4.5594,-4.5594,-4.5594,-4.5594,-4.5594,-4.5594,-4.5594,-4.5594,-4.5594,-4.5594,-4.5594,-4.5594,-4.5594,-4.5594,-4.5594,-4.5594,-4.5594,-4.5594,-4.5594,-4.5594,-4.5594,-4.5594,-4.5594,-4.5594,-4.5594,-4.5594,-4.5594,-4.5594,-4.5594,-4.5594,-4.5594,-4.5594,-4.5594,-4.5594,-4.5594,-4.5594,-4.5594,-4.5594,-4.5594,-4.5594,-4.5594,-4.5594,-4.5594,-4.5594,-4.5594,-4.5594,-4.5594,-4.5498,-4.4816,-4.3932,-4.2989,-4.2316,-4.1354,-4.0496,-4.0496,-4.0496,-4.0496,-4.0496,-4.0496,-4.0496,-4.0496,-4.0496,-4.0496,-4.0496,-4.0496,-4.0496,-4.0496,-4.0015,-3.9573,-3.9573,-3.8161,-3.6865,-3.6481,-3.5904,-3.5365,-3.4942,-3.5231,-3.55,-3.55,-3.55,-3.55,-3.55,-3.55,-3.55,-3.55,-3.55,-3.5522,-3.5571,-3.559,-3.5682,-3.5898,-3.5972,-3.5996,-3.5996,-3.5996,-3.5996,-3.5996,-3.5996,-3.5996,-3.5996,-3.5996,-3.5996,-3.5996,-3.5996,-3.5996,-3.5996,-3.5996,-3.5996,-3.5996,-3.5996,-3.5996,-3.5996,-3.5945,-3.5911,-3.5869,-4.5594,-4.5594,-4.5594,-4.5594,-4.5594,-4.5594,-4.5594,-4.5594,-4.5594,-4.5594,-4.5594,-4.5594,-4.5594,-4.5594,-4.5594,-4.5594,-4.5594,-4.5594,-4.5594,-4.5594,-4.5594,-4.5594,-4.5594,-4.5594,-4.5594,-4.5594,-4.5594,-4.5594,-4.5594,-4.5594,-4.5594,-4.5594,-4.5594,-4.5594,-4.5594,-4.5594,-4.5594,-4.5594,-4.5594,-4.5594,-4.5594,-4.5594,-4.5594,-4.5594,-4.5594,-4.5594,-4.5594,-4.5594,-4.5594,-4.5537,-4.4432,-4.3085,-4.3028,-4.1854,-4.0496,-4.0496,-4.0496,-4.0496,-4.0496,-4.0496,-4.0496,-4.0496,-4.0496,-4.0496,-4.0496,-4.0496,-4.0496,-4.0496,-4.0458,-4.0419,-4.0419,-3.9046,-3.7411,-3.5846,-3.5538,-3.4942,-3.3314,-3.4481,-3.55,-3.55,-3.55,-3.55,-3.55,-3.55,-3.55,-3.55,-3.55,-3.5507,-3.5501,-3.5574,-3.5682,-3.5898,-3.5972,-3.5996,-3.5996,-3.5996,-3.5996,-3.5996,-3.5996,-3.5996,-3.5996,-3.5996,-3.5996,-3.5996,-3.5996,-3.5996,-3.5996,-3.5996,-3.5996,-3.5996,-3.5996,-3.5996,-3.5996,-3.5996,-3.5949,-3.5875,-4.5594,-4.5594,-4.5594,-4.5594,-4.5594,-4.5594,-4.5594,-4.5594,-4.5594,-4.5594,-4.5594,-4.5594,-4.5594,-4.5594,-4.5594,-4.5594,-4.5594,-4.5594,-4.5594,-4.5594,-4.5594,-4.5594,-4.5594,-4.5594,-4.5594,-4.5594,-4.5594,-4.5594,-4.5594,-4.5594,-4.5594,-4.5594,-4.5594,-4.5594,-4.5594,-4.5594,-4.5594,-4.5594,-4.5594,-4.5594,-4.5594,-4.5594,-4.5594,-4.5594,-4.5594,-4.5594,-4.5594,-4.5594,-4.5594,-4.5594,-4.4825,-4.3758,-4.3258,-4.2277,-4.12,-4.0669,-4.0496,-4.0496,-4.0496,-4.0496,-4.0496,-4.0496,-4.0496,-4.0496,-4.0496,-4.0496,-4.0496,-4.0496,-4.0496,-4.0496,-4.0496,-3.9573,-3.8411,-3.7238,-3.6596,-3.5846,-3.4673,-3.5077,-3.55,-3.55,-3.55,-3.55,-3.55,-3.55,-3.55,-3.55,-3.55,-3.55,-3.55,-3.5568,-3.5636,-3.5702,-3.5775,-3.5875,-3.5996,-3.5996,-3.5996,-3.5996,-3.5996,-3.5996,-3.5996,-3.5996,-3.5996,-3.5996,-3.5996,-3.5996,-3.5996,-3.5996,-3.5996,-3.5996,-3.5996,-3.5974,-3.5944,-3.5944,-3.5861,-3.5758,-4.5594,-4.5594,-4.5594,-4.5594,-4.5594,-4.5594,-4.5594,-4.5594,-4.5594,-4.5594,-4.5594,-4.5594,-4.5594,-4.5594,-4.5594,-4.5594,-4.5594,-4.5594,-4.5594,-4.5594,-4.5594,-4.5594,-4.5594,-4.5594,-4.5594,-4.5594,-4.5594,-4.5594,-4.5594,-4.5594,-4.5594,-4.5594,-4.5594,-4.5594,-4.5594,-4.5594,-4.5594,-4.5594,-4.5594,-4.5594,-4.5594,-4.5594,-4.5594,-4.5594,-4.5594,-4.5594,-4.5594,-4.5594,-4.5594,-4.5594,-4.4863,-4.3835,-4.3278,-4.2316,-4.1277,-4.0689,-4.0496,-4.0496,-4.0496,-4.0496,-4.0496,-4.0496,-4.0496,-4.0496,-4.0496,-4.0496,-4.0496,-4.0496,-4.0496,-4.0496,-4.0496,-3.9842,-3.9111,-3.8507,-3.745,-3.65,-3.5942,-3.5654,-3.55,-3.55,-3.55,-3.55,-3.55,-3.55,-3.55,-3.55,-3.55,-3.55,-3.55,-3.554,-3.5582,-3.5605,-3.5638,-3.5732,-3.5905,-3.5951,-3.5975,-3.5996,-3.5996,-3.5996,-3.5996,-3.5996,-3.5996,-3.5996,-3.5996,-3.5996,-3.5996,-3.5996,-3.5996,-3.5996,-3.5996,-3.5974,-3.5921,-3.5921,-3.5855,-3.5752,-4.5594,-4.5594,-4.5594,-4.5594,-4.5594,-4.5594,-4.5594,-4.5594,-4.5594,-4.5594,-4.5594,-4.5594,-4.5594,-4.5594,-4.5594,-4.5594,-4.5594,-4.5594,-4.5594,-4.5594,-4.5594,-4.5594,-4.5594,-4.5594,-4.5594,-4.5594,-4.5594,-4.5594,-4.5594,-4.5594,-4.5594,-4.5594,-4.5594,-4.5594,-4.5594,-4.5594,-4.5594,-4.5594,-4.5594,-4.5594,-4.5594,-4.5594,-4.5594,-4.5594,-4.5594,-4.5594,-4.5594,-4.5594,-4.5594,-4.5594,-4.447,-4.3104,-4.3085,-4.1893,-4.0496,-4.0496,-4.0496,-4.0496,-4.0496,-4.0496,-4.0496,-4.0496,-4.0496,-4.0496,-4.0496,-4.0496,-4.0496,-4.0496,-4.0496,-4.0496,-4.0496,-3.9842,-3.9304,-3.9304,-3.7834,-3.6712,-3.6692,-3.6,-3.55,-3.55,-3.55,-3.55,-3.55,-3.55,-3.55,-3.55,-3.55,-3.55,-3.55,-3.55,-3.5522,-3.5605,-3.5605,-3.5635,-3.5703,-3.5836,-3.5922,-3.5996,-3.5996,-3.5996,-3.5996,-3.5996,-3.5996,-3.5996,-3.5996,-3.5996,-3.5996,-3.5996,-3.5996,-3.5996,-3.5996,-3.5996,-3.5996,-3.5996,-3.595,-3.5875,-4.5594,-4.5594,-4.5594,-4.5594,-4.5594,-4.5594,-4.5594,-4.5594,-4.5594,-4.5594,-4.5594,-4.5594,-4.5594,-4.5594,-4.5594,-4.5594,-4.5594,-4.5594,-4.5594,-4.5594,-4.5594,-4.5594,-4.5594,-4.5594,-4.5594,-4.5594,-4.5594,-4.5594,-4.5594,-4.5594,-4.5594,-4.5594,-4.5594,-4.5594,-4.5594,-4.5594,-4.5594,-4.5594,-4.5594,-4.5594,-4.5594,-4.5594,-4.5594,-4.5594,-4.5594,-4.5594,-4.5594,-4.5594,-4.5518,-4.4893,-4.4355,-4.3739,-4.2566,-4.1412,-4.0496,-4.0496,-4.0496,-4.0496,-4.0496,-4.0496,-4.0496,-4.0496,-4.0496,-4.0496,-4.0496,-4.0496,-4.0496,-4.0496,-4.0496,-4.0496,-4.0496,-4.0304,-3.9958,-3.94,-3.8354,-3.7411,-3.6788,-3.6,-3.55,-3.55,-3.55,-3.55,-3.55,-3.55,-3.55,-3.55,-3.55,-3.55,-3.55,-3.55,-3.5508,-3.5522,-3.5522,-3.5562,-3.563,-3.5814,-3.5908,-3.594,-3.5975,-3.5996,-3.5996,-3.5996,-3.5996,-3.5996,-3.5996,-3.5996,-3.5996,-3.5996,-3.5996,-3.5996,-3.5996,-3.5973,-3.5939,-3.5939,-3.5829,-3.5674,-4.5594,-4.5594,-4.5594,-4.5594,-4.5594,-4.5594,-4.5594,-4.5594,-4.5594,-4.5594,-4.5594,-4.5594,-4.5594,-4.5594,-4.5594,-4.5594,-4.5594,-4.5594,-4.5594,-4.5594,-4.5594,-4.5594,-4.5594,-4.5594,-4.5594,-4.5594,-4.5594,-4.5594,-4.5594,-4.5594,-4.5594,-4.5594,-4.5594,-4.5594,-4.5594,-4.5594,-4.5594,-4.5594,-4.5594,-4.5594,-4.5594,-4.5594,-4.5594,-4.5594,-4.5594,-4.5594,-4.5594,-4.5594,-4.5518,-4.4998,-4.4374,-4.3528,-4.1816,-4.0912,-4.0496,-4.0496,-4.0496,-4.0496,-4.0496,-4.0496,-4.0496,-4.0496,-4.0496,-4.0496,-4.0496,-4.0496,-4.0496,-4.0496,-4.0496,-4.0496,-4.0496,-4.0496,-4.0342,-3.9842,-3.8777,-3.7815,-3.7296,-3.6212,-3.55,-3.55,-3.55,-3.55,-3.55,-3.55,-3.55,-3.55,-3.55,-3.55,-3.55,-3.55,-3.55,-3.55,-3.55,-3.5515,-3.5556,-3.571,-3.5783,-3.5812,-3.5866,-3.5903,-3.5951,-3.5951,-3.5951,-3.5951,-3.5951,-3.5927,-3.5878,-3.5878,-3.5878,-3.5878,-3.5878,-3.5862,-3.5812,-3.5812,-3.5732,-3.5611,-4.5594,-4.5594,-4.5594,-4.5594,-4.5594,-4.5594,-4.5594,-4.5594,-4.5594,-4.5594,-4.5594,-4.5594,-4.5594,-4.5594,-4.5594,-4.5594,-4.5594,-4.5594,-4.5594,-4.5594,-4.5594,-4.5594,-4.5594,-4.5594,-4.5594,-4.5594,-4.5594,-4.5594,-4.5594,-4.5594,-4.5594,-4.5594,-4.5594,-4.5594,-4.5594,-4.5594,-4.5594,-4.5594,-4.5594,-4.5594,-4.5594,-4.5594,-4.5594,-4.5594,-4.5594,-4.5594,-4.5594,-4.5594,-4.5575,-4.5441,-4.4316,-4.2681,-4.1035,-4.0496,-4.0496,-4.0496,-4.0496,-4.0496,-4.0496,-4.0496,-4.0496,-4.0496,-4.0496,-4.0496,-4.0496,-4.0496,-4.0496,-4.0496,-4.0496,-4.0496,-4.0496,-4.0496,-4.0496,-4.0496,-3.9161,-3.8084,-3.8007,-3.6615,-3.5577,-3.5519,-3.55,-3.55,-3.55,-3.55,-3.55,-3.55,-3.55,-3.55,-3.55,-3.55,-3.55,-3.55,-3.55,-3.55,-3.55,-3.5562,-3.5621,-3.5693,-3.57,-3.5764,-3.5877,-3.5877,-3.5877,-3.5877,-3.5877,-3.5807,-3.5707,-3.5707,-3.5707,-3.5687,-3.5629,-3.5648,-3.5687,-3.5629,-3.56,-3.5586,-4.5594,-4.5594,-4.5594,-4.5594,-4.5594,-4.5594,-4.5594,-4.5594,-4.5594,-4.5594,-4.5594,-4.5594,-4.5594,-4.5594,-4.5594,-4.5594,-4.5594,-4.5594,-4.5594,-4.5594,-4.5594,-4.5594,-4.5594,-4.5594,-4.5594,-4.5594,-4.5594,-4.5594,-4.5594,-4.5594,-4.5594,-4.5594,-4.5594,-4.5594,-4.5594,-4.5594,-4.5594,-4.5594,-4.5594,-4.5594,-4.5594,-4.5594,-4.5594,-4.5594,-4.5594,-4.5594,-4.5594,-4.5594,-4.5402,-4.4085,-4.2951,-4.1912,-4.0843,-4.0496,-4.0496,-4.0496,-4.0496,-4.0496,-4.0496,-4.0496,-4.0496,-4.0496,-4.0496,-4.0496,-4.0496,-4.0496,-4.0496,-4.0496,-4.0496,-4.0496,-4.0496,-4.0496,-4.0496,-4.0496,-3.9669,-3.8777,-3.8104,-3.7103,-3.6212,-3.5577,-3.55,-3.55,-3.55,-3.55,-3.55,-3.55,-3.55,-3.55,-3.55,-3.55,-3.55,-3.55,-3.55,-3.55,-3.55,-3.5502,-3.5564,-3.5616,-3.5667,-3.5717,-3.5732,-3.5732,-3.5732,-3.5732,-3.5732,-3.5723,-3.5707,-3.5707,-3.5707,-3.5648,-3.501,-3.5146,-3.5629,-3.499,-3.5119,-3.5402,-4.6721,-4.6152,-4.5845,-4.6644,-4.6471,-4.622,-4.622,-4.622,-4.6067,-4.5652,-4.5594,-4.5594,-4.5594,-4.5594,-4.5594,-4.5594,-4.5594,-4.5594,-4.5594,-4.5594,-4.5594,-4.5594,-4.5594,-4.5594,-4.5594,-4.5594,-4.5594,-4.5594,-4.5594,-4.5594,-4.5594,-4.5594,-4.5594,-4.5594,-4.5594,-4.5594,-4.5594,-4.5594,-4.5594,-4.5594,-4.5594,-4.5594,-4.5594,-4.5594,-4.5594,-4.5594,-4.5594,-4.5594,-4.5344,-4.3662,-4.2797,-4.22,-4.092,-4.0496,-4.0496,-4.0496,-4.0496,-4.0496,-4.0496,-4.0496,-4.0496,-4.0496,-4.0496,-4.0496,-4.0496,-4.0496,-4.0496,-4.0496,-4.0496,-4.0496,-4.0496,-4.0496,-4.0496,-4.0496,-3.9823,-3.8996,-3.8123,-3.7257,-3.6404,-3.5596,-3.55,-3.55,-3.55,-3.55,-3.55,-3.55,-3.55,-3.55,-3.55,-3.55,-3.55,-3.55,-3.55,-3.55,-3.55,-3.55,-3.5528,-3.5538,-3.5585,-3.5611,-3.565,-3.565,-3.565,-3.565,-3.565,-3.5639,-3.5563,-3.5161,-3.4986,-3.489,-3.4061,-3.4016,-3.4361,-3.3905,-3.3973,-3.4124,-4.7971,-4.6971,-4.6471,-4.7855,-4.7548,-4.7096,-4.7096,-4.6981,-4.6644,-4.5913,-4.5691,-4.5594,-4.5594,-4.5594,-4.5594,-4.5594,-4.5594,-4.5594,-4.5594,-4.5594,-4.5594,-4.5594,-4.5594,-4.5594,-4.5594,-4.5594,-4.5594,-4.5594,-4.5594,-4.5594,-4.5594,-4.5594,-4.5594,-4.5594,-4.5594,-4.5594,-4.5594,-4.5594,-4.5594,-4.5594,-4.5594,-4.5594,-4.5594,-4.5594,-4.5594,-4.5594,-4.5594,-4.5594,-4.5364,-4.3816,-4.3201,-4.2816,-4.1219,-4.0631,-4.0496,-4.0496,-4.0496,-4.0496,-4.0496,-4.0496,-4.0496,-4.0496,-4.0496,-4.0496,-4.0496,-4.0496,-4.0496,-4.0496,-4.0496,-4.0496,-4.0496,-4.0496,-4.0496,-4.0496,-3.9938,-3.915,-3.8142,-3.7373,-3.6577,-3.5615,-3.55,-3.55,-3.55,-3.55,-3.55,-3.55,-3.55,-3.55,-3.55,-3.55,-3.55,-3.55,-3.55,-3.55,-3.55,-3.55,-3.55,-3.55,-3.55,-3.5522,-3.5574,-3.5574,-3.5574,-3.5574,-3.5574,-3.5461,-3.5212,-3.4507,-3.4109,-3.3898,-3.3026,-3.2827,-3.2982,-3.2931,-3.2928,-3.2793,-4.8086,-4.7913,-4.7836,-4.8067,-4.8009,-4.7952,-4.7952,-4.7355,-4.6846,-4.674,-4.6067,-4.5594,-4.5594,-4.5594,-4.5594,-4.5594,-4.5594,-4.5594,-4.5594,-4.5594,-4.5594,-4.5594,-4.5594,-4.5594,-4.5594,-4.5594,-4.5594,-4.5594,-4.5594,-4.5594,-4.5594,-4.5594,-4.5594,-4.5594,-4.5594,-4.5594,-4.5594,-4.5594,-4.5594,-4.5594,-4.5594,-4.5594,-4.5594,-4.5594,-4.5594,-4.5594,-4.5594,-4.5594,-4.546,-4.447,-4.3682,-4.2931,-4.195,-4.1104,-4.0496,-4.0496,-4.0496,-4.0496,-4.0496,-4.0496,-4.0496,-4.0496,-4.0496,-4.0496,-4.0496,-4.0496,-4.0496,-4.0496,-4.0496,-4.0496,-4.0496,-4.0496,-4.0496,-4.0496,-4.0419,-3.9785,-3.8219,-3.7892,-3.7257,-3.5692,-3.55,-3.55,-3.55,-3.55,-3.55,-3.55,-3.55,-3.55,-3.55,-3.55,-3.55,-3.55,-3.55,-3.55,-3.55,-3.55,-3.55,-3.55,-3.55,-3.5494,-3.5515,-3.5515,-3.5515,-3.5515,-3.5515,-3.5085,-3.4379,-3.4244,-3.3763,-3.2987,-3.2179,-3.2326,-3.2992,-3.2996,-3.2991,-3.2859,-4.9452,-4.8779,-4.8413,-4.9375,-4.9144,-4.8836,-4.8836,-4.8529,-4.7971,-4.7019,-4.6567,-4.6144,-4.5652,-4.5594,-4.5594,-4.5594,-4.5594,-4.5594,-4.5594,-4.5594,-4.5594,-4.5594,-4.5594,-4.5594,-4.5594,-4.5594,-4.5594,-4.5594,-4.5594,-4.5594,-4.5594,-4.5594,-4.5594,-4.5594,-4.5594,-4.5594,-4.5594,-4.5594,-4.5594,-4.5594,-4.5594,-4.5594,-4.5594,-4.5594,-4.5594,-4.5594,-4.5594,-4.5594,-4.5479,-4.4586,-4.3778,-4.2951,-4.2058,-4.12,-4.0496,-4.0496,-4.0496,-4.0496,-4.0496,-4.0496,-4.0496,-4.0496,-4.0496,-4.0496,-4.0496,-4.0496,-4.0496,-4.0496,-4.0496,-4.0496,-4.0496,-4.0496,-4.0496,-4.0496,-4.0496,-3.9919,-3.8238,-3.8007,-3.7373,-3.5692,-3.55,-3.55,-3.55,-3.55,-3.55,-3.55,-3.55,-3.55,-3.55,-3.55,-3.55,-3.55,-3.55,-3.55,-3.55,-3.55,-3.55,-3.55,-3.55,-3.55,-3.55,-3.55,-3.55,-3.55,-3.55,-3.5007,-3.4167,-3.366,-3.2987,-3.216,-3.1288,-3.1214,-3.1551,-3.1589,-3.1589,-3.1491]},{"header":{"parameterUnit":"m.s-1","parameterCategory":1,"la1":30.6,"la2":28.766,"lo1":-90.7593,"lo2":-88.6598,"dx":0.0162,"dy":0.0183,"nx":116,"ny":114,"refTime":"2022-12-03T18:00:00:Z","depth":0,"parameterNumber":3,"parameterNumberName":"V-component_of_WINDS"},"data":[0.0,0.0,0.0,0.0,0.0,0.0,0.0,0.0,0.0,0.0,0.0,0.0,0.0,0.0,0.0,0.0,0.0,0.0,0.0,0.0,0.0,0.0,0.0,0.0,0.0,0.0,0.0,0.0,0.0,0.0,0.0,0.0,0.0,0.0,0.0,0.0,0.0,0.0,0.0,0.0,0.0,0.0,0.0,0.0,0.0,0.0,0.0,0.0,0.0,0.0,0.0,0.0,0.0,0.0,0.0,0.0,0.0,0.0,0.0,0.0,0.0,0.0,0.0,0.0,0.0,0.0,0.0,0.0,0.0,0.0,0.0,0.0,0.0,0.0,0.0,0.0,0.0,0.0,0.0,0.0,0.0,0.0,0.0,0.0,0.0,0.0,0.0,0.0,0.0,0.0,0.0,0.0,0.0,0.0,0.0,0.0,0.0,0.0,0.0,0.0,0.0,0.0,0.0,0.0,0.0,0.0,0.0,0.0,0.0,0.0,0.0,0.0,0.0,0.0,0.0,0.0,0.0,0.0,0.0,0.0,0.0,0.0,0.0,0.0,0.0,0.0,0.0,0.0,0.0,0.0,0.0,0.0,0.0,0.0,0.0,0.0,0.0,0.0,0.0,0.0,0.0,0.0,0.0,0.0,0.0,0.0,0.0,0.0,0.0,0.0,0.0,0.0,0.0,0.0,0.0,0.0,0.0,0.0,0.0,0.0,0.0,0.0,0.0,0.0,0.0,0.0,0.0,0.0,0.0,0.0,0.0,0.0,0.0,0.0,0.0,0.0,0.0,0.0,0.0,0.0,0.0,0.0,0.0,0.0,0.0,0.0,0.0,0.0,0.0,0.0,0.0,0.0,0.0,0.0,0.0,0.0,0.0,0.0,0.0,0.0,0.0,0.0,0.0,0.0,0.0,0.0,0.0,0.0,0.0,0.0,0.0,0.0,0.0,0.0,0.0,0.0,0.0,0.0,0.0,0.0,0.0,0.0,0.0,0.0,0.0,0.0,0.0,0.0,0.0,0.0,0.0,0.0,0.0,0.0,0.0,0.0,0.0,0.0,0.0,0.0,0.0,0.0,0.0,0.0,0.0,0.0,0.0,0.0,0.0,0.0,0.0,0.0,0.0,0.0,0.0,0.0,0.0,0.0,0.0,0.0,0.0,0.0,0.0,0.0,0.0,0.0,0.0,0.0,0.0,0.0,0.0,0.0,0.0,0.0,0.0,0.0,0.0,0.0,0.0,0.0,0.0,0.0,0.0,0.0,0.0,0.0,0.0,0.0,0.0,0.0,0.0,0.0,0.0,0.0,0.0,0.0,0.0,0.0,0.0,0.0,0.0,0.0,0.0,0.0,0.0,0.0,0.0,0.0,0.0,0.0,0.0,0.0,0.0,0.0,0.0,0.0,0.0,0.0,0.0,0.0,0.0,0.0,0.0,0.0,0.0,0.0,0.0,0.0,0.0,0.0,0.0,0.0,0.0,0.0,0.0,0.0,0.0,0.0,0.0,0.0,0.0,0.0,0.0,0.0,0.0,0.0,0.0,0.0,0.0,0.0,0.0,0.0,0.0,0.0,0.0,0.0,0.0,0.0,0.0,0.0,0.0,0.0,0.0,0.0,0.0,0.0,0.0,0.0,0.0,0.0,0.0,0.0,0.0,0.0,0.0,0.0,0.0,0.0,0.0,0.0,0.0,0.0,0.0,0.0,0.0,0.0,0.0,0.0,0.0,0.0,0.0,0.0,0.0,0.0,0.0,0.0,0.0,0.0,0.0,0.0,0.0,0.0,0.0,0.0,0.0,0.0,0.0,0.0,0.0,0.0,0.0,0.0,0.0,0.0,0.0,0.0,0.0,0.0,0.0,0.0,0.0,0.0,0.0,0.0,0.0,0.0,0.0,0.0,0.0,0.0,0.0,0.0,0.0,0.0,0.0,0.0,0.0,0.0,0.0,0.0,0.0,0.0,0.0,0.0,0.0,0.0,0.0,0.0,0.0,0.0,0.0,0.0,0.0,0.0,0.0,0.0,0.0,0.0,0.0,0.0,0.0,0.0,0.0,0.0,0.0,0.0,0.0,0.0,0.0,0.0,0.0,0.0,0.0,0.0,0.0,0.0,0.0,0.0,0.0,0.0,0.0,0.0,0.0,0.0,0.0,0.0,0.0,0.0,0.0,0.0,0.0,0.0,0.0,0.0,0.0,0.0,0.0,0.0,0.0,0.0,0.0,0.0,0.0,0.0,0.0,0.0,0.0,0.0,0.0,0.0,0.0,0.0,0.0,0.0,0.0,0.0,0.0,0.0,0.0,0.0,0.0,0.0,0.0,0.0,0.0,0.0,0.0,0.0,0.0,0.0,0.0,0.0,0.0,0.0,0.0,0.0,0.0,0.0,0.0,0.0,0.0,0.0,0.0,0.0,0.0,0.0,0.0,0.0,0.0,0.0,0.0,0.0,0.0,0.0,0.0,0.0,0.0,0.0,0.0,0.0,0.0,0.0,0.0,0.0,0.0,0.0,0.0,0.0,0.0,0.0,0.0,0.0,0.0,0.0,0.0,0.0,0.0,0.0,0.0,0.0,0.0,0.0,0.0,0.0,0.0,0.0,0.0,0.0,0.0,0.0,0.0,0.0,0.0,0.0,0.0,0.0,0.0,0.0,0.0,0.0,0.0,0.0,0.0,0.0,0.0,0.0,0.0,0.0,0.0,0.0,0.0,0.0,0.0,0.0,0.0,0.0,0.0,0.0,0.0,0.0,0.0,0.0,0.0,0.0,0.0,0.0,0.0,0.0,0.0,0.0,0.0,0.0,0.0,0.0,0.0,0.0,0.0,0.0,0.0,0.0,0.0,0.0,0.0,0.0,0.0,0.0,0.0,0.0,0.0,0.0,0.0,0.0,0.0,0.0,0.0,0.0,0.0,0.0,0.0,0.0,0.0,0.0,0.0,0.0,0.0,0.0,0.0,0.0,0.0,0.0,0.0,0.0,0.0,0.0,0.0,0.0,0.0,0.0,0.0,0.0,0.0,0.0,0.0,0.0,0.0,0.0,0.0,0.0,0.0,0.0,0.0,0.0,0.0,0.0,0.0,0.0,0.0,0.0,0.0,0.0,0.0,0.0,0.0,0.0,0.0,0.0,0.0,0.0,0.0,0.0,0.0,0.0,0.0,0.0,0.0,0.0,0.0,0.0,0.0,0.0,0.0,0.0,0.0,0.0,0.0,0.0,0.0,0.0,0.0,0.0,0.0,0.0,0.0,0.0,0.0,0.0,0.0,0.0,0.0,0.0,0.0,0.0,0.0,0.0,0.0,0.0,0.0,0.0,0.0,0.0,0.0,0.0,0.0,0.0,0.0,0.0,0.0,0.0,0.0,0.0,0.0,0.0,0.0,0.0,0.0,0.0,0.0,0.0,0.0,0.0,0.0,0.0,0.0,0.0,0.0,0.0,0.0,0.0,0.0,0.0,0.0,0.0,0.0,0.0,0.0,0.0,0.0,0.0,0.0,0.0,0.0,0.0,0.0,0.0,0.0,0.0,0.0,0.0,0.0,0.0,0.0,0.0,0.0,0.0,0.0,0.0,0.0,0.0,0.0,0.0,0.0,0.0,0.0,0.0,0.0,0.0,0.0,0.0,0.0,0.0,0.0,0.0,0.0,0.0,0.0,0.0,0.0,0.0,0.0,0.0,0.0,0.0,0.0,0.0,0.0,0.0,0.0,0.0,0.0,0.0,0.0,0.0,0.0,0.0,0.0,0.0,0.0,0.0,0.0,0.0,0.0,0.0,0.0,0.0,0.0,0.0,0.0,0.0,0.0,0.0,0.0,0.0,0.0,0.0,0.0,0.0,0.0,0.0,0.0,0.0,0.0,0.0,0.0,0.0,0.0,0.0,0.0,0.0,0.0,0.0,0.0,0.0,0.0,0.0,0.0,0.0,0.0,0.0,0.0,0.0,0.0,0.0,0.0,0.0,0.0,0.0,0.0,0.0,0.0,0.0,0.0,0.0,0.0,0.0,0.0,0.0,0.0,0.0,0.0,0.0,0.0,0.0,0.0,0.0,0.0,0.0,0.0,0.0,0.0,0.0,0.0,0.0,0.0,0.0,0.0,0.0,0.0,0.0,0.0,0.0,0.0,0.0,0.0,0.0,0.0,0.0,0.0,0.0,0.0,0.0,0.0,0.0,0.0,0.0,0.0,0.0,0.0,0.0,0.0,0.0,0.0,0.0,0.0,0.0,0.0,0.0,0.0,0.0,0.0,0.0,0.0,0.0,0.0,0.0,0.0,0.0,0.0,0.0,0.0,0.0,0.0,0.0,0.0,0.0,0.0,0.0,0.0,0.0,0.0,0.0,0.0,0.0,0.0,0.0,0.0,0.0,0.0,0.0,0.0,0.0,0.0,0.0,0.0,0.0,0.0,0.0,0.0,0.0,0.0,0.0,0.0,0.0,0.0,0.0,0.0,0.0,0.0,0.0,0.0,0.0,0.0,0.0,0.0,0.0,0.0,0.0,0.0,0.0,0.0,0.0,0.0,0.0,0.0,0.0,0.0,0.0,0.0,0.0,0.0,0.0,0.0,0.0,0.0,0.0,0.0,0.0,0.0,0.0,0.0,0.0,0.0,0.0,0.0,0.0,0.0,0.0,0.0,0.0,0.0,0.0,0.0,0.0,0.0,0.0,0.0,0.0,0.0,0.0,0.0,0.0,0.0,0.0,0.0,0.0,0.0,0.0,0.0,0.0,0.0,0.0,0.0,0.0,0.0,0.0,0.0,0.0,0.0,0.0,0.0,0.0,0.0,0.0,0.0,0.0,0.0,0.0,0.0,0.0,0.0,0.0,0.0,0.0,0.0,0.0,0.0,0.0,0.0,0.0,0.0,0.0,0.0,0.0,0.0,0.0,0.0,0.0,0.0,0.0,0.0,0.0,0.0,0.0,0.0,0.0,0.0,0.0,0.0,0.0,0.0,0.0,0.0,0.0,0.0,0.0,0.0,0.0,0.0,0.0,0.0,0.0,0.0,0.0,0.0,0.0,0.0,0.0,0.0,0.0,0.0,0.0,0.0,0.0,0.0,0.0,0.0,0.0,0.0,0.0,0.0,0.0,0.0,0.0,0.0,0.0,0.0,0.0,0.0,0.0,0.0,0.0,0.0,0.0,0.0,0.0,0.0,0.0,0.0,0.0,0.0,0.0,0.0,0.0,0.0,0.0,0.0,0.0,0.0,0.0,0.0,0.0,0.0,0.0,0.0,0.0,0.0,0.0,0.0,0.0,0.0,0.0,0.0,0.0,0.0,0.0,0.0,0.0,0.0,0.0,0.0,0.0,0.0,0.0,0.0,0.0,0.0,0.0,0.0,0.0,0.0,0.0,0.0,0.0,0.0,0.0,0.0,0.0,0.0,0.0,0.0,0.0,0.0,0.0,0.0,0.0,0.0,0.0,0.0,0.0,0.0,0.0,0.0,0.0,0.0,0.0,0.0,0.0,0.0,0.0,0.0,0.0,0.0,0.0,0.0,0.0,0.0,0.0,0.0,0.0,0.0,0.0,0.0,0.0,0.0,0.0,0.0,0.0,0.0,0.0,0.0,0.0,0.0,0.0,0.0,0.0,0.0,0.0,0.0,0.0,0.0,0.0,0.0,0.0,0.0,0.0,0.0,0.0,0.0,0.0,0.0,0.0,0.0,0.0,0.0,0.0,0.0,0.0,0.0,0.0,0.0,0.0,0.0,0.0,0.0,0.0,0.0,0.0,0.0,0.0,0.0,0.0,0.0,0.0,0.0,0.0,0.0,0.0,0.0,0.0,0.0,0.0,0.0,0.0,0.0,0.0,0.0,0.0,0.0,0.0,0.0,0.0,0.0,0.0,0.0,0.0,0.0,0.0,0.0,0.0,0.0,0.0,0.0,0.0,0.0,0.0,0.0,0.0,0.0,0.0,0.0,0.0,0.0,0.0,0.0,0.0,0.0,0.0,0.0,0.0,0.0,0.0,0.0,0.0,0.0,0.0,0.0,0.0,0.0,0.0,0.0,0.0,0.0,0.0,0.0,0.0,0.0,0.0,0.0,0.0,0.0,0.0,0.0,0.0,0.0,0.0,0.0,0.0,0.0,0.0,0.0,0.0,-0.169,-0.198,0.0,0.0,0.0,0.0,0.0,0.0,0.0,0.0,0.0,0.0,0.0,0.0,0.0,0.0,0.0,0.0,0.0,0.0,0.0,0.0,0.0,0.0,0.0,-0.4065,-0.42,-0.447,-0.4304,0.0,0.0,0.0,0.0,0.0,0.0,0.0,0.0,0.0,-0.0611,-0.0945,-0.0625,-0.0479,-0.0478,-0.0859,-0.1353,-0.188,0.0,0.0,0.0,0.0,0.0,0.0,0.0,0.0,0.0,0.0,0.0,0.0,0.0,0.0,0.0,0.0,0.0,0.0,0.0,0.0,0.0,0.0,0.0,0.0,0.0,0.0,0.0,0.0,0.0,0.0,0.0,0.0,0.0,0.0,0.0,0.0,0.0,0.0,0.0,0.0,0.0,0.0,0.0,0.0,0.0,0.0,0.0,0.0,0.0,0.0,0.0,0.0,0.0,0.0,0.0,0.0,0.0,0.0,0.0,0.0,0.0,0.0,0.0,0.0,0.0,0.0,0.0,0.0,0.0,0.0,-0.0804,-0.1121,0.0,0.0,0.0,0.0,0.0,0.0,0.0,0.0,0.0,0.0,0.0,0.0,0.0,0.0,0.0,0.0,0.0,0.0,0.0,0.0,0.0,-0.3849,-0.3977,-0.4018,-0.4168,-0.4467,-0.4355,-0.3941,-0.3182,-0.3003,0.0,0.0,0.0,0.0,0.0,0.0,0.0,0.0,0.0,0.0,0.0,0.0,-0.0538,-0.1457,-0.0971,0.0,0.0,0.0,0.0,0.0,0.0,0.0,0.0,0.0,0.0,0.0,0.0,0.0,0.0,0.0,0.0,0.0,0.0,0.0,0.0,0.0,0.0,0.0,0.0,0.0,0.0,0.0,0.0,0.0,0.0,0.0,0.0,0.0,0.0,0.0,0.0,0.0,0.0,0.0,0.0,0.0,0.0,0.0,0.0,0.0,0.0,0.0,0.0,0.0,0.0,0.0,0.0,0.0,0.0,0.0,0.0,0.0,0.0,0.0,0.0,0.0,0.0,0.0,0.0,0.0,0.0,0.0,0.0,0.0,0.0,-0.0348,-0.093,-0.1037,0.0,0.0,0.0,0.0,0.0,0.0,0.0,0.0,0.0,0.0,0.0,0.0,0.0,0.0,0.0,0.0,0.0,0.0,0.0,-0.3849,-0.3977,-0.4112,-0.4257,-0.4474,-0.447,-0.4118,-0.3329,-0.2675,0.0,0.0,0.0,-0.0075,0.0,0.0,0.0,0.0,0.0,0.0,0.0,0.0,-0.0095,-0.022,-0.0144,-0.0442,-0.1017,0.0,0.0,0.0,0.0,0.0,0.0,0.0,0.0,0.0,0.0,0.0,0.0,0.0,0.0,0.0,0.0,0.0,0.0,0.0,0.0,0.0,0.0,0.0,0.0,0.0,0.0,0.0,0.0,0.0,0.0,0.0,0.0,0.0,0.0,0.0,0.0,0.0,0.0,0.0,0.0,0.0,0.0,0.0,0.0,0.0,0.0,0.0,0.0,0.0,0.0,0.0,0.0,0.0,0.0,0.0,0.0,0.0,0.0,0.0,0.0,0.0,0.0,0.0,0.0,0.0,0.0,0.0,0.0,0.0,-0.0194,-0.0831,0.0,0.0,0.0,0.0,0.0,0.0,0.0,0.0,0.0,0.0,0.0,0.0,0.0,0.0,0.0,0.0,0.0,0.0,0.0,0.0,0.0,-0.4328,-0.4521,-0.4614,-0.423,-0.3655,-0.2907,-0.2062,0.0,0.0,-0.0178,0.0,0.0,0.0,0.0,0.0,0.0,0.0,0.0,0.0,0.0,0.0,0.0,-0.0153,-0.0384,-0.0401,0.0,0.0,0.0,0.0,0.0,0.0,0.0,0.0,0.0,0.0,0.0,0.0,0.0,0.0,0.0,0.0,0.0,0.0,0.0,0.0,0.0,0.0,0.0,0.0,0.0,0.0,0.0,0.0,0.0,0.0,0.0,0.0,0.0,0.0,0.0,0.0,0.0,0.0,0.0,0.0,0.0,0.0,0.0,0.0,0.0,0.0,0.0,0.0,0.0,0.0,0.0,0.0,0.0,0.0,0.0,0.0,0.0,0.0,0.0,0.0,0.0,0.0,0.0,0.0,0.0,0.0,0.0,0.0,-0.0033,-0.0357,-0.0476,-0.0557,0.0,0.0,0.0,0.0,-0.1597,-0.1513,0.0,0.0,0.0,0.0,0.0,0.0,0.0,0.0,0.0,0.0,0.0,0.0,-0.4277,-0.4568,-0.466,-0.4451,-0.3909,-0.3182,-0.2213,-0.1499,-0.0773,-0.0026,0.0,0.0,0.0,0.0,0.0,0.0,0.0,0.0,0.0,0.0,0.0,0.0,0.0,0.0,0.0,0.0,0.0,0.0,0.0,0.0,0.0,0.0,0.0,0.0,0.0,0.0,0.0,0.0,0.0,0.0,0.0,0.0,0.0,0.0,0.0,0.0,0.0,0.0,0.0,0.0,0.0,0.0,0.0,0.0,0.0,0.0,0.0,0.0,0.0,0.0,0.0,0.0,0.0,0.0,0.0,0.0,0.0,0.0,0.0,0.0,0.0,0.0,0.0,0.0,0.0,0.0,0.0,0.0,0.0,0.0,0.0,0.0,0.0,0.0,0.0,0.0,0.0,0.0,0.0,0.0,0.0,0.0,0.0,0.0,0.0,0.0,0.0,-0.0064,-0.0597,-0.0806,-0.0832,-0.0808,-0.081,-0.0751,0.0,0.0,0.0,0.0,0.0,0.0,0.0,0.0,0.0,0.0,0.0,-0.4481,-0.4481,-0.4724,-0.4567,-0.3737,-0.362,-0.2909,-0.1291,-0.1113,-0.0779,-0.0028,0.0,0.0,0.0,0.0,0.0,0.0,0.0,0.0,0.0,0.0,0.0,0.0,0.0,0.0,0.0,0.0,0.0,0.0,0.0,0.0,0.0,0.0,0.0,0.0,0.0,0.0,0.0,0.0,0.0,0.0,0.0,0.0,0.0,0.0,0.0,0.0,0.0,0.0,0.0,0.0,0.0,0.0,0.0,0.0,0.0,0.0,0.0,0.0,0.0,0.0,0.0,0.0,0.0,0.0,0.0,0.0,0.0,0.0,0.0,0.0,0.0,0.0,0.0,0.0,0.0,0.0,0.0,0.0,0.0,0.0,0.0,0.0,0.0,0.0,0.0,0.0,0.0,0.0,0.0,0.0,0.0,0.0,0.0,0.0,0.0,0.0,0.0,0.0,-0.0032,-0.0063,-0.0062,-0.0064,-0.0064,-0.0065,0.0,0.0,0.0,-0.4247,-0.4197,-0.4177,-0.4149,-0.4142,-0.4173,-0.4294,-0.4511,-0.4638,-0.4638,-0.4874,-0.4675,-0.382,-0.3309,-0.2505,-0.1312,-0.0692,-0.0263,0.0,0.0,0.0,0.0,0.0,0.0,0.0,0.0,0.0,0.0,0.0,0.0,0.0,0.0,0.0,0.0,0.0,0.0,0.0,0.0,0.0,0.0,0.0,0.0,0.0,0.0,0.0,0.0,0.0,0.0,0.0,0.0,0.0,0.0,0.0,0.0,0.0,0.0,0.0,0.0,0.0,0.0,0.0,0.0,0.0,0.0,0.0,0.0,0.0,0.0,0.0,0.0,0.0,0.0,0.0,0.0,0.0,0.0,0.0,0.0,0.0,0.0,0.0,0.0,0.0,0.0,0.0,0.0,0.0,0.0,0.0,0.0,0.0,0.0,0.0,0.0,0.0,0.0,0.0,0.0,0.0,0.0,0.0,0.0,0.0,0.0,0.0,0.0,0.0,0.0,0.0,0.0,0.0,0.0,0.0,0.0,0.0,0.0,-0.4338,-0.4294,-0.4294,-0.4294,-0.4294,-0.4372,-0.4549,-0.4674,-0.4785,-0.4833,-0.506,-0.4716,-0.3542,-0.2979,-0.2176,-0.0955,-0.0306,0.0,0.0,0.0,0.0,0.0,0.0,0.0,0.0,0.0,0.0,0.0,0.0,0.0,0.0,0.0,0.0,0.0,0.0,0.0,0.0,0.0,0.0,0.0,0.0,0.0,0.0,0.0,0.0,0.0,0.0,0.0,0.0,0.0,0.0,0.0,0.0,0.0,0.0,0.0,0.0,0.0,0.0,0.0,0.0,0.0,0.0,0.0,0.0,0.0,0.0,0.0,0.0,0.0,0.0,0.0,0.0,0.0,0.0,0.0,0.0,0.0,0.0,0.0,0.0,0.0,0.0,0.0,0.0,0.0,0.0,0.0,0.0,0.0,0.0,0.0,0.0,0.0,0.0,0.0,0.0,0.0,0.0,0.0,0.0,0.0,0.0,0.0,0.0,0.0,0.0,0.0,0.0,0.0,0.0,0.0,0.0,0.0,0.0,-0.4491,-0.4491,-0.4491,-0.4491,-0.4491,-0.4491,-0.4545,-0.467,-0.4823,-0.4941,-0.5083,-0.527,-0.4686,-0.2845,-0.2711,-0.1931,-0.0124,0.0,0.0,0.0,0.0,0.0,0.0,0.0,0.0,0.0,0.0,0.0,0.0,0.0,0.0,0.0,0.0,0.0,0.0,0.0,0.0,0.0,0.0,0.0,0.0,0.0,0.0,0.0,0.0,0.0,0.0,0.0,0.0,0.0,0.0,0.0,0.0,0.0,0.0,0.0,0.0,0.0,0.0,0.0,0.0,0.0,0.0,0.0,0.0,0.0,0.0,0.0,0.0,0.0,0.0,0.0,0.0,0.0,0.0,0.0,0.0,0.0,0.0,0.0,0.0,0.0,0.0,0.0,0.0,0.0,0.0,0.0,0.0,0.0,0.0,0.0,0.0,0.0,0.0,0.0,0.0,0.0,0.0,0.0,0.0,0.0,0.0,0.0,0.0,0.0,0.0,0.0,0.0,0.0,0.0,0.0,0.0,0.0,-0.4491,-0.4491,-0.4491,-0.4491,-0.4491,-0.4491,-0.4491,-0.4491,-0.4545,-0.467,-0.4823,-0.4941,-0.5083,-0.527,-0.4686,-0.2845,-0.2711,-0.1947,-0.0128,0.0,0.0,0.0,0.0,0.0,0.0,0.0,0.0,0.0,0.0,0.0,0.0,0.0,0.0,0.0,0.0,0.0,0.0,0.0,0.0,0.0,0.0,0.0,0.0,0.0,0.0,0.0,0.0,0.0,0.0,0.0,0.0,0.0,0.0,0.0,0.0,0.0,0.0,0.0,0.0,0.0,0.0,0.0,0.0,0.0,0.0,0.0,0.0,0.0,0.0,0.0,0.0,0.0,0.0,0.0,0.0,0.0,0.0,0.0,0.0,0.0,0.0,0.0,0.0,0.0,0.0,0.0,0.0,0.0,0.0,0.0,0.0,0.0,0.0,0.0,0.0,0.0,0.0,0.0,0.0,0.0,0.0,0.0,0.0,0.0,0.0,0.0,0.0,0.0,0.0,0.0,0.0,0.0,0.0,0.0,0.0,0.0,-0.4491,-0.4491,-0.4491,-0.4491,-0.4491,-0.4491,-0.4491,-0.4491,-0.4566,-0.4758,-0.4863,-0.4999,-0.5206,-0.5341,-0.4821,-0.338,-0.2913,-0.208,-0.0634,-0.0212,0.0,0.0,0.0,0.0,0.0,0.0,0.0,0.0,0.0,0.0,0.0,0.0,0.0,0.0,0.0,0.0,0.0,0.0,0.0,0.0,0.0,0.0,0.0,0.0,0.0,0.0,0.0,0.0,0.0,0.0,0.0,0.0,0.0,0.0,0.0,0.0,0.0,0.0,0.0,0.0,0.0,0.0,0.0,0.0,0.0,0.0,0.0,0.0,0.0,0.0,0.0,0.0,0.0,0.0,0.0,0.0,0.0,0.0,0.0,0.0,0.0,0.0,0.0,0.0,0.0,0.0,0.0,0.0,0.0,0.0,0.0,0.0,0.0,0.0,0.0,0.0,0.0,0.0,0.0,0.0,0.0,0.0,0.0,0.0,0.0,0.0,0.0,0.0,0.0,0.0,0.0,0.0,0.0,0.0,0.0,0.0,-0.4498,-0.4505,-0.4511,-0.4494,-0.4491,-0.4491,-0.4491,-0.4491,-0.46,-0.4877,-0.4887,-0.5033,-0.5361,-0.5395,-0.5024,-0.4082,-0.3203,-0.2261,-0.1209,-0.0423,0.0,0.0,0.0,0.0,0.0,0.0,0.0,0.0,0.0,0.0,0.0,0.0,0.0,0.0,0.0,0.0,0.0,0.0,0.0,0.0,0.0,0.0,0.0,0.0,0.0,0.0,0.0,0.0,0.0,0.0,0.0,0.0,0.0,0.0,0.0,0.0,0.0,0.0,0.0,0.0,0.0,0.0,0.0,0.0,0.0,0.0,0.0,0.0,0.0,0.0,0.0,0.0,0.0,0.0,0.0,0.0,0.0,0.0,0.0,0.0,0.0,0.0,0.0,0.0,0.0,0.0,0.0,0.0,0.0,0.0,0.0,0.0,0.0,0.0,0.0,0.0,0.0,0.0,0.0,0.0,0.0,0.0,0.0,0.0,0.0,0.0,0.0,0.0,0.0,0.0,0.0,0.0,0.0,0.0,0.0,0.0,-0.4539,-0.459,-0.4638,-0.4511,-0.4491,-0.4491,-0.4491,-0.4491,-0.46,-0.4877,-0.4887,-0.5033,-0.5361,-0.5395,-0.5024,-0.4082,-0.3197,-0.2003,-0.0352,-0.0095,0.0,0.0,0.0,0.0,0.0,0.0,0.0,0.0,0.0,0.0,0.0,0.0,0.0,0.0,0.0,0.0,0.0,0.0,0.0,0.0,0.0,0.0,0.0,0.0,0.0,0.0,0.0,0.0,0.0,0.0,0.0,0.0,0.0,0.0,0.0,0.0,0.0,0.0,0.0,0.0,0.0,0.0,0.0,0.0,0.0,0.0,0.0,0.0,0.0,0.0,0.0,0.0,0.0,0.0,0.0,0.0,0.0,0.0,0.0,0.0,0.0,0.0,0.0,0.0,0.0,0.0,0.0,0.0,0.0,0.0,0.0,0.0,0.0,0.0,0.0,0.0,0.0,0.0,0.0,0.0,0.0,0.0,0.0,0.0,0.0,0.0,0.0,0.0,0.0,0.0,0.0,0.0,0.0,0.0,0.0,0.0,-0.4735,-0.4691,-0.4667,-0.4617,-0.4542,-0.4491,-0.4491,-0.4491,-0.46,-0.4877,-0.4887,-0.5003,-0.522,-0.5247,-0.5019,-0.4498,-0.3304,-0.2012,-0.0631,-0.0192,0.0,0.0,0.0,0.0,0.0,0.0,0.0,0.0,0.0,0.0,0.0,0.0,0.0,0.0,0.0,0.0,0.0,0.0,0.0,0.0,0.0,0.0,0.0,0.0,0.0,0.0,0.0,0.0,0.0,0.0,0.0,0.0,0.0,0.0,0.0,0.0,0.0,0.0,0.0,0.0,0.0,0.0,0.0,0.0,0.0,0.0,0.0,0.0,0.0,0.0,0.0,0.0,0.0,0.0,0.0,0.0,0.0,0.0,0.0,0.0,0.0,0.0,0.0,0.0,0.0,0.0,0.0,0.0,0.0,0.0,0.0,0.0,0.0,0.0,0.0,0.0,0.0,0.0,0.0,0.0,0.0,0.0,0.0,0.0,0.0,0.0,0.0,0.0,0.0,0.0,0.0,0.0,0.0,0.0,0.0,0.0,-0.5026,-0.488,-0.4758,-0.4701,-0.4617,-0.4525,-0.4494,-0.4491,-0.459,-0.484,-0.4874,-0.4897,-0.5042,-0.5059,-0.495,-0.4681,-0.3489,-0.2356,-0.1427,-0.0672,-0.0263,-0.0269,-0.0101,0.0,0.0,0.0,0.0,0.0,0.0,0.0,0.0,0.0,0.0,0.0,0.0,0.0,0.0,0.0,0.0,0.0,0.0,0.0,0.0,0.0,0.0,0.0,0.0,0.0,0.0,0.0,0.0,0.0,0.0,0.0,0.0,0.0,0.0,0.0,0.0,0.0,0.0,0.0,0.0,0.0,0.0,0.0,0.0,0.0,0.0,0.0,0.0,0.0,0.0,0.0,0.0,0.0,0.0,0.0,0.0,0.0,0.0,0.0,0.0,0.0,0.0,0.0,0.0,0.0,0.0,0.0,0.0,0.0,0.0,0.0,0.0,0.0,0.0,0.0,0.0,0.0,0.0,0.0,0.0,0.0,0.0,0.0,0.0,0.0,0.0,0.0,0.0,0.0,0.0,0.0,0.0,0.0,-0.5347,-0.5189,-0.4968,-0.4735,-0.4677,-0.4648,-0.4511,-0.4491,-0.4552,-0.4694,-0.4718,-0.4772,-0.4894,-0.4911,-0.4595,-0.3808,-0.3679,-0.3287,-0.2399,-0.161,-0.117,-0.114,-0.0404,0.0,0.0,0.0,0.0,0.0,0.0,0.0,0.0,0.0,0.0,0.0,0.0,0.0,0.0,0.0,0.0,0.0,0.0,0.0,0.0,0.0,0.0,0.0,0.0,0.0,0.0,0.0,0.0,0.0,0.0,0.0,0.0,0.0,0.0,0.0,0.0,0.0,0.0,0.0,0.0,0.0,0.0,0.0,0.0,0.0,0.0,0.0,0.0,0.0,0.0,0.0,0.0,0.0,0.0,0.0,0.0,0.0,0.0,0.0,0.0,0.0,0.0,0.0,0.0,0.0,0.0,0.0,0.0,0.0,0.0,0.0,0.0,0.0,0.0,0.0,0.0,0.0,0.0,0.0,0.0,0.0,0.0,0.0,0.0,0.0,0.0,0.0,0.0,0.0,0.0,0.0,0.0,0.0,-0.5395,-0.5344,-0.5199,-0.4986,-0.4877,-0.4772,-0.4648,-0.4624,-0.4648,-0.468,-0.4691,-0.4714,-0.4779,-0.4707,-0.4506,-0.4157,-0.3862,-0.3535,-0.3161,-0.2483,-0.211,-0.211,-0.1241,-0.0772,-0.0772,-0.0269,0.0,0.0,0.0,0.0,0.0,0.0,0.0,0.0,0.0,0.0,0.0,0.0,0.0,0.0,0.0,0.0,0.0,0.0,0.0,0.0,0.0,0.0,0.0,0.0,0.0,0.0,0.0,0.0,0.0,0.0,0.0,0.0,0.0,0.0,0.0,0.0,0.0,0.0,0.0,0.0,0.0,0.0,0.0,0.0,0.0,0.0,0.0,0.0,0.0,0.0,0.0,0.0,0.0,0.0,0.0,0.0,0.0,0.0,0.0,0.0,0.0,0.0,0.0,0.0,0.0,0.0,0.0,0.0,0.0,0.0,0.0,0.0,0.0,0.0,0.0,0.0,0.0,0.0,0.0,0.0,0.0,0.0,0.0,0.0,0.0,0.0,0.0,0.0,0.0,0.0,-0.5395,-0.5395,-0.5358,-0.5213,-0.5042,-0.4911,-0.4721,-0.4657,-0.4655,-0.4655,-0.4655,-0.4655,-0.4655,-0.4556,-0.4491,-0.4491,-0.4177,-0.3961,-0.3961,-0.3404,-0.3045,-0.3045,-0.2177,-0.1574,-0.1307,-0.0672,-0.0236,0.0,0.0,-0.0135,-0.037,-0.037,-0.0505,-0.074,-0.074,-0.074,-0.074,-0.074,-0.074,-0.0706,-0.0471,-0.037,-0.0337,-0.0101,0.0,0.0,0.0,0.0,0.0,0.0,0.0,0.0,0.0,0.0,0.0,0.0,0.0,0.0,0.0,0.0,0.0,0.0,0.0,0.0,0.0,0.0,0.0,0.0,0.0,0.0,0.0,0.0,0.0,0.0,0.0,0.0,0.0,0.0,0.0,0.0,0.0,0.0,0.0,0.0,0.0,0.0,0.0,0.0,0.0,0.0,0.0,0.0,0.0,0.0,0.0,0.0,0.0,0.0,0.0,0.0,0.0,0.0,0.0,0.0,0.0,0.0,0.0,0.0,0.0,0.0,0.0,0.0,0.0,0.0,0.0,0.0,-0.5395,-0.5395,-0.5392,-0.5388,-0.5226,-0.4995,-0.4735,-0.4593,-0.4498,-0.4498,-0.4498,-0.4498,-0.4498,-0.4494,-0.4491,-0.4491,-0.4712,-0.4857,-0.4857,-0.4282,-0.3949,-0.3949,-0.3111,-0.2242,-0.1307,-0.1273,-0.0839,0.0,0.0,-0.0437,-0.1274,-0.1274,-0.1742,-0.2611,-0.2611,-0.2611,-0.2611,-0.2611,-0.2611,-0.2544,-0.1641,-0.1274,-0.1173,-0.0337,0.0,0.0,0.0,0.0,0.0,0.0,0.0,0.0,0.0,0.0,0.0,0.0,0.0,0.0,0.0,0.0,0.0,0.0,0.0,0.0,0.0,0.0,0.0,0.0,0.0,0.0,0.0,0.0,0.0,0.0,0.0,0.0,0.0,0.0,0.0,0.0,0.0,0.0,0.0,0.0,0.0,0.0,0.0,0.0,0.0,0.0,0.0,0.0,0.0,0.0,0.0,0.0,0.0,0.0,0.0,0.0,0.0,0.0,0.0,0.0,0.0,0.0,0.0,0.0,0.0,0.0,0.0,0.0,0.0,0.0,0.0,0.0,-0.5416,-0.5395,-0.5395,-0.5395,-0.5233,-0.5066,-0.4965,-0.4772,-0.4641,-0.4641,-0.4704,0.0,0.0,0.0,0.0,0.0,-0.4707,-0.4809,-0.4881,-0.4903,-0.4921,-0.4921,-0.4123,-0.3512,-0.3113,-0.2511,-0.2076,-0.1777,-0.1777,-0.1944,-0.2242,-0.2242,-0.241,-0.2711,-0.2711,-0.2711,-0.2711,-0.2711,-0.2711,-0.2611,-0.1675,-0.1307,-0.1209,-0.0343,0.0,0.0,0.0,0.0,0.0,0.0,0.0,0.0,0.0,0.0,0.0,0.0,0.0,0.0,0.0,0.0,0.0,0.0,0.0,0.0,0.0,0.0,0.0,0.0,0.0,0.0,0.0,0.0,0.0,0.0,0.0,0.0,0.0,0.0,0.0,0.0,0.0,0.0,0.0,0.0,0.0,0.0,0.0,0.0,0.0,0.0,0.0,0.0,0.0,0.0,0.0,0.0,0.0,0.0,0.0,0.0,0.0,0.0,0.0,0.0,0.0,0.0,0.0,0.0,0.0,0.0,0.0,0.0,0.0,0.0,0.0,0.0,-0.5573,-0.5552,-0.5535,-0.5484,-0.5315,0.0,0.0,0.0,0.0,0.0,0.0,0.0,0.0,0.0,0.0,0.0,0.0,-0.4813,-0.4881,-0.5145,-0.5337,-0.5392,-0.4825,-0.4353,-0.4015,-0.3348,-0.2934,-0.2786,-0.2725,-0.2907,-0.3342,-0.3342,-0.3513,-0.3822,-0.3822,-0.3822,-0.3822,-0.3822,-0.3845,-0.3804,-0.2739,-0.2176,-0.1836,-0.0852,-0.0263,0.0,0.0,0.0,0.0,0.0,0.0,0.0,0.0,0.0,0.0,0.0,0.0,0.0,0.0,0.0,0.0,0.0,0.0,0.0,0.0,0.0,0.0,0.0,0.0,0.0,0.0,0.0,0.0,0.0,0.0,0.0,0.0,0.0,0.0,0.0,0.0,0.0,0.0,0.0,0.0,0.0,0.0,0.0,0.0,0.0,0.0,0.0,0.0,0.0,0.0,0.0,0.0,0.0,0.0,0.0,0.0,0.0,0.0,0.0,0.0,0.0,0.0,0.0,0.0,0.0,0.0,0.0,0.0,0.0,0.0,0.0,-0.5803,-0.58,-0.5755,0.0,0.0,0.0,0.0,0.0,0.0,0.0,0.0,0.0,0.0,0.0,0.0,0.0,0.0,0.0,-0.4887,-0.5019,-0.5196,-0.5378,-0.5223,-0.4793,-0.4082,-0.3811,-0.3473,-0.303,-0.2916,-0.3436,-0.4547,-0.4547,-0.4979,-0.5779,-0.5779,-0.5779,-0.5779,-0.5779,-0.5857,-0.5848,-0.4645,-0.3753,-0.3008,-0.1776,-0.0779,-0.0059,-0.003,0.0,0.0,0.0,0.0,0.0,0.0,0.0,0.0,0.0,0.0,0.0,0.0,0.0,0.0,0.0,0.0,0.0,0.0,0.0,0.0,0.0,0.0,0.0,0.0,0.0,0.0,0.0,0.0,0.0,0.0,0.0,0.0,0.0,0.0,0.0,0.0,0.0,0.0,0.0,0.0,0.0,0.0,0.0,0.0,0.0,0.0,0.0,0.0,0.0,0.0,0.0,0.0,0.0,0.0,0.0,0.0,0.0,0.0,0.0,0.0,0.0,0.0,0.0,0.0,0.0,0.0,0.0,0.0,0.0,0.0,0.0,0.0,0.0,0.0,0.0,0.0,0.0,0.0,0.0,0.0,0.0,0.0,0.0,0.0,0.0,0.0,0.0,-0.4881,-0.5019,-0.5117,-0.5186,-0.5372,-0.5336,-0.5057,-0.4986,-0.4871,-0.4773,-0.4737,-0.4855,-0.5163,-0.5163,-0.5301,-0.5508,-0.5508,-0.5508,-0.5508,-0.5508,-0.543,-0.5253,-0.4284,-0.3801,-0.3444,-0.1788,-0.1073,-0.0885,-0.0226,0.0,0.0,0.0,0.0,0.0,0.0,0.0,0.0,0.0,0.0,0.0,0.0,0.0,0.0,0.0,0.0,0.0,0.0,0.0,0.0,0.0,0.0,0.0,0.0,0.0,0.0,0.0,0.0,0.0,0.0,0.0,0.0,0.0,0.0,0.0,0.0,0.0,0.0,0.0,0.0,0.0,0.0,0.0,0.0,0.0,0.0,0.0,0.0,0.0,0.0,0.0,0.0,0.0,0.0,0.0,0.0,0.0,0.0,0.0,0.0,0.0,0.0,0.0,0.0,0.0,0.0,0.0,0.0,0.0,0.0,0.0,0.0,0.0,0.0,0.0,0.0,0.0,0.0,0.0,0.0,0.0,0.0,0.0,0.0,0.0,0.0,0.0,0.0,-0.5056,-0.513,-0.5226,-0.5332,-0.5348,-0.526,-0.5167,-0.5197,-0.5395,-0.5262,-0.5303,-0.5494,-0.5426,-0.5395,-0.5395,-0.5395,-0.5395,-0.5395,-0.5395,-0.5385,0.0,0.0,-0.4278,-0.3856,-0.279,-0.194,-0.1234,-0.0741,-0.0323,0.0,0.0,0.0,0.0,0.0,0.0,0.0,0.0,0.0,0.0,0.0,0.0,0.0,0.0,0.0,0.0,0.0,0.0,0.0,0.0,0.0,0.0,0.0,0.0,0.0,0.0,0.0,0.0,0.0,0.0,0.0,0.0,0.0,0.0,0.0,0.0,0.0,0.0,0.0,0.0,0.0,0.0,0.0,0.0,0.0,0.0,0.0,0.0,0.0,0.0,0.0,0.0,0.0,0.0,0.0,0.0,0.0,0.0,0.0,0.0,0.0,0.0,0.0,0.0,0.0,0.0,0.0,0.0,0.0,0.0,0.0,0.0,0.0,0.0,0.0,0.0,0.0,-0.5481,-0.5433,-0.5402,0.0,0.0,0.0,0.0,0.0,0.0,0.0,0.0,-0.5189,-0.5358,-0.522,-0.513,-0.513,-0.4891,-0.4938,-0.5365,-0.5053,-0.5118,-0.5498,-0.5399,-0.5337,-0.5337,-0.5337,-0.5337,-0.5337,-0.5337,-0.5412,-0.5491,-0.5388,-0.4913,-0.4282,0.0,-0.2943,-0.1463,-0.1215,-0.0647,0.0,0.0,0.0,0.0,0.0,0.0,0.0,0.0,0.0,0.0,0.0,0.0,0.0,0.0,0.0,0.0,0.0,0.0,0.0,0.0,0.0,0.0,0.0,0.0,0.0,0.0,0.0,0.0,0.0,0.0,0.0,0.0,0.0,0.0,0.0,0.0,0.0,0.0,0.0,0.0,0.0,0.0,0.0,0.0,0.0,0.0,0.0,0.0,0.0,0.0,0.0,0.0,0.0,0.0,0.0,0.0,0.0,0.0,0.0,0.0,0.0,0.0,0.0,0.0,0.0,0.0,0.0,0.0,0.0,0.0,0.0,0.0,0.0,0.0,0.0,0.0,0.0,0.0,-0.5593,-0.5443,0.0,0.0,0.0,0.0,0.0,0.0,0.0,0.0,0.0,-0.5137,-0.5267,-0.5354,-0.5354,-0.5145,-0.5059,-0.514,-0.4972,-0.4928,-0.5036,-0.5006,-0.4996,-0.4996,-0.4996,-0.4996,-0.4996,-0.4996,-0.5009,-0.5033,-0.5006,-0.497,-0.4874,-0.411,0.0,0.0,-0.0762,-0.0136,0.0,0.0,0.0,0.0,0.0,0.0,0.0,0.0,0.0,0.0,0.0,0.0,0.0,0.0,0.0,0.0,0.0,0.0,0.0,0.0,0.0,0.0,0.0,0.0,0.0,0.0,0.0,0.0,0.0,0.0,0.0,0.0,0.0,0.0,0.0,0.0,0.0,0.0,0.0,0.0,0.0,0.0,0.0,0.0,0.0,0.0,0.0,0.0,0.0,0.0,0.0,0.0,0.0,0.0,0.0,0.0,0.0,0.0,0.0,0.0,0.0,0.0,0.0,0.0,0.0,0.0,0.0,0.0,0.0,0.0,0.0,0.0,0.0,0.0,0.0,-0.5871,-0.5925,-0.622,-0.6074,-0.5945,-0.5827,-0.5681,-0.562,0.0,0.0,0.0,0.0,0.0,0.0,0.0,0.0,0.0,-0.5243,-0.5137,-0.51,-0.51,0.0,-0.4887,-0.4887,-0.484,-0.4758,-0.468,-0.468,-0.468,-0.468,-0.468,-0.4728,-0.4806,-0.4857,-0.4972,-0.5075,0.0,0.0,0.0,-0.0639,0.0,0.0,0.0,0.0,0.0,0.0,0.0,0.0,0.0,0.0,0.0,0.0,0.0,0.0,0.0,0.0,0.0,0.0,0.0,0.0,0.0,0.0,0.0,0.0,0.0,0.0,0.0,0.0,0.0,0.0,0.0,0.0,0.0,0.0,0.0,0.0,0.0,0.0,0.0,0.0,0.0,0.0,0.0,0.0,0.0,0.0,0.0,0.0,0.0,0.0,0.0,0.0,0.0,0.0,0.0,0.0,0.0,0.0,0.0,0.0,0.0,0.0,0.0,0.0,0.0,0.0,0.0,0.0,0.0,0.0,0.0,0.0,0.0,0.0,0.0,0.0,-0.6203,-0.6254,-0.6658,-0.6637,-0.6515,-0.6212,-0.6027,-0.5884,0.0,0.0,0.0,0.0,0.0,0.0,0.0,0.0,0.0,0.0,0.0,0.0,-0.51,-0.4958,0.0,0.0,0.0,0.0,0.0,-0.459,-0.459,-0.459,-0.459,-0.4675,0.0,0.0,-0.5101,-0.5211,0.0,0.0,0.0,0.0,-0.0211,0.0,0.0,0.0,0.0,0.0,0.0,0.0,0.0,0.0,0.0,0.0,0.0,0.0,0.0,0.0,0.0,0.0,0.0,0.0,0.0,0.0,0.0,0.0,0.0,0.0,0.0,0.0,0.0,0.0,0.0,0.0,0.0,0.0,0.0,0.0,0.0,0.0,0.0,0.0,0.0,0.0,0.0,0.0,0.0,0.0,0.0,0.0,0.0,0.0,0.0,0.0,0.0,0.0,0.0,0.0,0.0,0.0,0.0,0.0,0.0,0.0,0.0,0.0,0.0,0.0,0.0,0.0,0.0,0.0,0.0,0.0,0.0,0.0,0.0,0.0,-0.648,-0.6678,-0.7258,-0.7166,-0.6974,-0.6822,-0.6471,-0.6162,0.0,0.0,0.0,0.0,0.0,0.0,0.0,0.0,0.0,0.0,0.0,0.0,-0.51,-0.4958,0.0,0.0,0.0,0.0,0.0,0.0,-0.4877,-0.4877,-0.4877,0.0,0.0,0.0,0.0,0.0,0.0,0.0,0.0,0.0,-0.0822,0.0,0.0,0.0,0.0,0.0,0.0,0.0,0.0,0.0,0.0,0.0,0.0,0.0,0.0,0.0,0.0,0.0,0.0,0.0,0.0,0.0,0.0,0.0,0.0,0.0,0.0,0.0,0.0,0.0,0.0,0.0,0.0,0.0,0.0,0.0,0.0,0.0,0.0,0.0,0.0,0.0,0.0,0.0,0.0,0.0,0.0,0.0,0.0,0.0,0.0,0.0,0.0,0.0,0.0,0.0,0.0,0.0,0.0,0.0,0.0,0.0,0.0,0.0,0.0,0.0,0.0,0.0,0.0,0.0,0.0,0.0,0.0,0.0,0.0,-0.6688,-0.6668,-0.6827,-0.7428,-0.7455,-0.736,-0.721,-0.6953,-0.6624,-0.6207,0.0,0.0,0.0,0.0,0.0,0.0,0.0,0.0,0.0,0.0,-0.5447,-0.5535,-0.5477,0.0,0.0,0.0,0.0,0.0,0.0,-0.4887,-0.4887,-0.4887,0.0,0.0,0.0,0.0,0.0,0.0,0.0,0.0,0.0,0.0,0.0,0.0,0.0,0.0,0.0,0.0,0.0,0.0,0.0,0.0,0.0,0.0,0.0,0.0,0.0,0.0,0.0,0.0,0.0,0.0,0.0,0.0,0.0,0.0,0.0,0.0,0.0,0.0,0.0,0.0,0.0,0.0,0.0,0.0,0.0,0.0,0.0,0.0,0.0,0.0,0.0,0.0,0.0,0.0,0.0,0.0,0.0,0.0,0.0,0.0,0.0,0.0,0.0,0.0,0.0,0.0,0.0,0.0,0.0,0.0,0.0,0.0,0.0,0.0,0.0,0.0,0.0,0.0,0.0,0.0,0.0,0.0,0.0,-0.6453,-0.6861,-0.6871,-0.7031,-0.759,-0.7662,-0.7604,-0.7455,-0.7221,-0.6909,-0.6495,-0.6375,0.0,0.0,0.0,0.0,0.0,0.0,0.0,0.0,0.0,-0.5701,-0.58,-0.58,-0.5694,0.0,0.0,-0.5359,-0.5118,0.0,0.0,0.0,0.0,0.0,0.0,0.0,0.0,0.0,0.0,0.0,0.0,0.0,0.0,0.0,0.0,0.0,0.0,0.0,0.0,0.0,0.0,0.0,0.0,0.0,0.0,0.0,0.0,0.0,0.0,0.0,0.0,0.0,0.0,0.0,0.0,0.0,0.0,0.0,0.0,0.0,0.0,0.0,0.0,0.0,0.0,0.0,0.0,0.0,0.0,0.0,0.0,0.0,0.0,0.0,0.0,0.0,0.0,0.0,0.0,0.0,0.0,0.0,0.0,0.0,0.0,0.0,0.0,0.0,0.0,0.0,0.0,0.0,0.0,0.0,0.0,0.0,0.0,0.0,0.0,0.0,0.0,0.0,0.0,0.0,0.0,0.0,0.0,-0.6861,-0.7004,-0.7253,-0.775,-0.7811,-0.7753,-0.7611,-0.72,-0.6886,-0.6879,-0.6519,0.0,0.0,0.0,0.0,0.0,0.0,0.0,0.0,0.0,-0.58,-0.58,-0.58,-0.58,-0.5796,-0.5796,-0.5722,-0.5583,0.0,0.0,0.0,0.0,0.0,0.0,0.0,0.0,0.0,0.0,0.0,0.0,0.0,0.0,0.0,0.0,0.0,0.0,0.0,0.0,0.0,0.0,0.0,0.0,0.0,0.0,0.0,0.0,0.0,0.0,0.0,0.0,0.0,0.0,0.0,0.0,0.0,0.0,0.0,0.0,0.0,0.0,0.0,0.0,0.0,0.0,0.0,0.0,0.0,0.0,0.0,0.0,0.0,0.0,0.0,0.0,0.0,0.0,0.0,0.0,0.0,0.0,0.0,0.0,0.0,0.0,0.0,0.0,0.0,0.0,0.0,0.0,0.0,0.0,0.0,0.0,0.0,0.0,0.0,0.0,0.0,0.0,0.0,0.0,0.0,0.0,0.0,0.0,0.0,-0.6742,-0.6963,-0.7264,-0.7444,-0.7492,-0.7448,-0.7221,-0.6991,-0.6896,-0.6519,0.0,0.0,0.0,0.0,0.0,0.0,0.0,0.0,-0.5922,-0.6057,-0.6261,-0.6261,-0.6248,-0.6153,-0.6153,-0.5979,-0.5732,-0.5633,-0.5562,0.0,0.0,0.0,0.0,0.0,0.0,0.0,0.0,0.0,0.0,0.0,0.0,0.0,0.0,0.0,0.0,0.0,0.0,0.0,0.0,0.0,0.0,0.0,0.0,0.0,0.0,0.0,0.0,0.0,0.0,0.0,0.0,0.0,0.0,0.0,0.0,0.0,0.0,0.0,0.0,0.0,0.0,0.0,0.0,0.0,0.0,0.0,0.0,0.0,0.0,0.0,0.0,0.0,0.0,0.0,0.0,0.0,0.0,0.0,0.0,0.0,0.0,0.0,0.0,0.0,0.0,0.0,0.0,0.0,0.0,0.0,0.0,0.0,0.0,0.0,0.0,0.0,0.0,0.0,0.0,0.0,0.0,0.0,0.0,0.0,0.0,0.0,-0.6603,-0.6787,-0.6987,-0.719,-0.7285,-0.7285,-0.7149,-0.7004,-0.6967,-0.6651,0.0,0.0,0.0,0.0,0.0,0.0,0.0,-0.6115,-0.6115,-0.6261,-0.6559,-0.6559,-0.6542,-0.6512,-0.6512,-0.6318,-0.5973,-0.5884,-0.5749,0.0,0.0,0.0,0.0,0.0,0.0,-0.63,0.0,0.0,0.0,0.0,0.0,0.0,0.0,0.0,0.0,0.0,0.0,0.0,0.0,0.0,0.0,0.0,0.0,0.0,0.0,0.0,0.0,0.0,0.0,0.0,0.0,0.0,0.0,0.0,0.0,0.0,0.0,0.0,0.0,0.0,0.0,0.0,0.0,0.0,0.0,0.0,0.0,0.0,0.0,0.0,0.0,0.0,0.0,0.0,0.0,0.0,0.0,0.0,0.0,0.0,0.0,0.0,0.0,0.0,0.0,0.0,0.0,0.0,0.0,0.0,0.0,0.0,0.0,0.0,0.0,0.0,0.0,0.0,0.0,0.0,0.0,0.0,0.0,0.0,0.0,0.0,-0.6593,-0.6739,-0.6849,-0.6994,-0.7082,-0.7082,-0.6974,-0.695,-0.7068,0.0,0.0,0.0,0.0,0.0,0.0,0.0,0.0,-0.63,-0.63,-0.6446,-0.6702,-0.6702,-0.678,-0.6886,-0.6886,-0.6695,-0.6313,-0.6306,-0.6054,0.0,0.0,0.0,0.0,-0.618,-0.63,0.0,0.0,0.0,0.0,0.0,0.0,0.0,0.0,0.0,0.0,0.0,0.0,0.0,0.0,0.0,0.0,0.0,0.0,0.0,0.0,0.0,0.0,0.0,0.0,0.0,0.0,0.0,0.0,0.0,0.0,0.0,0.0,0.0,0.0,0.0,0.0,0.0,0.0,0.0,0.0,0.0,0.0,0.0,0.0,0.0,0.0,0.0,0.0,0.0,0.0,0.0,0.0,0.0,0.0,0.0,0.0,0.0,0.0,0.0,0.0,0.0,0.0,0.0,0.0,0.0,0.0,0.0,0.0,0.0,0.0,0.0,0.0,0.0,0.0,0.0,0.0,0.0,0.0,0.0,0.0,0.0,0.0,0.0,0.0,-0.6885,-0.6933,-0.6933,-0.7001,-0.7018,0.0,0.0,0.0,0.0,0.0,0.0,0.0,0.0,0.0,-0.63,-0.63,-0.6446,-0.6702,-0.6702,-0.678,-0.6886,-0.6886,-0.6749,-0.6457,-0.6347,-0.6108,0.0,0.0,0.0,0.0,-0.6221,-0.63,0.0,0.0,0.0,0.0,-0.6025,-0.5237,0.0,0.0,0.0,0.0,0.0,0.0,0.0,0.0,0.0,0.0,0.0,0.0,0.0,0.0,0.0,0.0,0.0,0.0,0.0,0.0,0.0,0.0,0.0,0.0,0.0,0.0,0.0,0.0,0.0,0.0,0.0,0.0,0.0,0.0,0.0,0.0,0.0,0.0,0.0,0.0,0.0,0.0,0.0,0.0,0.0,0.0,0.0,0.0,0.0,0.0,0.0,0.0,0.0,0.0,0.0,0.0,0.0,0.0,0.0,0.0,0.0,0.0,0.0,0.0,0.0,0.0,0.0,0.0,0.0,0.0,0.0,0.0,0.0,0.0,0.0,0.0,0.0,0.0,0.0,-0.6773,-0.6637,0.0,0.0,0.0,0.0,0.0,0.0,0.0,0.0,0.0,0.0,-0.63,-0.63,-0.63,-0.648,-0.6807,-0.6807,-0.6915,-0.7132,-0.7132,-0.6932,-0.6566,-0.6281,-0.6061,0.0,0.0,0.0,0.0,-0.6268,0.0,0.0,0.0,0.0,0.0,-0.63,-0.5276,0.0,-0.3279,-0.2112,-0.0745,0.0,0.0,0.0,0.0,0.0,0.0,0.0,0.0,0.0,0.0,0.0,0.0,0.0,0.0,0.0,0.0,0.0,0.0,0.0,0.0,0.0,0.0,0.0,0.0,0.0,0.0,0.0,0.0,0.0,0.0,0.0,0.0,0.0,0.0,0.0,0.0,0.0,0.0,0.0,0.0,0.0,0.0,0.0,0.0,0.0,0.0,0.0,0.0,0.0,0.0,0.0,0.0,0.0,0.0,0.0,0.0,0.0,0.0,0.0,0.0,0.0,0.0,0.0,0.0,0.0,0.0,0.0,0.0,0.0,0.0,0.0,0.0,0.0,0.0,0.0,0.0,0.0,0.0,0.0,0.0,0.0,0.0,0.0,0.0,0.0,0.0,-0.6388,-0.631,-0.633,-0.631,-0.6468,-0.6852,-0.6873,-0.7068,-0.7336,-0.7405,-0.7132,-0.6681,-0.6278,-0.6047,-0.6074,0.0,0.0,0.0,-0.6339,0.0,0.0,0.0,0.0,0.0,0.0,0.0,0.0,-0.3149,-0.1834,-0.0235,-0.0039,0.0,0.0,0.0,0.0,0.0,0.0,0.0,0.0,0.0,0.0,0.0,0.0,0.0,0.0,0.0,0.0,0.0,0.0,0.0,0.0,0.0,0.0,0.0,0.0,0.0,0.0,0.0,0.0,0.0,0.0,0.0,0.0,0.0,0.0,0.0,0.0,0.0,0.0,0.0,0.0,0.0,0.0,0.0,0.0,0.0,0.0,0.0,0.0,0.0,0.0,0.0,0.0,0.0,0.0,0.0,0.0,0.0,0.0,0.0,0.0,0.0,0.0,0.0,0.0,0.0,0.0,0.0,0.0,0.0,0.0,0.0,0.0,0.0,0.0,0.0,0.0,0.0,0.0,0.0,0.0,0.0,0.0,0.0,0.0,-0.6671,-0.6446,-0.6358,-0.6477,-0.6361,-0.6457,-0.6736,-0.6822,-0.697,-0.7136,-0.7309,-0.7132,-0.6692,-0.6491,-0.6378,-0.6265,-0.6289,0.0,-0.6269,-0.6313,0.0,0.0,0.0,0.0,0.0,0.0,0.0,0.0,-0.3398,-0.231,-0.1206,-0.0299,0.0,0.0,0.0,0.0,0.0,0.0,0.0,0.0,0.0,0.0,0.0,0.0,0.0,0.0,0.0,0.0,0.0,0.0,0.0,0.0,0.0,0.0,0.0,0.0,0.0,0.0,0.0,0.0,0.0,0.0,0.0,0.0,0.0,0.0,0.0,0.0,0.0,0.0,0.0,0.0,0.0,0.0,0.0,0.0,0.0,0.0,0.0,0.0,0.0,0.0,0.0,0.0,0.0,0.0,0.0,0.0,0.0,0.0,0.0,0.0,0.0,0.0,0.0,0.0,0.0,0.0,0.0,0.0,0.0,0.0,0.0,0.0,0.0,0.0,0.0,0.0,0.0,0.0,0.0,0.0,0.0,0.0,0.0,0.0,-0.6896,-0.6658,-0.6528,-0.6511,-0.6528,-0.6644,-0.6896,-0.7092,-0.7244,-0.7383,-0.7214,-0.6976,-0.6692,-0.6501,-0.6361,-0.63,-0.63,-0.63,-0.63,0.0,0.0,0.0,0.0,0.0,0.0,0.0,0.0,0.0,0.0,-0.2357,-0.126,-0.0295,0.0,0.0,0.0,0.0,0.0,0.0,0.0,0.0,0.0,0.0,0.0,0.0,0.0,0.0,0.0,0.0,0.0,0.0,0.0,0.0,0.0,0.0,0.0,0.0,0.0,0.0,0.0,0.0,0.0,0.0,0.0,0.0,0.0,0.0,0.0,0.0,0.0,0.0,0.0,0.0,0.0,0.0,0.0,0.0,0.0,0.0,0.0,0.0,0.0,0.0,0.0,0.0,0.0,0.0,0.0,0.0,0.0,0.0,0.0,0.0,0.0,0.0,0.0,0.0,0.0,0.0,0.0,0.0,0.0,0.0,0.0,0.0,0.0,0.0,0.0,0.0,0.0,0.0,0.0,0.0,0.0,0.0,0.0,-0.6933,-0.7041,-0.6905,-0.6766,-0.6726,-0.6729,-0.6898,-0.7149,-0.735,-0.7502,-0.7641,-0.7224,-0.6932,-0.6742,-0.6484,-0.633,-0.63,-0.63,-0.63,-0.63,0.0,0.0,0.0,0.0,0.0,0.0,0.0,0.0,0.0,0.0,0.0,0.0,0.0,0.0,0.0,0.0,0.0,0.0,0.0,0.0,0.0,0.0,0.0,0.0,0.0,0.0,0.0,0.0,0.0,0.0,0.0,0.0,0.0,0.0,0.0,0.0,0.0,0.0,0.0,0.0,0.0,0.0,0.0,0.0,0.0,0.0,0.0,0.0,0.0,0.0,0.0,0.0,0.0,0.0,0.0,0.0,0.0,0.0,0.0,0.0,0.0,0.0,0.0,0.0,0.0,0.0,0.0,0.0,0.0,0.0,0.0,0.0,0.0,0.0,0.0,0.0,0.0,0.0,0.0,0.0,0.0,0.0,0.0,0.0,0.0,0.0,0.0,0.0,0.0,0.0,0.0,0.0,0.0,0.0,0.0,0.0,-0.6889,-0.69,-0.7007,-0.717,-0.7351,-0.7048,-0.7058,-0.7356,-0.7509,-0.7655,-0.779,-0.7482,-0.7187,-0.6856,-0.6593,-0.6422,-0.63,-0.63,-0.63,-0.63,-0.63,0.0,0.0,0.0,0.0,0.0,0.0,0.0,0.0,0.0,0.0,0.0,0.0,0.0,0.0,0.0,0.0,0.0,0.0,0.0,0.0,0.0,0.0,0.0,0.0,0.0,0.0,0.0,0.0,0.0,0.0,0.0,0.0,0.0,0.0,0.0,0.0,0.0,0.0,0.0,0.0,0.0,0.0,0.0,0.0,0.0,0.0,0.0,0.0,0.0,0.0,0.0,0.0,0.0,0.0,0.0,0.0,0.0,0.0,0.0,0.0,0.0,0.0,0.0,0.0,0.0,0.0,0.0,0.0,0.0,0.0,0.0,0.0,0.0,0.0,0.0,0.0,0.0,0.0,0.0,0.0,0.0,0.0,0.0,0.0,0.0,0.0,0.0,0.0,0.0,0.0,0.0,0.0,0.0,0.0,-0.6832,-0.701,-0.7197,-0.7119,-0.7214,-0.7412,-0.7356,-0.7444,-0.7645,-0.7797,-0.7807,-0.7675,-0.737,-0.7071,-0.6773,-0.6515,-0.6351,-0.63,-0.63,-0.5906,-0.5315,-0.5315,-0.4921,0.0,0.0,0.0,0.0,0.0,0.0,0.0,0.0,-0.1242,-0.0707,-0.0172,0.0,0.0,0.0,0.0,0.0,0.0,0.0,0.0,0.0,0.0,0.0,0.0,0.0,0.0,0.0,0.0,0.0,0.0,0.0,0.0,0.0,0.0,0.0,0.0,0.0,0.0,0.0,0.0,0.0,0.0,0.0,0.0,0.0,0.0,0.0,0.0,0.0,0.0,0.0,0.0,0.0,0.0,0.0,0.0,0.0,0.0,0.0,0.0,0.0,0.0,0.0,0.0,0.0,0.0,0.0,0.0,0.0,0.0,0.0,0.0,0.0,0.0,0.0,0.0,0.0,0.0,0.0,0.0,0.0,0.0,0.0,0.0,0.0,0.0,0.0,0.0,0.0,0.0,0.0,0.0,0.0,-0.6698,-0.6753,-0.6895,-0.7149,-0.7105,-0.7098,-0.7295,-0.7495,-0.7648,-0.7743,-0.7894,-0.784,-0.7594,-0.7336,-0.7078,-0.6824,-0.6521,-0.6192,-0.5912,-0.5824,-0.5157,-0.4178,-0.4178,-0.3748,0.0,0.0,0.0,0.0,0.0,0.0,0.0,0.0,-0.1009,-0.0793,-0.0171,0.0,0.0,0.0,0.0,0.0,0.0,0.0,0.0,0.0,0.0,0.0,0.0,0.0,0.0,0.0,0.0,0.0,0.0,0.0,0.0,0.0,0.0,0.0,0.0,0.0,0.0,0.0,0.0,0.0,0.0,0.0,0.0,0.0,0.0,0.0,0.0,0.0,0.0,0.0,0.0,0.0,0.0,0.0,0.0,0.0,0.0,0.0,0.0,0.0,0.0,0.0,0.0,0.0,0.0,0.0,0.0,0.0,0.0,0.0,0.0,0.0,0.0,0.0,0.0,0.0,0.0,0.0,0.0,0.0,0.0,0.0,0.0,0.0,0.0,0.0,0.0,0.0,0.0,0.0,0.0,0.0,-0.6692,-0.6556,-0.6539,-0.6695,-0.6848,-0.695,-0.7092,-0.7438,-0.7597,-0.76,-0.7843,-0.7837,-0.7594,-0.7441,-0.7285,-0.7071,-0.6671,-0.5978,-0.5082,-0.482,-0.4062,-0.3085,-0.3085,-0.3085,-0.2968,0.0,0.0,0.0,0.0,0.0,0.0,0.0,0.0,0.0,0.0,0.0,0.0,0.0,0.0,0.0,0.0,0.0,0.0,0.0,0.0,0.0,0.0,0.0,0.0,0.0,0.0,0.0,0.0,0.0,0.0,0.0,0.0,0.0,0.0,0.0,0.0,0.0,0.0,0.0,0.0,0.0,0.0,0.0,0.0,0.0,0.0,0.0,0.0,0.0,0.0,0.0,0.0,0.0,0.0,0.0,0.0,0.0,0.0,0.0,0.0,0.0,0.0,0.0,0.0,0.0,0.0,0.0,0.0,0.0,0.0,0.0,0.0,0.0,0.0,0.0,0.0,0.0,0.0,0.0,0.0,0.0,0.0,0.0,0.0,0.0,0.0,0.0,0.0,0.0,0.0,0.0,-0.6692,-0.6556,-0.6586,-0.6851,-0.6862,-0.6906,-0.6947,-0.7136,-0.7431,-0.7746,-0.7736,-0.7631,-0.7434,-0.7177,-0.698,-0.6778,-0.5799,-0.5151,-0.478,-0.3927,-0.2969,-0.2035,-0.2035,-0.1605,-0.0902,0.0,0.0,0.0,0.0,0.0,0.0,0.0,0.0,0.0,0.0,0.0,0.0,0.0,0.0,0.0,0.0,0.0,0.0,0.0,0.0,0.0,0.0,0.0,0.0,0.0,0.0,0.0,0.0,0.0,0.0,0.0,0.0,0.0,0.0,0.0,0.0,0.0,0.0,0.0,0.0,0.0,0.0,0.0,0.0,0.0,0.0,0.0,0.0,0.0,0.0,0.0,0.0,0.0,0.0,0.0,0.0,0.0,0.0,0.0,0.0,0.0,0.0,0.0,0.0,0.0,0.0,0.0,0.0,0.0,0.0,0.0,0.0,0.0,0.0,0.0,0.0,0.0,0.0,0.0,0.0,0.0,0.0,0.0,-0.7689,-0.7543,0.0,0.0,0.0,-0.697,-0.6739,-0.6603,-0.6695,-0.6545,-0.6535,-0.6736,-0.6749,-0.6831,-0.6964,-0.7173,-0.7428,-0.7638,-0.755,-0.7431,-0.7278,-0.716,-0.676,-0.6144,-0.5432,-0.4553,-0.3574,-0.2813,-0.19,-0.0968,-0.0947,-0.0593,0.0,0.0,0.0,0.0,0.0,0.0,0.0,0.0,0.0,0.0,0.0,0.0,0.0,0.0,0.0,0.0,0.0,0.0,0.0,0.0,0.0,0.0,0.0,0.0,0.0,0.0,0.0,0.0,0.0,0.0,0.0,0.0,0.0,0.0,0.0,0.0,0.0,0.0,0.0,0.0,0.0,0.0,0.0,0.0,0.0,0.0,0.0,0.0,0.0,0.0,0.0337,0.0504,0.0504,0.0873,0.1075,0.1075,0.0706,0.0504,0.0504,0.0168,0.0,0.0,0.0,0.0,0.0,0.0,0.0,0.0,0.0,0.0,0.0,0.0,0.0,0.0,0.0,0.0,0.0,0.0,0.0,0.0,0.0,0.0,0.0,-0.7773,-0.7672,-0.7536,0.0,0.0,0.0,-0.7095,-0.6885,-0.6722,-0.6722,-0.6497,-0.6405,-0.6549,-0.6579,-0.6753,-0.7129,-0.7441,-0.7502,-0.7395,-0.7339,-0.7265,-0.7098,-0.7272,-0.6629,-0.5361,-0.5272,-0.4032,-0.1922,-0.1582,-0.0882,0.0,0.0,0.0,0.0,0.0,0.0,0.0,0.0,0.0,0.0,0.0,0.0,0.0,0.0,0.0,0.0,0.0,0.0,0.0,0.0,0.0,0.0,0.0,0.0,0.0,0.0,0.0,0.0,0.0,0.0,0.0,0.0,0.0,0.0,0.0,0.0,0.0,0.0,0.0,0.0,0.0,0.0,0.0,0.0,0.0,0.0,0.0,0.0,0.0,0.0,0.0,0.0,0.0,0.0839,0.1307,0.1307,0.2242,0.2711,0.2678,0.1842,0.1441,0.1407,0.0437,0.0,0.0,0.0,0.0,0.0,0.0,0.0,0.0,0.0,0.0,0.0,0.0,0.0,0.0,0.0,0.0,0.0,0.0,0.0,0.0,0.0,0.0,-0.7729,-0.7495,-0.7543,-0.7495,-0.7176,-0.7115,0.0,-0.7095,-0.6937,-0.6836,-0.6836,-0.6709,-0.6671,-0.6824,-0.7054,-0.7278,-0.7495,-0.7448,-0.7343,-0.7146,-0.7078,-0.7018,-0.7095,-0.7018,-0.6358,-0.5129,-0.4452,-0.3248,-0.1631,-0.0708,-0.0228,0.0,0.0,0.0,0.0,0.0,0.0,0.0,0.0,0.0,0.0,0.0,0.0,0.0,0.0,0.0,0.0,0.0,0.0,0.0,0.0,0.0,0.0,0.0,0.0,0.0,0.0,0.0,0.0,0.0,0.0,0.0,0.0,0.0,0.0,0.0,0.0,0.0,0.0,0.0,0.0,0.0,0.0,0.0,0.0,0.0,0.0,0.0,0.0,0.0,0.0,0.0,0.0,0.0,0.0839,0.1307,0.1307,0.2242,0.2711,0.2711,0.2509,0.241,0.2344,0.074,0.0,0.0,0.0,0.0,0.0,0.0,0.0,0.0,0.0,0.0,0.0,0.0,0.0,0.0,0.0,0.0,0.0,0.0,0.0,0.0,0.0,0.0,-0.7733,-0.7509,-0.755,-0.7482,-0.7129,-0.7038,0.0,0.0,-0.6862,-0.6851,-0.6879,-0.6783,-0.677,-0.6879,-0.7214,-0.7373,-0.738,-0.7373,-0.7261,-0.6997,-0.6849,-0.6852,-0.6991,-0.6324,-0.5427,-0.4353,-0.3349,-0.2172,-0.0785,-0.0233,0.0,0.0,0.0,0.0,0.0,0.0,0.0,0.0,0.0,0.0,0.0,0.0,0.0,0.0,0.0,0.0,0.0,0.0,0.0,0.0,0.0,0.0,0.0,0.0,0.0,0.0,0.0,0.0,0.0,0.0,0.0,0.0,0.0,0.0,0.0,0.0,0.0,0.0,0.0,0.0,0.0,0.0,0.0,0.0,0.0,0.0,0.0,0.0,0.0,0.0,0.0,0.0404,0.0638,0.0638,0.1909,0.2576,0.2576,0.3513,0.3982,0.3982,0.3547,0.3111,0.2644,0.1241,0.0404,0.0,0.0,0.0,0.0,0.0,0.0,0.0,0.0,0.0,0.0,0.0,0.0,0.0,0.0,0.0,0.0,0.0,0.0,0.0,0.0,0.0,0.0,-0.7543,-0.7567,-0.7472,-0.7095,-0.6957,-0.6876,0.0,0.0,0.0,-0.6876,-0.6831,-0.6844,-0.6997,-0.7241,-0.7322,-0.7176,-0.7292,-0.72,-0.6886,-0.6537,-0.6431,-0.6548,-0.556,-0.4444,-0.3248,-0.2407,-0.1273,0.0,0.0,0.0,0.0,0.0,0.0,0.0,0.0,0.0,0.0,0.0,0.0,0.0,0.0,0.0,0.0,0.0,0.0,0.0,0.0,0.0,0.0,0.0,0.0,0.0,0.0,0.0,0.0,0.0,0.0,0.0,0.0,0.0,0.0,0.0,0.0,0.0,0.0,0.0,0.0,0.0,0.0,0.0,0.0,0.0,0.0,0.0,0.0,0.0,0.0,0.0,0.0,0.0,0.0839,0.1307,0.1307,0.3045,0.4015,0.4015,0.4921,0.5395,0.5395,0.4619,0.3782,0.2878,0.1975,0.1074,0.0202,0.0067,0.0,0.0,0.0,0.0,0.0,0.0,0.0,0.0,0.0,0.0,0.0,0.0,0.0,0.0,0.0,0.0,0.0,0.0,0.0,0.0,0.0,-0.7434,-0.7434,-0.696,-0.6896,-0.6832,-0.6742,-0.6834,-0.6866,-0.6883,0.0,0.0,-0.7305,-0.7395,-0.7424,-0.7536,-0.7299,-0.7048,-0.6886,-0.5732,-0.5133,-0.5149,-0.5105,-0.4021,-0.2033,-0.1997,-0.1246,0.0,0.0,0.0,0.0,0.0,0.0,0.0,0.0,0.0,0.0,0.0,0.0,0.0,0.0,0.0,0.0,0.0,0.0,0.0,0.0,0.0,0.0,0.0,0.0,0.0,0.0,0.0,0.0,0.0,0.0,0.0,0.0,0.0,0.0,0.0,0.0,0.0,0.0,0.0,0.0,0.0,0.0,0.0,0.0,0.0,0.0,0.0,0.0,0.0,0.0,0.0,0.0,0.0,0.0839,0.1307,0.1307,0.3045,0.4015,0.4015,0.4921,0.5395,0.5395,0.5259,0.4722,0.3782,0.2911,0.2009,0.1073,0.0337,0.0,0.0,0.0,0.0,0.0,0.0,0.0,0.0,0.0,0.0,0.0,0.0,0.0,0.0,0.0,0.0,0.0,0.0,0.0,0.0,0.0,0.0,-0.7333,-0.6923,-0.6851,-0.6773,-0.6705,-0.6681,-0.6709,-0.6797,-0.6858,-0.6963,-0.7115,-0.7122,-0.7156,-0.7221,-0.7048,-0.6606,-0.5758,-0.5207,-0.4249,-0.3059,-0.3127,-0.2661,-0.179,-0.1139,-0.057,0.0,0.0,0.0,0.0,0.0,0.0,0.0,0.0,0.0,0.0,0.0,0.0,0.0,0.0,0.0,0.0,0.0,0.0,0.0,0.0,0.0,0.0,0.0,0.0,0.0,0.0,0.0,0.0,0.0,0.0,0.0,0.0,0.0,0.0,0.0,0.0,0.0,0.0,0.0,0.0,0.0,0.0,0.0,0.0,0.0,0.0,0.0,0.0,0.0,0.0,0.0,0.0,0.0,0.1308,0.2075,0.2075,0.3846,0.4788,0.4788,0.5193,0.5395,0.5395,0.5395,0.5193,0.4755,0.3846,0.2644,0.124,0.037,0.0,0.0,0.0,0.0,0.0,0.0,0.0,0.0,0.0,0.0,0.0,0.0,0.0,0.0,0.0,0.0,0.0,0.0,0.0,0.0,0.0,0.0,-0.7244,-0.6909,0.0,0.0,0.0,-0.6559,-0.6536,-0.6692,-0.6702,-0.6753,-0.6865,-0.6829,-0.6829,-0.6829,-0.6541,-0.5897,-0.4895,-0.4324,-0.3235,-0.1592,-0.1334,-0.1236,-0.1322,-0.0413,0.0,0.0,0.0,0.0,0.0,0.0,0.0,0.0,0.0,0.0,0.0,0.0,0.0,0.0,0.0,0.0,0.0,0.0,0.0,0.0,0.0,0.0,0.0,0.0,0.0,0.0,0.0,0.0,0.0,0.0,0.0,0.0,0.0,0.0,0.0,0.0,0.0,0.0,0.0,0.0,0.0,0.0,0.0,0.0,0.0,0.0,0.0,0.0,0.0,0.0,0.0,0.0,0.0,0.0,0.171,0.2711,0.2711,0.4453,0.5395,0.5395,0.5395,0.5395,0.5395,0.5395,0.5395,0.5362,0.4417,0.3278,0.1909,0.0806,0.0202,0.0,0.0,0.0,0.0,0.0,0.0,0.0,0.0,0.0,0.0,0.0,0.0,0.0,0.0,0.0,0.0,0.0,0.0,0.0,0.0,0.0,-0.7204,-0.6759,-0.6705,-0.6586,-0.6347,-0.6439,-0.6536,-0.6692,-0.6702,-0.6705,-0.6712,-0.6712,0.0,-0.6712,-0.5587,-0.4984,-0.4893,-0.2801,-0.17,-0.159,-0.0568,-0.0077,-0.0078,-0.0037,0.0,0.0,0.0,0.0,0.0,0.0,0.0,0.0,0.0,0.0,0.0,0.0,0.0,0.0,0.0,0.0,0.0,0.0,0.0,0.0,0.0,0.0,0.0,0.0,0.0,0.0,0.0,0.0,0.0,0.0,0.0,0.0,0.0,0.0,0.0,0.0,0.0,0.0,0.0,0.0,0.0,0.0,0.0,0.0,0.0,0.0,0.0,0.0,0.0,0.0,0.0,0.0,0.0,0.0,0.171,0.2711,0.2711,0.4453,0.5395,0.5395,0.5395,0.5395,0.5395,0.5395,0.5395,0.5362,0.4417,0.3949,0.3747,0.2009,0.0772,0.0,0.0,0.0,0.0,0.0,0.0,0.0,0.0,0.0,0.0,0.0,0.0,0.0,0.0,0.0,0.0,0.0,0.0,0.0,0.0,0.0,0.0,0.0,-0.6671,-0.6552,-0.6446,-0.5759,-0.5359,-0.5405,-0.4766,-0.4433,-0.4501,-0.4505,-0.4505,-0.4505,-0.4091,-0.3529,-0.279,-0.1999,-0.1258,-0.0553,-0.0182,0.0,0.0,0.0,0.0,0.0,0.0,0.0,0.0,0.0,0.0,0.0,0.0,0.0,0.0,0.0,0.0,0.0,0.0,0.0,0.0,0.0,0.0,0.0,0.0,0.0,0.0,0.0,0.0,0.0,0.0,0.0,0.0,0.0,0.0,0.0,0.0,0.0,0.0,0.0,0.0,0.0,0.0,0.0,0.0,0.0,0.0,0.0,0.0,0.0,0.0,0.0,0.0,0.0,0.0,0.0,0.0,0.0,0.1727,0.2711,0.2711,0.4453,0.5395,0.5395,0.5395,0.5395,0.5395,0.5395,0.5395,0.5395,0.5057,0.4251,0.3145,0.2476,0.1676,0.0806,0.0236,0.0,0.0,0.0,0.0,0.0,0.0,0.0,0.0,0.0,0.0,0.0,0.0,0.0,-0.6976,-0.6976,-0.6369,-0.5933,-0.5933,0.0,0.0,0.0,0.0,-0.5407,-0.5362,-0.4618,-0.4169,-0.4169,-0.3486,-0.3123,-0.324,-0.3243,-0.3214,-0.3238,-0.2891,-0.2368,-0.1604,-0.1252,-0.0707,0.0,0.0,0.0,0.0,0.0,0.0,0.0,0.0,0.0,0.0,0.0,0.0,0.0,0.0,0.0,0.0,0.0,0.0,0.0,0.0,0.0,0.0,0.0,0.0,0.0,0.0,0.0,0.0,0.0,0.0,0.0,0.0,0.0,0.0,0.0,0.0,0.0,0.0,0.0,0.0,0.0,0.0,0.0,0.0,0.0,0.0,0.0,0.0,0.0,0.0,0.0,0.0,0.0,0.0,0.0,0.0,0.0,0.0,0.0,0.1717,0.2973,0.358,0.4788,0.5395,0.5395,0.5395,0.5395,0.5395,0.5395,0.5395,0.5395,0.5395,0.4755,0.358,0.2978,0.2009,0.0806,0.0236,0.0,0.0,0.0,0.0,0.0,0.0,0.0,0.0,0.0,0.0,0.0,0.0,-0.6719,-0.574,-0.5737,-0.4539,-0.3618,-0.3614,0.0,0.0,0.0,0.0,0.0,-0.31,-0.3062,-0.3059,-0.3056,-0.3022,-0.3011,-0.3013,-0.3018,-0.3012,-0.3002,-0.206,-0.1565,-0.1563,-0.0497,0.0,0.0,0.0,0.0,0.0,0.0,0.0,0.0,0.0,0.0,0.0,0.0,0.0,0.0,0.0,0.0,0.0,0.0,0.0,0.0,0.0,0.0,0.0,0.0,0.0,0.0,0.0,0.0,0.0,0.0,0.0,0.0,0.0,0.0,0.0,0.0,0.0,0.0,0.0,0.0,0.0,0.0,0.0,0.0,0.0,0.0,0.0,0.0,0.0,0.0,0.0,0.0,0.0,0.0,0.0,0.0,0.0,0.0,0.0,0.0,0.1712,0.3543,0.5332,0.5395,0.5395,0.5395,0.5395,0.5395,0.5395,0.5395,0.5395,0.5395,0.5395,0.5395,0.5259,0.348,0.1677,0.0034,0.0,0.0,0.0,0.0,0.0,0.0,0.0,0.0,0.0,0.0,0.0,0.0,-0.512,-0.4677,-0.434,-0.4373,-0.3946,-0.3586,0.0,0.0,0.0,-0.3318,-0.3218,-0.313,-0.3089,-0.2435,-0.2002,-0.2003,-0.1291,-0.0839,-0.0845,-0.0861,-0.0872,-0.0839,-0.0596,-0.044,-0.0437,-0.0139,0.0,0.0,0.0,0.0,0.0,0.0,0.0,0.0,0.0,0.0,0.0,0.0,0.0,0.0,0.0,0.0,0.0,0.0,0.0,0.0,0.0,0.0,0.0,0.0,0.0,0.0,0.0,0.0,0.0,0.0,0.0,0.0,0.0,0.0,0.0,0.0,0.0,0.0,0.0,0.0,0.0,0.0,0.0,0.0,0.0,0.0,0.0,0.0,0.0,0.0,0.0,0.0,0.0,0.0,0.0,0.0,0.0,0.0,0.0,0.0,0.1732,0.3542,0.5329,0.5395,0.5395,0.5395,0.5395,0.5395,0.5395,0.5395,0.5395,0.5395,0.5395,0.5024,0.4317,0.3178,0.2043,0.0906,0.0269,0.0,0.0,0.0,0.0,0.0,0.0,0.0,0.0,0.0,0.0,-0.4016,-0.4016,-0.3463,-0.3067,-0.3032,-0.2487,-0.2111,0.0,0.0,0.0,-0.1919,-0.185,-0.1822,-0.1827,-0.126,-0.0917,-0.0932,-0.036,0.0,0.0,0.0,0.0,0.0,0.0,0.0,0.0,0.0,0.0,0.0,0.0,0.0,0.0,0.0,0.0,0.0,0.0,0.0,0.0,0.0,0.0,0.0,0.0,0.0,0.0,0.0,0.0,0.0,0.0,0.0,0.0,0.0,0.0,0.0,0.0,0.0,0.0,0.0,0.0,0.0,0.0,0.0,0.0,0.0,0.0,0.0,0.0,0.0,0.0,0.0,0.0,0.0,0.0,0.0,0.0,0.0,0.0,0.0,0.0,0.0,0.0,0.0,0.0,0.0,0.0,0.0,0.0341,0.1093,0.2127,0.3522,0.5329,0.5395,0.5395,0.5395,0.5395,0.5395,0.5395,0.5395,0.5395,0.5395,0.5395,0.509,0.4519,0.3245,0.2377,0.1775,0.0505,0.0,0.0,0.0,0.0,0.0,0.0,0.0,0.0,0.0,0.0,-0.3565,-0.3565,-0.2578,-0.1765,-0.1762,-0.076,0.0,0.0,0.0,0.0,0.0,0.0,0.0,0.0,0.0,0.0,0.0,0.0,0.0,0.0,0.0,0.0,0.0,0.0,0.0,0.0,0.0,0.0,0.0,0.0,0.0,0.0,0.0,0.0,0.0,0.0,0.0,0.0,0.0,0.0,0.0,0.0,0.0,0.0,0.0,0.0,0.0,0.0,0.0,0.0,0.0,0.0,0.0,0.0,0.0,0.0,0.0,0.0,0.0,0.0,0.0,0.0,0.0,0.0,0.0,0.0,0.0,0.0,0.0,0.0,0.0,0.0,0.0,0.0,0.0,0.0,0.0,0.0,0.0,0.0,0.0,0.0,0.0,0.0,0.0,0.0804,0.262,0.269,0.3513,0.5332,0.5395,0.5395,0.5395,0.5395,0.5395,0.5395,0.5395,0.5395,0.5395,0.5395,0.5395,0.5296,0.358,0.2778,0.2577,0.084,0.0101,0.0,0.0,0.0,0.0,0.0,0.0,0.0,-0.0754,-0.0756,-0.0756,-0.0756,-0.0553,-0.04,-0.0393,-0.0144,0.0,0.0,0.0,0.0,0.0,0.0,0.0,0.0,0.0,0.0,0.0,0.0,0.0,0.0,0.0,0.0,0.0,0.0,0.0,0.0,0.0,0.0,0.0,0.0,0.0,0.0,0.0,0.0,0.0,0.0,0.0,0.0,0.0,0.0,0.0,0.0,0.0,0.0,0.0,0.0,0.0,0.0,0.0,0.0,0.0,0.0,0.0,0.0,0.0,0.0,0.0,0.0,0.0,0.0,0.0,0.0,0.0,0.0,0.0,0.0,0.0,0.0,0.0,0.0,0.0,0.0,0.0,0.0,0.0,0.0,0.0,0.0,0.0,0.0,0.0,0.0,0.0,0.0,0.0,0.0789,0.2617,0.269,0.3513,0.5332,0.5395,0.5395,0.5395,0.5395,0.5395,0.5395,0.5395,0.5395,0.5395,0.5395,0.5395,0.5326,0.4217,0.3347,0.2611,0.1508,0.0638,0.0,0.0,0.0,0.0,0.0,0.0,0.0,0.0,0.0,0.0,0.0,0.0,0.0,0.0,0.0,0.0,0.0,0.0,0.0,0.0,0.0,0.0,0.0,0.0,0.0,0.0,0.0,0.0,0.0,0.0,0.0,0.0,0.0,0.0,0.0,0.0,0.0,0.0,0.0,0.0,0.0,0.0,0.0,0.0,0.0,0.0,0.0,0.0,0.0,0.0,0.0,0.0,0.0,0.0,0.0,0.0,0.0,0.0,0.0,0.0,0.0,0.0,0.0,0.0,0.0,0.0,0.0,0.0,0.0,0.0,0.0,0.0,0.0,0.0,0.0,0.0,0.0,0.0,0.0,0.0,0.0,0.0,0.0,0.0,0.0,0.0,0.0,0.0,0.0,0.0,0.0,0.0,0.0,0.0,0.0571,0.1928,0.2455,0.3303,0.4654,0.5162,0.5395,0.5395,0.5395,0.5395,0.5395,0.5395,0.5395,0.5395,0.5395,0.5395,0.5359,0.4417,0.3513,0.2611,0.1675,0.0772,0.0,0.0,0.0,0.0,0.0,0.0,0.0,0.0,0.0,0.0,0.0,0.0,0.0,0.0,0.0,0.0,0.0,0.0,0.0,0.0,0.0,0.0,0.0,0.0,0.0,0.0,0.0,0.0,0.0,0.0,0.0,0.0,0.0,0.0,0.0,0.0,0.0,0.0,0.0,0.0,0.0,0.0,0.0,0.0,0.0,0.0,0.0,0.0,0.0,0.0,0.0,0.0,0.0,0.0,0.0,0.0,0.0,0.0,0.0,0.0,0.0,0.0,0.0,0.0,0.0,0.0,0.0,0.0,0.0,0.0,0.0,0.0,0.0,0.0,0.0,0.0,0.0,0.0,0.0,0.0,0.0,0.0,0.0,0.0,0.0,0.0,0.0,0.0,0.0,0.0,0.0,0.0,0.0,0.0,0.0384,0.1247,0.222,0.3135,0.3978,0.4953,0.5426,0.5395,0.5395,0.5395,0.5395,0.5395,0.5395,0.5395,0.5395,0.5395,0.5359,0.4586,0.368,0.2644,0.1876,0.094,0.0,0.0,0.0,0.0,0.0,0.0,0.0,0.0,0.0,0.0,0.0,0.0,0.0,0.0,0.0,0.0,0.0,0.0,0.0,0.0,0.0,0.0,0.0,0.0,0.0,0.0,0.0,0.0,0.0,0.0,0.0,0.0,0.0,0.0,0.0,0.0,0.0,0.0,0.0,0.0,0.0,0.0,0.0,0.0,0.0,0.0,0.0,0.0,0.0,0.0,0.0,0.0,0.0,0.0,0.0,0.0,0.0,0.0,0.0,0.0,0.0,0.0,0.0,0.0,0.0,0.0,0.0,0.0,0.0,0.0,0.0,0.0,0.0,0.0,0.0,0.0,0.0,0.0,0.0,0.0,0.0,0.0,0.0,0.0,0.0,0.0,0.0,0.0,0.0,0.0,0.0,0.0,0.0,0.0,0.037,0.1245,0.2295,0.3233,0.398,0.5011,0.5532,0.5395,0.5395,0.5395,0.5395,0.5395,0.5395,0.5395,0.5395,0.5395,0.5395,0.5292,0.4284,0.2678,0.2577,0.1543,0.0,0.0,0.0,0.0,0.0,0.0,0.0,0.0,0.0,0.0,0.0,0.0,0.0,0.0,0.0,0.0,0.0,0.0,0.0,0.0,0.0,0.0,0.0,0.0,0.0,0.0,0.0,0.0,0.0,0.0,0.0,0.0,0.0,0.0,0.0,0.0,0.0,0.0,0.0,0.0,0.0,0.0,0.0,0.0,0.0,0.0,0.0,0.0,0.0,0.0,0.0,0.0,0.0,0.0,0.0,0.0,0.0,0.0,0.0,0.0,0.0,0.0,0.0,0.0,0.0,0.0,0.0,0.0,0.0,0.0,0.0,0.0,0.0,0.0,0.0,0.0,0.0,0.0,0.0,0.0,0.0,0.0,0.0,0.0,0.0,0.0,0.0,0.0,0.0,0.0,0.0,0.0,0.0,0.0,0.0148,0.054,0.2054,0.3006,0.3252,0.4786,0.5549,0.5395,0.5395,0.5395,0.5395,0.5395,0.5395,0.5395,0.5395,0.5395,0.5395,0.5395,0.4386,0.2711,0.2711,0.1643,0.0,0.0,0.0,0.0,0.0,0.0,0.0,0.0,0.0,0.0,0.0,0.0,0.0,0.0,0.0,0.0,0.0,0.0,0.0,0.0,0.0,0.0,0.0,0.0,0.0,0.0,0.0,0.0,0.0,0.0,0.0,0.0,0.0,0.0,0.0,0.0,0.0,0.0,0.0,0.0,0.0,0.0,0.0,0.0,0.0,0.0,0.0,0.0,0.0,0.0,0.0,0.0,0.0,0.0,0.0,0.0,0.0,0.0,0.0,0.0,0.0,0.0,0.0,0.0,0.0,0.0,0.0,0.0,0.0,0.0,0.0,0.0,0.0,0.0,0.0,0.0,0.0,0.0,0.0,0.0,0.0,0.0,0.0,0.0,0.0,0.0,0.0,0.0,0.0,0.0,0.0,0.0,0.0,0.0,0.0,0.0,0.1618,0.26,0.2753,0.4364,0.5296,0.546,0.5416,0.5395,0.5395,0.5395,0.5395,0.5395,0.5395,0.5395,0.5395,0.5123,0.4148,0.2678,0.241,0.141,0.0,0.0,0.0,0.0,0.0,0.0,0.0,0.0,0.0,0.0,0.0,0.0,0.0,0.0,0.0,0.0,0.0,0.0,0.0,0.0,0.0,0.0,0.0,0.0,0.0,0.0,0.0,0.0,0.0,0.0,0.0,0.0,0.0,0.0,0.0,0.0,0.0,0.0,0.0,0.0,0.0,0.0,0.0,0.0,0.0,0.0,0.0,0.0,0.0,0.0,0.0,0.0,0.0,0.0,0.0,0.0,0.0,0.0,0.0,0.0,0.0,0.0,0.0,0.0,0.0,0.0,0.0,0.0,0.0,0.0,0.0,0.0,0.0,0.0,0.0,0.0,0.0,0.0,0.0,0.0,0.0,0.0,0.0,0.0,0.0,0.0,0.0,0.0,0.0,0.0,0.0,0.0,0.0,0.0,0.0,0.0,0.1058,0.2012,0.2866,0.3786,0.4692,0.5586,0.547,0.5395,0.5395,0.5395,0.5395,0.5395,0.5395,0.5395,0.5359,0.4453,0.3547,0.2644,0.1708,0.0806,0.0,0.0,0.0,0.0,0.0,0.0,0.0,0.0,0.0,0.0,0.0,0.0,0.0,0.0,0.0,0.0,0.0,0.0,0.0,0.0,0.0,0.0,0.0,0.0,0.0,0.0,0.0,0.0,0.0,0.0,0.0,0.0,0.0,0.0,0.0,0.0,0.0,0.0,0.0,0.0,0.0,0.0,0.0,0.0,0.0,0.0,0.0,0.0,0.0,0.0,0.0,0.0,0.0,0.0,0.0,0.0,0.0,0.0,0.0,0.0,0.0,0.0,0.0,0.0,0.0,0.0,0.0,0.0,0.0,0.0,0.0,0.0,0.0,0.0,0.0,0.0,0.0,0.0,0.0,0.0,0.0,0.0,0.0,0.0,0.0,0.0,0.0,0.0,0.0,0.0,0.0,0.0,0.0,0.0,0.0,0.0,0.102,0.1666,0.1851,0.3383,0.4301,0.4535,0.5097,0.5395,0.5395,0.5395,0.5395,0.5395,0.5395,0.5057,0.4453,0.4148,0.3145,0.1756,0.1446,0.0802,0.0,0.0,0.0,0.0,0.0,0.0,0.0,0.1278,0.1287,0.1031,0.0135,0.0,0.0,0.0,0.0,0.0,0.0,0.0,0.0,0.0,0.0,0.0,0.0,0.0,0.0,0.0,0.0,0.0,0.0,0.0,0.0,0.0,0.0,0.0,0.0,0.0,0.0,0.0,0.0,0.0,0.0,0.0,0.0,0.0,0.0,0.0,0.0,0.0,0.0283,0.0,0.0192,0.0,0.0,0.0,0.0,0.0,0.0,0.0,0.0,0.0,0.0,0.0,0.0,0.0,0.0,0.0,0.0,0.0,0.0,0.0,0.0,0.0,0.0,0.0,0.0,0.0,0.0,0.0,0.0,0.0,0.0,0.0,0.0,0.0,0.0,0.0,0.0,0.0,0.0,0.0,0.0,0.0,0.0,0.0,0.0,0.0,0.0667,0.1129,0.1417,0.2536,0.3321,0.3589,0.4159,0.462,0.4968,0.4968,0.5173,0.5518,0.5139,0.4654,0.4032,0.3344,0.2368,0.1275,0.0957,0.0502,0.0,0.0,0.0,0.0,0.0,0.0,0.0,0.3624,0.3616,0.2907,0.0584,0.018,0.018,0.018,0.0137,0.0093,0.0093,0.0047,0.0,0.0,0.0,0.0,0.0,0.0,0.0,0.0,0.0,0.0,0.0,0.0,0.0,0.0,0.0,0.0036,0.007,0.0031,0.0029,0.0059,0.0028,0.0,0.0,0.0058,0.0,0.0,0.004,0.0044,0.0,0.0151,0.0906,0.1851,0.0642,0.014,0.0088,0.0047,0.0,0.0,0.0,0.0,0.0,0.0,0.0,0.0,0.0,0.0,0.0,0.0,0.0,0.0,0.0,0.0,0.0,0.0,0.0,0.0,0.0,0.0,0.0,0.0,0.0,0.0,0.0,0.0,0.0,0.0,0.0,0.0,0.0,0.0,0.0,0.0,0.0,0.0,0.0,0.0,0.0,0.0,0.0,0.0469,0.1489,0.1377,0.1774,0.283,0.2795,0.3266,0.421,0.4246,0.479,0.5692,0.4679,0.4138,0.3957,0.2105,0.1273,0.1166,0.0328,0.0,0.0,0.0,0.0,0.0,0.0,0.0,0.0,0.3594,0.3669,0.3564,0.2926,0.2754,0.2709,0.2795,0.1997,0.1354,0.1347,0.0534,0.0,0.0,0.0,0.0,0.0,0.0,0.0,0.0,0.0,0.0,0.0,0.0,0.0,0.0,0.0,0.0333,0.0973,0.0316,0.0324,0.094,0.0313,0.0,0.0028,0.0666,0.0595,0.0039,0.0684,0.0578,0.0151,0.2163,0.2599,0.2087,0.2706,0.2359,0.1354,0.0367,0.0,0.0,0.0,0.0,0.0,0.0,0.0,0.0,0.0,0.0,0.0,0.0,0.0,0.0,0.0,0.0,0.0,0.0,0.0,0.0,0.0,0.0,0.0,0.0,0.0,0.0,0.0,0.0,0.0,0.0,0.0,0.0,0.0,0.0,0.0,0.0,0.0,0.0,0.0,0.0,0.0,0.0,0.0,0.0111,0.0392,0.0995,0.1435,0.1698,0.3125,0.3957,0.421,0.5006,0.5114,0.4607,0.4318,0.3411,0.2034,0.1526,0.0919,0.03,0.0075,0.0,0.0,0.0,0.0,0.0,0.0,0.0,0.0,0.5262,0.5388,0.5459,0.5459,0.5407,0.5037,0.4022,0.306,0.2487,0.2565,0.1971,0.1553,0.157,0.1695,0.1762,0.1762,0.1762,0.175,0.1771,0.1761,0.1759,0.1769,0.1772,0.1755,0.1725,0.1746,0.1906,0.217,0.1637,0.1528,0.1826,0.1229,0.095,0.098,0.0,0.1551,0.1127,0.1902,0.194,0.1653,0.3332,0.3893,0.0,0.392,0.3914,0.3482,0.1582,0.0506,0.0,0.0,0.0359,0.0807,0.0807,0.1165,0.1478,0.0942,0.0807,0.0807,0.0807,0.0401,0.0131,0.0665,0.04,0.0,0.0,0.0,0.0,0.0,0.0,0.0,0.0,0.0,0.0,0.0,0.0,0.0,0.0,0.0,0.0,0.0,0.0,0.0,0.0,0.0,0.0,0.0,0.0,0.0,0.0,0.0,0.0,0.0,0.0493,0.0714,0.073,0.1814,0.2607,0.3078,0.3676,0.3861,0.3711,0.3265,0.2478,0.1391,0.0941,0.0455,0.0,0.0,0.0,0.0,0.0,0.0,0.0,0.0,0.0,0.0,0.7446,0.7522,0.7621,0.7604,0.7614,0.691,0.481,0.3979,0.3687,0.3843,0.373,0.3634,0.3634,0.3841,0.4016,0.4016,0.4016,0.4011,0.3979,0.3995,0.4009,0.4023,0.3997,0.4016,0.4016,0.3987,0.3838,0.3461,0.3231,0.2939,0.2624,0.2327,0.0,0.0,0.0,0.0,0.0,0.3391,0.3551,0.3555,0.4232,0.5122,0.5877,0.492,0.516,0.57,0.3349,0.1534,0.0225,0.0045,0.0807,0.179,0.179,0.2637,0.3392,0.2325,0.2057,0.2057,0.2057,0.1165,0.0536,0.1744,0.111,0.0248,0.0388,0.0412,0.0404,0.0404,0.0284,0.0212,0.0191,0.0101,0.0,0.0,0.0,0.0,0.0,0.0,0.0,0.0,0.0,0.0,0.0,0.0,0.0,0.0,0.0,0.0,0.0,0.0,0.0,0.0,0.0,0.0,0.0,0.015,0.0675,0.1592,0.1719,0.219,0.289,0.1996,0.1528,0.1333,0.0392,0.0,0.0,0.0,0.0,0.0,0.0,0.0,0.0,0.0,0.0,0.0,0.756,0.7675,0.7736,0.7621,0.7695,0.7626,0.7189,0.6133,0.5391,0.541,0.4569,0.3927,0.3927,0.395,0.4016,0.4016,0.4016,0.4005,0.398,0.4002,0.4004,0.3978,0.4002,0.4016,0.4016,0.3987,0.4076,0.4275,0.3497,0.3208,0.3394,0.2584,0.2202,0.0,0.0,0.0,0.417,0.4635,0.4433,0.4109,0.6399,0.6781,0.6079,0.698,0.675,0.5942,0.5348,0.3648,0.1467,0.0361,0.0807,0.179,0.179,0.2637,0.357,0.3349,0.3304,0.3304,0.3304,0.2413,0.1781,0.2961,0.2301,0.1581,0.2499,0.263,0.2546,0.2546,0.188,0.132,0.1332,0.0592,0.0,0.0,0.0,0.0,0.0,0.0,0.0,0.0,0.0,0.0,0.0,0.0,0.0,0.0,0.0,0.0,0.0,0.0,0.0,0.0,0.0,0.0,0.0,0.0876,0.1409,0.1622,0.2454,0.2501,0.1841,0.1685,0.1098,0.0275,0.0079,0.0,0.0,0.0,0.0,0.0,0.0,0.0,0.0,0.0,0.0,0.0,0.7709,0.7763,0.779,0.7723,0.7767,0.7811,0.7811,0.7287,0.689,0.6756,0.6208,0.5853,0.5853,0.6002,0.6071,0.6071,0.6071,0.6071,0.6071,0.6071,0.6071,0.6071,0.6071,0.6071,0.6071,0.6063,0.589,0.554,0.5001,0.454,0.4158,0.3626,0.34,0.3416,0.0,0.4825,0.0,0.5981,0.6078,0.5875,0.7396,0.7637,0.7083,0.7736,0.7595,0.6914,0.6087,0.4996,0.3773,0.2351,0.2236,0.286,0.3486,0.4463,0.5307,0.4685,0.4552,0.4552,0.4552,0.366,0.3031,0.4234,0.3521,0.2631,0.318,0.3207,0.3085,0.3085,0.2696,0.2219,0.1702,0.0719,0.0,0.0,0.0,0.0,0.0,0.0,0.0,0.0,0.0,0.0,0.0,0.0,0.0,0.0,0.0,0.0,0.0,0.0,0.0,0.0,0.0,0.0,0.0,0.0,0.0756,0.0758,0.1278,0.1254,0.0784,0.0784,0.0471,0.0,0.0,0.0,0.0,0.0,0.0,0.0,0.0,0.0,0.0,0.0,0.0,0.0,0.7862,0.7862,0.7848,0.7818,0.7838,0.7848,0.7818,0.7891,0.7907,0.7723,0.7692,0.7692,0.7692,0.785,0.7988,0.7988,0.7988,0.7988,0.7988,0.7988,0.7988,0.7988,0.7988,0.7988,0.7988,0.7988,0.757,0.6614,0.6416,0.5805,0.4859,0.4607,0.4559,0.4709,0.531,0.5742,0.6139,0.697,0.7397,0.7543,0.7847,0.7988,0.7988,0.7988,0.7988,0.7852,0.6666,0.6042,0.566,0.4729,0.421,0.415,0.509,0.616,0.6918,0.6027,0.5761,0.5761,0.5761,0.491,0.4283,0.5447,0.4672,0.3728,0.3976,0.3879,0.3787,0.3787,0.3593,0.3056,0.1843,0.0909,0.0258,0.0031,0.0,0.0,0.0,0.0,0.0,0.0,0.0,0.0,0.0,0.0,0.0,0.0,0.0,0.0,0.0,0.0,0.0,0.0,0.0,0.0,0.0,0.0,0.0,0.0,0.0,0.0,0.0,0.0,0.0,0.0,0.0,0.0,0.0,0.0,0.0,0.0,0.0,0.0,0.0,0.0,0.0,0.0039,0.7968,0.7968,0.7924,0.7834,0.7926,0.7921,0.7831,0.7891,0.7978,0.7951,0.7948,0.7948,0.7948,0.7975,0.7988,0.7988,0.7988,0.7988,0.7988,0.7988,0.7988,0.7988,0.7988,0.7988,0.7988,0.7988,0.7675,0.7034,0.6529,0.5969,0.5317,0.4754,0.4781,0.5313,0.5385,0.5989,0.6977,0.7075,0.7432,0.7931,0.7971,0.7988,0.7988,0.7988,0.7988,0.7968,0.7702,0.6834,0.5907,0.6752,0.6259,0.527,0.5359,0.616,0.7095,0.6962,0.6962,0.6962,0.6962,0.6115,0.5492,0.665,0.5838,0.5027,0.6114,0.6187,0.5983,0.5983,0.5237,0.3935,0.1949,0.1511,0.1139,0.0158,0.0,0.0,0.0,0.0,0.0,0.0,0.0,0.0,0.0,0.0,0.0,0.0,0.0,0.0,0.0,0.0,0.0,0.0,0.0,0.0,0.0,0.0,0.0,0.0,0.0,0.0,0.0,0.0,0.0,0.0,0.0,0.0,0.0,0.0,0.0,0.0,0.0,0.0,0.0,0.0,0.0,0.0157,0.7988,0.7917,0.7913,0.7894,0.7874,0.7913,0.7894,0.7951,0.7988,0.7988,0.7988,0.7988,0.7988,0.7988,0.7988,0.7988,0.7988,0.7988,0.7988,0.7988,0.7988,0.7988,0.7988,0.7988,0.7988,0.7988,0.7695,0.7095,0.6634,0.6119,0.5528,0.5283,0.5446,0.5955,0.6271,0.6654,0.7119,0.7479,0.7769,0.7988,0.7988,0.7988,0.7988,0.7988,0.7988,0.7958,0.777,0.7357,0.6895,0.7131,0.643,0.5536,0.6204,0.6738,0.7095,0.7095,0.7095,0.7095,0.7095,0.6782,0.6517,0.7007,0.6594,0.6217,0.6594,0.6539,0.6402,0.6317,0.5431,0.4452,0.3609,0.292,0.2367,0.1935,0.1343,0.0,0.0,0.0,0.0,0.0,0.0,0.0,0.0,0.0,0.0,0.0,0.0,0.0,0.0,0.0,0.0,0.0,0.0,0.0,0.0,0.0,0.0,0.0,0.0,0.0,0.0,0.0,0.0,0.0,0.0,0.0,0.0,0.0,0.0,0.0,0.0,0.0,0.0,0.0,0.0,0.0079,0.7988,0.7901,0.7913,0.7971,0.7901,0.7916,0.7975,0.7988,0.7988,0.7988,0.7988,0.7988,0.7988,0.7988,0.7988,0.7988,0.7988,0.7988,0.7988,0.7988,0.7988,0.7988,0.7988,0.7988,0.7988,0.7988,0.7783,0.7358,0.6909,0.6454,0.6044,0.5867,0.6047,0.6536,0.691,0.7193,0.7388,0.781,0.7988,0.7988,0.7988,0.7988,0.7988,0.7988,0.7988,0.7965,0.7804,0.7675,0.7567,0.735,0.663,0.6027,0.683,0.7095,0.7095,0.7095,0.7095,0.7095,0.7095,0.7095,0.7095,0.7095,0.6991,0.6846,0.6736,0.6583,0.647,0.633,0.5709,0.5079,0.4766,0.4082,0.3467,0.3161,0.2507,0.2047,0.0,0.1375,0.0,0.0,0.0,0.0352,0.0036,0.0,0.0,0.0,0.0,0.0,0.0,0.0,0.0,0.0,0.0,0.0,0.0,0.0,0.0,0.0,0.0,0.0,0.0,0.0,0.0,0.0,0.0,0.0,0.0,0.0,0.0,0.0,0.0,0.0,0.0,0.0,0.0196,0.051,0.7988,0.7988,0.7988,0.7988,0.7988,0.7988,0.7988,0.7988,0.7988,0.7988,0.7988,0.7988,0.7988,0.7988,0.7988,0.7988,0.7988,0.7988,0.7988,0.7988,0.7988,0.7988,0.7988,0.7988,0.7988,0.7988,0.7985,0.7978,0.7378,0.7085,0.7065,0.6525,0.6566,0.7085,0.7092,0.7425,0.7978,0.7985,0.7988,0.7988,0.7988,0.7988,0.7988,0.7988,0.7988,0.7988,0.7985,0.7848,0.76,0.7597,0.7348,0.7095,0.7095,0.7095,0.7095,0.7095,0.7095,0.7095,0.7095,0.7095,0.7095,0.7095,0.6991,0.6846,0.6736,0.6583,0.647,0.633,0.63,0.5944,0.4882,0.4683,0.4344,0.3256,0.309,0.3082,0.0,0.3075,0.0,0.0,0.1577,0.1156,0.01,0.0,0.0,0.0,0.0,0.0,0.0,0.0,0.0,0.0,0.0,0.0,0.0,0.0,0.0,0.0,0.0,0.0,0.0,0.0,0.0,0.0,0.0,0.0,0.0,0.0,0.0,0.0,0.0,0.0,0.0,0.0,0.0667,0.1723,0.7988,0.7988,0.7988,0.7988,0.7988,0.7988,0.7988,0.7988,0.7988,0.7988,0.7988,0.7988,0.7988,0.7988,0.7988,0.7988,0.7988,0.7988,0.7988,0.7988,0.7988,0.7988,0.7988,0.7988,0.7988,0.7988,0.7988,0.7988,0.7543,0.7299,0.7292,0.7149,0.7282,0.7705,0.7705,0.781,0.7988,0.7988,0.7988,0.7988,0.7988,0.7988,0.7988,0.7988,0.7988,0.7975,0.7874,0.776,0.7584,0.7478,0.7309,0.7095,0.7095,0.7095,0.7095,0.7095,0.7095,0.7095,0.7095,0.7095,0.7095,0.7095,0.7061,0.6991,0.6846,0.6658,0.647,0.633,0.63,0.6183,0.5867,0.5786,0.5665,0.5344,0.4655,0.4185,0.4202,0.0,0.2999,0.2652,0.2607,0.2228,0.1192,0.1081,0.0,0.0,0.0,0.0,0.0,0.0,0.0,0.0,0.0,0.0,0.0,0.0,0.0,0.0,0.0,0.0,0.0,0.0,0.0,0.0,0.0,0.0,0.0,0.0,0.0,0.0,0.0,0.0,0.0,0.0,0.0667,0.1645,0.7988,0.7988,0.7988,0.7988,0.7988,0.7988,0.7988,0.7988,0.7988,0.7988,0.7988,0.7988,0.7988,0.7988,0.7988,0.7988,0.7988,0.7988,0.7988,0.7988,0.7988,0.7988,0.7988,0.7988,0.7988,0.7988,0.7988,0.7988,0.776,0.7624,0.7624,0.7624,0.7773,0.7988,0.7988,0.7988,0.7988,0.7988,0.7988,0.7988,0.7988,0.7988,0.7988,0.7988,0.7988,0.7978,0.788,0.777,0.7587,0.7489,0.7316,0.7095,0.7095,0.7095,0.7095,0.7095,0.7095,0.7095,0.7095,0.7095,0.7095,0.7095,0.7095,0.7058,0.6916,0.6692,0.6487,0.6399,0.6337,0.63,0.63,0.63,0.63,0.63,0.5747,0.5315,0.5315,0.4727,0.4162,0.0,0.0,0.329,0.0,0.1808,0.1312,0.0,0.0,0.0,0.0,0.0,0.0,0.0,0.0,0.0,0.0,0.0,0.0,0.0,0.0,0.0,0.0,0.0,0.0,0.0,0.0,0.0,0.0,0.0,0.0,0.0,0.0,0.0,0.0,0.0,0.0902,0.2151,0.7988,0.7988,0.7988,0.7988,0.7988,0.7988,0.7988,0.7988,0.7988,0.7988,0.7988,0.7988,0.7988,0.7988,0.7988,0.7988,0.7988,0.7988,0.7988,0.7988,0.7988,0.7988,0.7988,0.7988,0.7988,0.7988,0.7988,0.7988,0.7988,0.7988,0.7988,0.7988,0.7988,0.7988,0.7988,0.7988,0.7988,0.7988,0.7988,0.7988,0.7988,0.7988,0.7988,0.7988,0.7988,0.7988,0.7988,0.7848,0.76,0.76,0.7394,0.7095,0.7095,0.7095,0.7095,0.7095,0.7095,0.7095,0.7095,0.7095,0.7095,0.7095,0.7095,0.7058,0.6916,0.6709,0.6538,0.6515,0.6405,0.6313,0.6303,0.63,0.63,0.63,0.63,0.63,0.63,0.63,0.5938,0.4944,0.4818,0.4372,0.332,0.2372,0.1764,0.0,0.0,0.0,0.0,0.0,0.0,0.0,0.0,0.0,0.0,0.0,0.0,0.0,0.0,0.0,0.0,0.0,0.0,0.0,0.0,0.0,0.0,0.0,0.0,0.0,0.0,0.0,0.0,0.0,0.1331,0.3085,0.7988,0.7988,0.7988,0.7988,0.7988,0.7988,0.7988,0.7988,0.7988,0.7988,0.7988,0.7988,0.7988,0.7988,0.7988,0.7988,0.7988,0.7988,0.7988,0.7988,0.7988,0.7988,0.7988,0.7988,0.7988,0.7988,0.7988,0.7988,0.7988,0.7988,0.7988,0.7988,0.7988,0.7988,0.7988,0.7988,0.7988,0.7988,0.7988,0.7988,0.7988,0.7988,0.7988,0.7988,0.7988,0.7988,0.7988,0.7848,0.76,0.76,0.7394,0.7095,0.7095,0.7095,0.7095,0.7095,0.7095,0.7095,0.7095,0.7095,0.7095,0.7095,0.7095,0.7058,0.6916,0.6829,0.6756,0.6559,0.6484,0.6429,0.632,0.63,0.63,0.63,0.63,0.63,0.63,0.63,0.621,0.5952,0.5935,0.5517,0.4415,0.4112,0.3313,0.0,0.0,0.0845,0.0036,0.0,0.0,0.0,0.0,0.0,0.0,0.0,0.0,0.0,0.0,0.0,0.0,0.0,0.0,0.0,0.0,0.0,0.0,0.0,0.0,0.0,0.0,0.0,0.0,0.0,0.1331,0.3085,0.7988,0.7988,0.7988,0.7988,0.7988,0.7988,0.7988,0.7988,0.7988,0.7988,0.7988,0.7988,0.7988,0.7988,0.7988,0.7988,0.7988,0.7988,0.7988,0.7988,0.7988,0.7988,0.7988,0.7988,0.7988,0.7988,0.7988,0.7988,0.7988,0.7988,0.7988,0.7988,0.7988,0.7988,0.7988,0.7988,0.7988,0.7988,0.7988,0.7988,0.7988,0.7988,0.7988,0.7988,0.7988,0.7988,0.7988,0.7843,0.7685,0.7621,0.7441,0.7234,0.7119,0.7095,0.7095,0.7095,0.7095,0.7095,0.7095,0.7095,0.7095,0.7095,0.7095,0.7078,0.7001,0.693,0.6839,0.6715,0.6569,0.6491,0.6412,0.6344,0.63,0.63,0.63,0.63,0.63,0.63,0.63,0.63,0.63,0.606,0.5473,0.5002,0.4227,0.3101,0.2572,0.1832,0.0777,0.0749,0.0496,0.0,0.0,0.0,0.0,0.0,0.0,0.0,0.0,0.0,0.0,0.0,0.0,0.0,0.0,0.0,0.0,0.0,0.0,0.0,0.0,0.0,0.0079,0.0549,0.1722,0.3163,0.7988,0.7988,0.7988,0.7988,0.7988,0.7988,0.7988,0.7988,0.7988,0.7988,0.7988,0.7988,0.7988,0.7988,0.7988,0.7988,0.7988,0.7988,0.7988,0.7988,0.7988,0.7988,0.7988,0.7988,0.7988,0.7988,0.7988,0.7988,0.7988,0.7988,0.7988,0.7988,0.7988,0.7988,0.7988,0.7988,0.7988,0.7988,0.7988,0.7988,0.7988,0.7988,0.7988,0.7988,0.7988,0.7988,0.7988,0.7891,0.7794,0.7672,0.7516,0.735,0.7217,0.7115,0.7095,0.7095,0.7095,0.7095,0.7095,0.7095,0.7095,0.7095,0.7095,0.7095,0.7095,0.7004,0.6913,0.6889,0.6722,0.6573,0.6552,0.6429,0.6317,0.6272,0.6282,0.6282,0.6235,0.6269,0.63,0.63,0.63,0.63,0.63,0.5473,0.4882,0.4727,0.3865,0.2891,0.188,0.1685,0.1176,0.0275,0.0079,0.0,0.0,0.0,0.0,0.0,0.0,0.0,0.0,0.0,0.0,0.0,0.0,0.0,0.0,0.0,0.0,0.0,0.0,0.0,0.0118,0.102,0.2112,0.324,0.7988,0.7988,0.7988,0.7988,0.7988,0.7988,0.7988,0.7988,0.7988,0.7988,0.7988,0.7988,0.7988,0.7988,0.7988,0.7988,0.7988,0.7988,0.7988,0.7988,0.7988,0.7988,0.7988,0.7988,0.7988,0.7988,0.7988,0.7988,0.7988,0.7988,0.7988,0.7988,0.7988,0.7988,0.7988,0.7988,0.7988,0.7988,0.7988,0.7988,0.7988,0.7988,0.7988,0.7988,0.7988,0.7988,0.7988,0.7891,0.7807,0.7787,0.7597,0.7412,0.7343,0.7244,0.7095,0.7095,0.7095,0.7095,0.7095,0.7095,0.7095,0.7095,0.7095,0.7095,0.7095,0.7078,0.7031,0.691,0.6849,0.6817,0.6688,0.6539,0.6356,0.6105,0.6176,0.6207,0.5908,0.6136,0.63,0.63,0.63,0.63,0.63,0.6141,0.567,0.4766,0.453,0.3984,0.2929,0.2074,0.1528,0.1372,0.0471,0.0,0.0,0.0,0.0,0.0,0.0,0.0,0.0,0.0,0.0,0.0,0.0,0.0,0.0,0.0,0.0,0.0,0.0,0.0,0.0039,0.0196,0.1448,0.3124,0.7988,0.7988,0.7988,0.7988,0.7988,0.7988,0.7988,0.7988,0.7988,0.7988,0.7988,0.7988,0.7988,0.7988,0.7988,0.7988,0.7988,0.7988,0.7988,0.7988,0.7988,0.7988,0.7988,0.7988,0.7988,0.7988,0.7988,0.7988,0.7988,0.7988,0.7988,0.7988,0.7988,0.7988,0.7988,0.7988,0.7988,0.7988,0.7988,0.7988,0.7988,0.7988,0.7988,0.7988,0.7988,0.7988,0.7988,0.7944,0.7874,0.7838,0.7672,0.7482,0.7443,0.7265,0.7095,0.7095,0.7095,0.7095,0.7095,0.7095,0.7095,0.7095,0.7095,0.7095,0.7095,0.7095,0.7078,0.7011,0.694,0.6866,0.6834,0.663,0.6467,0.6291,0.6303,0.6248,0.6105,0.6207,0.63,0.63,0.63,0.63,0.63,0.63,0.6103,0.5589,0.555,0.5079,0.4021,0.3517,0.2738,0.1646,0.0549,0.0,0.0,0.0,0.0,0.0,0.0,0.0,0.0,0.0,0.0,0.0,0.0,0.0,0.0,0.0,0.0,0.0,0.0,0.0,0.0079,0.0667,0.1488,0.2464,0.7988,0.7988,0.7988,0.7988,0.7988,0.7988,0.7988,0.7988,0.7988,0.7988,0.7988,0.7988,0.7988,0.7988,0.7988,0.7988,0.7988,0.7988,0.7988,0.7988,0.7988,0.7988,0.7988,0.7988,0.7988,0.7988,0.7988,0.7988,0.7988,0.7988,0.7988,0.7988,0.7988,0.7988,0.7988,0.7988,0.7988,0.7988,0.7988,0.7988,0.7988,0.7988,0.7988,0.7988,0.7988,0.7988,0.7988,0.7988,0.7971,0.7902,0.7746,0.758,0.7461,0.7292,0.7095,0.7095,0.7095,0.7095,0.7095,0.7095,0.7095,0.7095,0.7095,0.7095,0.7095,0.7095,0.7095,0.7095,0.7011,0.6933,0.6933,0.6729,0.6542,0.6474,0.6371,0.6276,0.6201,0.6252,0.63,0.63,0.63,0.63,0.63,0.63,0.63,0.63,0.63,0.5944,0.5118,0.4844,0.375,0.1685,0.0549,0.0,0.0,0.0,0.0,0.0,0.0,0.0,0.0,0.0,0.0,0.0,0.0,0.0,0.0,0.0,0.0,0.0,0.0,0.0,0.0118,0.0941,0.1372,0.188,0.7988,0.7988,0.7988,0.7988,0.7988,0.7988,0.7988,0.7988,0.7988,0.7988,0.7988,0.7988,0.7988,0.7988,0.7988,0.7988,0.7988,0.7988,0.7988,0.7988,0.7988,0.7988,0.7988,0.7988,0.7988,0.7988,0.7988,0.7988,0.7988,0.7988,0.7988,0.7988,0.7988,0.7988,0.7988,0.7988,0.7988,0.7988,0.7988,0.7988,0.7988,0.7988,0.7988,0.7988,0.7988,0.7988,0.7988,0.7988,0.7988,0.7978,0.7834,0.7597,0.7587,0.738,0.7095,0.7095,0.7095,0.7095,0.7095,0.7095,0.7095,0.7095,0.7095,0.7095,0.7095,0.7095,0.7095,0.7095,0.7088,0.7082,0.7082,0.6885,0.6597,0.6361,0.6306,0.6201,0.5874,0.6119,0.63,0.63,0.63,0.63,0.63,0.63,0.63,0.63,0.63,0.6261,0.618,0.5237,0.375,0.1685,0.0549,0.0,0.0,0.0,0.0,0.0,0.0,0.0,0.0,0.0,0.0,0.0,0.0,0.0,0.0,0.0,0.0,0.0,0.0,0.0,0.0,0.0079,0.0745,0.1762,0.7988,0.7988,0.7988,0.7988,0.7988,0.7988,0.7988,0.7988,0.7988,0.7988,0.7988,0.7988,0.7988,0.7988,0.7988,0.7988,0.7988,0.7988,0.7988,0.7988,0.7988,0.7988,0.7988,0.7988,0.7988,0.7988,0.7988,0.7988,0.7988,0.7988,0.7988,0.7988,0.7988,0.7988,0.7988,0.7988,0.7988,0.7988,0.7988,0.7988,0.7988,0.7988,0.7988,0.7988,0.7988,0.7988,0.7988,0.7988,0.7988,0.7988,0.7853,0.7716,0.7628,0.7455,0.7265,0.7125,0.7095,0.7095,0.7095,0.7095,0.7095,0.7095,0.7095,0.7095,0.7095,0.7095,0.7095,0.7095,0.7095,0.7095,0.7095,0.6933,0.6773,0.6566,0.6494,0.6361,0.6153,0.6224,0.63,0.63,0.63,0.63,0.63,0.63,0.63,0.63,0.63,0.63,0.63,0.5276,0.4336,0.3556,0.2462,0.1292,0.0,0.0,0.0,0.0,0.0,0.0,0.0,0.0,0.0,0.0,0.0,0.0,0.0,0.0,0.0,0.0,0.0,0.0392,0.098,0.098,0.1644,0.2696,0.7988,0.7988,0.7988,0.7988,0.7988,0.7988,0.7988,0.7988,0.7988,0.7988,0.7988,0.7988,0.7988,0.7988,0.7988,0.7988,0.7988,0.7988,0.7988,0.7988,0.7988,0.7988,0.7988,0.7988,0.7988,0.7988,0.7988,0.7988,0.7988,0.7988,0.7988,0.7988,0.7988,0.7988,0.7988,0.7988,0.7988,0.7988,0.7988,0.7988,0.7988,0.7988,0.7988,0.7988,0.7988,0.7988,0.7988,0.7988,0.7988,0.7988,0.786,0.7729,0.7631,0.7461,0.7278,0.7129,0.7095,0.7095,0.7095,0.7095,0.7095,0.7095,0.7095,0.7095,0.7095,0.7095,0.7095,0.7095,0.7095,0.7095,0.7095,0.698,0.6852,0.679,0.6603,0.6477,0.6378,0.6327,0.63,0.63,0.63,0.63,0.63,0.63,0.63,0.63,0.63,0.63,0.63,0.5589,0.504,0.4727,0.3982,0.2773,0.0979,0.0667,0.0314,0.0,0.0,0.0,0.0,0.0,0.0,0.0,0.0,0.0,0.0,0.0,0.0,0.0,0.0,0.0432,0.1097,0.1097,0.1761,0.2774,0.7988,0.7988,0.7988,0.7988,0.7988,0.7988,0.7988,0.7988,0.7988,0.7988,0.7988,0.7988,0.7988,0.7988,0.7988,0.7988,0.7988,0.7988,0.7988,0.7988,0.7988,0.7988,0.7988,0.7988,0.7988,0.7988,0.7988,0.7988,0.7988,0.7988,0.7988,0.7988,0.7988,0.7988,0.7988,0.7988,0.7988,0.7988,0.7988,0.7988,0.7988,0.7988,0.7988,0.7988,0.7988,0.7988,0.7988,0.7988,0.7988,0.7988,0.7841,0.76,0.7597,0.7387,0.7095,0.7095,0.7095,0.7095,0.7095,0.7095,0.7095,0.7095,0.7095,0.7095,0.7095,0.7095,0.7095,0.7095,0.7095,0.7095,0.7095,0.698,0.6886,0.6886,0.6671,0.6515,0.6511,0.6388,0.63,0.63,0.63,0.63,0.63,0.63,0.63,0.63,0.63,0.63,0.63,0.63,0.5825,0.4727,0.4727,0.4178,0.3124,0.2113,0.1058,0.0,0.0,0.0,0.0,0.0,0.0,0.0,0.0,0.0,0.0,0.0,0.0,0.0,0.0,0.0,0.0,0.0,0.0706,0.1762,0.7988,0.7988,0.7988,0.7988,0.7988,0.7988,0.7988,0.7988,0.7988,0.7988,0.7988,0.7988,0.7988,0.7988,0.7988,0.7988,0.7988,0.7988,0.7988,0.7988,0.7988,0.7988,0.7988,0.7988,0.7988,0.7988,0.7988,0.7988,0.7988,0.7988,0.7988,0.7988,0.7988,0.7988,0.7988,0.7988,0.7988,0.7988,0.7988,0.7988,0.7988,0.7988,0.7988,0.7988,0.7988,0.7988,0.7988,0.7988,0.7975,0.7916,0.7821,0.7712,0.7506,0.7302,0.7095,0.7095,0.7095,0.7095,0.7095,0.7095,0.7095,0.7095,0.7095,0.7095,0.7095,0.7095,0.7095,0.7095,0.7095,0.7095,0.7095,0.7061,0.7001,0.6903,0.6763,0.6597,0.6528,0.6388,0.63,0.63,0.63,0.63,0.63,0.63,0.63,0.63,0.63,0.63,0.63,0.63,0.6141,0.5825,0.5825,0.5315,0.4217,0.2465,0.145,0.1098,0.0353,0.0,0.0,0.0,0.0,0.0,0.0,0.0,0.0,0.0,0.0,0.0,0.0,0.0471,0.1137,0.1137,0.2231,0.3828,0.7988,0.7988,0.7988,0.7988,0.7988,0.7988,0.7988,0.7988,0.7988,0.7988,0.7988,0.7988,0.7988,0.7988,0.7988,0.7988,0.7988,0.7988,0.7988,0.7988,0.7988,0.7988,0.7988,0.7988,0.7988,0.7988,0.7988,0.7988,0.7988,0.7988,0.7988,0.7988,0.7988,0.7988,0.7988,0.7988,0.7988,0.7988,0.7988,0.7988,0.7988,0.7988,0.7988,0.7988,0.7988,0.7988,0.7988,0.7988,0.7975,0.7884,0.7824,0.7675,0.7373,0.7214,0.7095,0.7095,0.7095,0.7095,0.7095,0.7095,0.7095,0.7095,0.7095,0.7095,0.7095,0.7095,0.7095,0.7095,0.7095,0.7095,0.7095,0.7095,0.7068,0.698,0.6837,0.6668,0.6576,0.6426,0.63,0.63,0.63,0.63,0.63,0.63,0.63,0.63,0.63,0.63,0.63,0.63,0.63,0.63,0.63,0.5983,0.5354,0.3675,0.262,0.219,0.1527,0.1019,0.0628,0.0628,0.0628,0.0628,0.0628,0.0862,0.1214,0.1214,0.1214,0.1214,0.1214,0.1605,0.219,0.219,0.3244,0.4688,0.7988,0.7988,0.7988,0.7988,0.7988,0.7988,0.7988,0.7988,0.7988,0.7988,0.7988,0.7988,0.7988,0.7988,0.7988,0.7988,0.7988,0.7988,0.7988,0.7988,0.7988,0.7988,0.7988,0.7988,0.7988,0.7988,0.7988,0.7988,0.7988,0.7988,0.7988,0.7988,0.7988,0.7988,0.7988,0.7988,0.7988,0.7988,0.7988,0.7988,0.7988,0.7988,0.7988,0.7988,0.7988,0.7988,0.7988,0.7988,0.7985,0.7961,0.7814,0.7526,0.7189,0.7095,0.7095,0.7095,0.7095,0.7095,0.7095,0.7095,0.7095,0.7095,0.7095,0.7095,0.7095,0.7095,0.7095,0.7095,0.7095,0.7095,0.7095,0.7095,0.7095,0.7095,0.6905,0.6715,0.6702,0.6497,0.6313,0.6303,0.63,0.63,0.63,0.63,0.63,0.63,0.63,0.63,0.63,0.63,0.63,0.63,0.63,0.63,0.63,0.5315,0.4295,0.324,0.3163,0.2618,0.1723,0.1723,0.1723,0.1723,0.1723,0.2268,0.3085,0.3085,0.3085,0.3083,0.3078,0.308,0.3083,0.3078,0.3781,0.4724,0.7988,0.7988,0.7988,0.7988,0.7988,0.7988,0.7988,0.7988,0.7988,0.7988,0.7988,0.7988,0.7988,0.7988,0.7988,0.7988,0.7988,0.7988,0.7988,0.7988,0.7988,0.7988,0.7988,0.7988,0.7988,0.7988,0.7988,0.7988,0.7988,0.7988,0.7988,0.7988,0.7988,0.7988,0.7988,0.7988,0.7988,0.7988,0.7988,0.7988,0.7988,0.7988,0.7988,0.7988,0.7988,0.7988,0.7988,0.7988,0.7955,0.7773,0.7573,0.739,0.7156,0.7095,0.7095,0.7095,0.7095,0.7095,0.7095,0.7095,0.7095,0.7095,0.7095,0.7095,0.7095,0.7095,0.7095,0.7095,0.7095,0.7095,0.7095,0.7095,0.7095,0.7095,0.695,0.6837,0.6719,0.6542,0.6426,0.6313,0.63,0.63,0.63,0.63,0.63,0.63,0.63,0.63,0.63,0.63,0.63,0.63,0.63,0.63,0.63,0.606,0.5434,0.4334,0.3513,0.2968,0.2773,0.2773,0.2773,0.2773,0.2773,0.289,0.3085,0.3085,0.3085,0.308,0.2986,0.2998,0.3078,0.2984,0.3691,0.4779,0.8238,0.8086,0.8032,0.8225,0.8194,0.815,0.815,0.815,0.8123,0.7998,0.7988,0.7988,0.7988,0.7988,0.7988,0.7988,0.7988,0.7988,0.7988,0.7988,0.7988,0.7988,0.7988,0.7988,0.7988,0.7988,0.7988,0.7988,0.7988,0.7988,0.7988,0.7988,0.7988,0.7988,0.7988,0.7988,0.7988,0.7988,0.7988,0.7988,0.7988,0.7988,0.7988,0.7988,0.7988,0.7988,0.7988,0.7988,0.7944,0.7699,0.7546,0.7441,0.7169,0.7095,0.7095,0.7095,0.7095,0.7095,0.7095,0.7095,0.7095,0.7095,0.7095,0.7095,0.7095,0.7095,0.7095,0.7095,0.7095,0.7095,0.7095,0.7095,0.7095,0.7095,0.6977,0.6832,0.6722,0.6569,0.646,0.6317,0.63,0.63,0.63,0.63,0.63,0.63,0.63,0.63,0.63,0.63,0.63,0.63,0.63,0.63,0.63,0.63,0.6025,0.547,0.4882,0.4373,0.3865,0.3865,0.3865,0.3865,0.3865,0.4139,0.4603,0.4512,0.449,0.4477,0.4333,0.4064,0.3801,0.4163,0.4699,0.529,0.8459,0.8282,0.8194,0.8438,0.8384,0.8357,0.8357,0.8337,0.8225,0.8096,0.8005,0.7988,0.7988,0.7988,0.7988,0.7988,0.7988,0.7988,0.7988,0.7988,0.7988,0.7988,0.7988,0.7988,0.7988,0.7988,0.7988,0.7988,0.7988,0.7988,0.7988,0.7988,0.7988,0.7988,0.7988,0.7988,0.7988,0.7988,0.7988,0.7988,0.7988,0.7988,0.7988,0.7988,0.7988,0.7988,0.7988,0.7988,0.7948,0.7726,0.7617,0.755,0.7268,0.7119,0.7095,0.7095,0.7095,0.7095,0.7095,0.7095,0.7095,0.7095,0.7095,0.7095,0.7095,0.7095,0.7095,0.7095,0.7095,0.7095,0.7095,0.7095,0.7095,0.7095,0.6997,0.6859,0.6725,0.659,0.6491,0.632,0.63,0.63,0.63,0.63,0.63,0.63,0.63,0.63,0.63,0.63,0.63,0.63,0.63,0.63,0.63,0.63,0.63,0.63,0.63,0.5825,0.496,0.496,0.496,0.496,0.496,0.5458,0.6248,0.6084,0.5976,0.5939,0.5823,0.5236,0.4599,0.5326,0.5584,0.5561,0.8479,0.8448,0.8435,0.8476,0.8465,0.8455,0.8455,0.835,0.8313,0.8241,0.8123,0.7988,0.7988,0.7988,0.7988,0.7988,0.7988,0.7988,0.7988,0.7988,0.7988,0.7988,0.7988,0.7988,0.7988,0.7988,0.7988,0.7988,0.7988,0.7988,0.7988,0.7988,0.7988,0.7988,0.7988,0.7988,0.7988,0.7988,0.7988,0.7988,0.7988,0.7988,0.7988,0.7988,0.7988,0.7988,0.7988,0.7988,0.7965,0.7841,0.7702,0.757,0.7397,0.7248,0.7095,0.7095,0.7095,0.7095,0.7095,0.7095,0.7095,0.7095,0.7095,0.7095,0.7095,0.7095,0.7095,0.7095,0.7095,0.7095,0.7095,0.7095,0.7095,0.7095,0.7082,0.697,0.6739,0.6681,0.6569,0.6334,0.63,0.63,0.63,0.63,0.63,0.63,0.63,0.63,0.63,0.63,0.63,0.63,0.63,0.63,0.63,0.63,0.63,0.63,0.63,0.6219,0.6103,0.6103,0.6103,0.6103,0.6103,0.6068,0.6023,0.6,0.5915,0.5817,0.5674,0.5156,0.4527,0.4637,0.4673,0.4764,0.872,0.8601,0.8537,0.8706,0.8665,0.8611,0.8611,0.8557,0.8459,0.8344,0.8211,0.8136,0.7998,0.7988,0.7988,0.7988,0.7988,0.7988,0.7988,0.7988,0.7988,0.7988,0.7988,0.7988,0.7988,0.7988,0.7988,0.7988,0.7988,0.7988,0.7988,0.7988,0.7988,0.7988,0.7988,0.7988,0.7988,0.7988,0.7988,0.7988,0.7988,0.7988,0.7988,0.7988,0.7988,0.7988,0.7988,0.7988,0.7968,0.7862,0.7719,0.7573,0.7463,0.7265,0.7095,0.7095,0.7095,0.7095,0.7095,0.7095,0.7095,0.7095,0.7095,0.7095,0.7095,0.7095,0.7095,0.7095,0.7095,0.7095,0.7095,0.7095,0.7095,0.7095,0.7095,0.6994,0.6742,0.6702,0.659,0.6334,0.63,0.63,0.63,0.63,0.63,0.63,0.63,0.63,0.63,0.63,0.63,0.63,0.63,0.63,0.63,0.63,0.63,0.63,0.63,0.63,0.63,0.63,0.63,0.63,0.63,0.6173,0.5986,0.5935,0.5817,0.5671,0.5552,0.5294,0.4927,0.4404,0.4545,0.5058]}]]